GFSSGP_2pvu_pres_000.txt.gz
Presure
155 123 140 92 88 94 113 87 91 153 142 160 108 150 150 161 115 206 214 116 190 197 187 182 183 192 186 189 176 162 165 124 125 149 174 131 129 148 140 138 125 131 116 145 143 147 125 135 128
92 157 157 147 88 84 89 138 119 157 157 168 172 140 155 161 165 268 241 180 151 195 189 109 170 203 193 142 185 159 158 182 174 148 118 148 164 172 128 147 145 115 144 152 123 96 127 153 138
84 120 93 151 157 109 89 110 149 151 158 172 157 163 176 84 167 85 96 227 90 106 128 198 195 128 205 213 174 188 172 172 182 150 162 160 119 154 123 124 139 134 127 142 116 131 124 129 132
90 94 92 140 157 165 85 93 153 148 157 155 84 157 167 144 245 173 91 90 90 146 97 202 104 155 194 199 181 172 176 179 172 136 173 124 144 147 109 152 133 122 141 127 122 132 136 154 164
92 88 96 106 166 157 148 150 134 162 172 167 156 164 160 142 148 217 240 123 119 96 126 101 97 204 132 180 174 197 172 176 175 163 164 132 125 102 134 138 90 95 143 136 124 139 150 157 106
88 90 156 123 99 147 155 150 158 164 157 168 151 101 95 89 93 125 215 163 130 177 157 124 100 108 205 187 156 183 189 182 159 135 167 131 128 89 126 130 127 128 131 123 128 148 143 130 110
89 93 149 126 178 144 138 141 132 171 171 166 134 168 87 94 96 100 141 107 163 209 135 130 158 151 154 156 185 183 160 85 145 129 175 141 138 145 97 136 154 144 140 160 185 180 164 145 109
167 193 122 179 182 109 129 114 118 152 119 151 116 145 202 238 255 243 236 233 214 140 134 134 128 133 199 189 149 135 135 182 182 158 150 153 128 101 145 138 198 181 202 188 170 149 143 158 142
90 183 181 170 185 122 146 123 164 166 167 121 109 140 177 145 165 158 241 231 199 214 177 141 125 109 135 131 193 152 148 154 149 132 95 124 120 114 216 188 174 195 169 153 153 157 157 147 155
142 173 166 170 120 125 155 133 181 145 118 125 155 170 196 173 231 203 227 222 125 174 190 177 149 104 107 142 145 143 89 102 107 81 160 170 162 140 167 196 172 150 150 153 157 151 159 149 121
138 145 147 187 147 159 129 90 175 84 169 174 210 176 95 226 237 178 129 125 189 205 185 94 98 103 109 110 151 180 153 136 157 171 175 182 174 189 126 149 153 161 160 114 157 156 143 139 132
152 143 196 184 167 153 149 176 170 170 170 179 172 109 268 252 242 226 139 215 119 131 201 206 184 105 165 114 188 182 177 174 174 199 181 172 172 157 154 166 134 155 157 139 134 128 134 135 150
141 185 166 183 168 151 163 149 102 163 166 171 114 178 131 245 241 237 214 157 130 146 187 168 180 184 168 168 177 180 185 192 173 174 179 144 112 141 154 152 156 153 149 138 136 150 151 148 145
134 140 112 131 156 165 162 174 151 164 159 170 129 110 231 231 214 216 166 163 175 164 112 112 110 173 155 156 100 170 170 178 154 141 145 141 149 152 156 159 144 139 145 148 143 153 157 161 161
95 139 82 82 91 163 169 177 162 154 160 151 164 163 110 190 185 191 216 189 192 197 196 192 183 186 190 102 192 162 148 145 144 149 151 151 158 144 141 148 149 148 150 153 153 147 156 167 175
195 208 140 80 84 169 173 179 138 151 162 152 101 102 192 208 191 182 196 193 199 199 195 191 191 187 183 137 144 150 152 154 155 155 156 154 140 148 147 149 153 149 150 147 142 148 176 169 175
93 191 191 122 120 94 174 180 156 92 164 164 154 156 150 161 186 183 187 193 208 200 171 150 143 145 145 153 159 165 166 166 163 156 151 126 145 150 146 145 150 158 157 167 179 180 160 163 168
90 165 137 150 108 126 170 128 164 172 135 164 158 158 166 159 156 151 151 159 152 149 150 153 158 162 163 167 166 160 149 153 104 92 96 139 148 146 149 147 151 178 167 176 189 174 179 190 157
90 97 96 102 162 119 178 181 133 147 153 133 158 156 157 152 154 171 159 158 157 151 161 160 166 167 163 157 155 153 105 97 97 151 144 141 140 148 145 187 176 164 149 159 170 194 163 187 162
173 91 96 102 131 142 172 182 162 149 151 150 164 158 157 161 163 162 157 160 165 167 162 161 157 100 117 149 155 157 151 151 153 153 141 152 145 145 150 163 153 157 174 179 190 174 172 107 126
217 91 164 140 151 168 174 182 102 137 146 152 158 103 159 160 158 151 150 150 151 121 123 96 156 153 155 149 149 157 157 138 135 141 143 174 130 144 176 181 172 183 166 184 182 202 187 132 121
208 101 163 155 156 168 144 94 97 157 149 153 160 159 167 154 151 151 90 108 159 159 91 148 154 158 156 154 153 135 152 157 155 167 180 164 181 183 174 168 146 157 169 167 166 167 113 137 197
193 160 162 138 165 145 169 156 180 103 135 105 162 162 163 139 130 90 157 90 90 135 160 160 152 145 148 154 163 163 154 157 156 179 157 167 164 163 177 178 148 170 146 182 122 174 180 178 238
190 122 157 157 175 147 147 155 104 171 108 163 159 126 131 149 125 138 154 138 151 154 157 140 145 147 152 148 149 142 125 143 176 154 176 170 181 165 161 186 187 191 175 193 168 180 196 184 76
149 133 167 161 173 161 141 129 99 168 127 129 132 120 127 142 155 163 158 153 140 143 140 126 128 135 159 150 167 161 165 160 172 176 171 168 165 145 99 171 160 170 176 186 191 168 183 231 79
169 170 133 172 172 166 104 98 102 165 168 167 119 155 168 166 127 116 151 157 155 144 163 126 145 151 150 125 167 172 169 169 173 171 184 173 140 185 171 133 122 182 87 194 190 195 168 205 170
166 159 163 171 131 143 165 159 158 152 171 173 101 97 157 162 162 163 154 149 148 149 162 156 145 168 171 159 157 163 165 157 149 158 149 182 150 167 186 105 165 185 185 183 187 169 241 153 178
171 176 164 136 157 125 148 118 146 97 109 127 108 154 167 171 174 159 160 163 166 157 151 164 164 172 171 165 142 166 169 175 129 177 172 186 173 187 109 194 170 150 135 199 197 214 233 184 189
165 161 139 162 170 141 133 77 142 156 149 159 160 138 143 162 139 163 168 126 145 100 166 171 165 166 169 116 163 161 173 80 84 182 174 169 186 197 168 187 183 188 197 183 164 181 73 70 154
157 174 165 157 167 167 157 164 136 148 136 149 129 170 169 167 157 170 171 169 169 167 157 177 178 168 169 175 179 114 174 180 159 189 188 181 182 174 204 204 187 100 205 173 162 240 214 171 197

GFSSGP_2pvu_pres_003.txt.gz
Presure
82 106 158 102 87 83 137 83 86 89 111 146 138 165 175 171 146 114 169 171 176 118 194 181 203 109 126 194 200 216 171 154 144 124 122 170 132 107 128 127 170 156 143 127 124 168 150 118 122
163 153 139 160 141 82 88 85 80 89 122 155 147 158 171 165 82 89 176 170 254 216 102 183 207 188 182 178 190 149 194 167 165 164 143 136 128 159 179 141 129 127 138 129 126 164 147 135 142
165 153 94 145 150 151 164 110 94 91 97 142 157 159 175 158 83 86 107 87 88 90 94 146 99 186 183 182 177 191 155 183 187 168 157 170 175 123 156 136 124 109 95 136 136 153 126 128 108
131 89 169 104 96 111 169 147 90 95 150 153 135 160 166 130 86 121 141 144 109 112 223 98 96 140 173 184 185 155 185 193 180 182 167 174 172 184 138 167 117 135 90 94 129 91 145 121 132
88 90 90 93 88 102 170 144 161 147 151 153 147 156 174 158 177 172 156 128 146 124 201 211 127 117 188 196 176 194 126 163 183 182 182 174 171 146 177 137 123 90 133 117 101 129 139 126 139
92 89 89 91 88 103 111 148 172 171 140 156 140 167 88 93 92 97 97 127 241 230 143 212 107 186 226 117 169 195 178 184 172 198 146 183 141 147 162 156 100 126 135 158 152 151 143 164 191
90 89 88 95 90 100 159 97 170 111 143 143 121 147 103 81 95 98 92 124 209 187 195 213 137 123 109 140 197 207 192 148 141 124 127 136 156 124 181 146 133 161 177 142 197 144 195 182 168
101 88 90 88 95 176 144 107 161 110 164 163 149 171 156 154 175 185 251 249 234 230 222 213 190 132 150 122 138 142 149 161 143 176 190 169 90 146 151 183 164 114 205 189 165 190 174 155 145
205 85 87 90 145 197 184 189 109 130 144 114 129 111 84 98 203 101 198 138 125 231 229 193 183 130 146 125 107 114 148 147 152 125 89 110 194 191 177 161 173 178 163 197 174 154 152 159 156
89 93 170 90 223 214 148 152 113 140 156 158 87 141 105 146 230 119 226 244 239 232 126 126 207 195 133 114 109 105 145 116 126 146 177 184 168 161 170 179 183 196 179 150 153 159 154 142 142
192 92 164 155 150 178 189 178 171 174 93 87 85 153 175 181 168 91 216 248 219 232 190 216 201 200 138 107 159 105 181 191 186 183 178 164 172 171 184 178 183 135 142 163 153 152 138 144 147
199 130 121 168 235 193 141 175 187 142 103 107 162 172 178 131 257 230 214 234 227 126 223 122 126 195 198 198 184 156 176 185 177 171 172 186 183 183 157 140 141 148 163 149 138 132 151 144 147
102 200 111 133 132 188 154 173 150 160 169 156 102 174 141 176 240 238 241 218 212 161 123 132 127 196 164 111 184 178 169 170 118 197 179 174 168 133 132 146 151 150 127 133 142 144 152 147 148
134 166 179 122 140 149 182 170 176 159 163 160 144 170 161 116 152 253 241 223 203 203 190 205 205 113 136 154 168 179 175 106 177 157 178 182 147 148 149 147 135 135 144 148 146 144 146 137 150
99 118 151 132 142 143 186 163 171 158 177 171 170 160 161 168 111 214 229 232 177 178 207 184 185 130 171 181 188 173 98 179 184 162 147 149 153 155 152 139 147 110 150 143 142 132 142 161 161
202 194 185 132 120 83 116 135 170 168 180 157 166 162 153 178 134 201 194 198 199 200 200 197 198 188 188 182 153 183 176 151 153 161 163 156 136 105 95 150 98 138 135 148 145 154 173 167 160
77 97 96 211 131 103 126 83 83 165 170 142 155 178 180 113 101 200 158 214 203 194 195 189 187 157 173 175 152 152 162 166 169 151 138 103 97 148 148 147 144 146 146 149 142 169 180 151 186
186 208 155 121 187 162 167 142 84 176 179 145 145 172 192 155 166 159 157 153 139 154 194 196 148 139 144 152 168 172 169 114 97 95 138 154 152 148 145 138 135 140 177 133 167 168 160 175 183
178 121 155 112 150 196 166 162 162 133 136 164 153 133 163 170 169 167 161 152 170 166 160 162 158 169 160 161 97 101 158 161 154 154 160 153 148 135 149 147 169 178 170 179 174 170 157 181 134
181 213 207 160 147 97 104 145 114 161 129 133 144 150 136 166 165 160 158 160 161 154 151 151 134 152 157 97 158 154 154 158 124 155 159 161 142 149 148 160 176 157 159 168 167 164 172 158 142
185 196 203 99 196 100 101 145 168 141 176 172 141 149 160 149 168 164 159 159 160 154 149 158 160 123 159 159 160 155 87 121 151 146 150 145 152 148 152 169 169 162 179 139 172 153 125 171 192
182 207 138 190 92 98 101 107 161 173 168 112 157 124 158 123 162 160 166 165 159 128 164 163 161 150 157 157 152 149 146 140 164 170 145 148 169 148 157 172 173 138 167 167 151 143 129 163 176
180 198 187 125 201 141 113 176 152 175 170 101 113 138 110 104 152 162 167 133 135 93 143 133 135 152 152 151 126 131 168 158 161 150 156 175 171 161 161 159 181 153 164 180 144 146 68 78 155
132 195 171 204 201 132 168 161 166 136 104 148 151 116 110 110 171 162 157 148 128 161 161 159 136 132 128 120 153 128 143 164 162 175 159 171 128 169 179 170 160 166 178 178 99 155 159 174 179
142 198 181 220 150 154 131 157 164 149 122 95 152 173 105 107 161 145 120 167 127 95 97 161 165 154 140 160 163 158 91 130 153 173 163 166 158 171 137 167 151 167 118 72 99 188 182 171 206
207 207 185 214 171 167 153 149 155 175 97 96 98 97 141 109 102 124 163 137 158 169 154 165 171 166 162 168 174 102 165 163 173 179 179 175 154 109 178 167 166 160 70 181 177 184 178 193 189
184 175 229 196 146 168 175 179 159 174 165 162 105 159 152 173 169 152 171 171 142 152 144 177 151 174 156 171 127 168 173 168 171 170 167 152 179 181 175 163 180 187 81 172 88 179 177 152 94
200 167 200 191 185 161 155 173 159 156 160 150 133 103 159 144 163 158 161 150 169 153 141 164 110 170 151 163 167 174 162 178 158 161 177 173 181 173 170 182 194 191 171 183 205 201 201 192 160
182 190 165 187 172 172 108 104 90 165 152 130 125 143 162 157 143 157 153 169 151 173 156 172 170 162 167 175 164 179 76 163 155 170 176 183 169 167 176 192 174 171 184 202 190 203 199 212 193
193 184 179 176 149 171 158 163 162 160 168 149 169 155 166 167 171 125 174 150 168 170 155 152 171 172 174 136 166 161 176 180 178 186 188 173 191 194 195 183 184 204 204 202 207 205 210 176 201

GFSSGP_2pvu_pres_006.txt.gz
Presure
122 122 100 116 98 87 83 101 88 88 142 97 89 149 148 144 145 151 138 150 152 161 104 164 139 199 196 186 105 126 173 183 171 168 167 150 156 120 133 107 127 133 126 126 161 162 88 125 140
89 89 113 107 95 84 89 84 129 89 90 93 95 151 153 155 113 150 159 128 98 171 177 139 97 213 203 183 199 167 175 195 189 193 172 161 139 128 136 145 168 137 131 126 116 91 141 113 116
142 97 163 123 168 155 116 87 87 90 90 93 146 149 136 158 158 83 84 151 87 89 91 91 197 181 125 119 133 158 183 191 193 200 200 181 174 171 172 160 172 133 160 109 90 140 147 85 86
100 128 118 90 88 164 101 154 149 140 90 97 152 143 148 143 165 158 136 158 92 111 119 117 239 98 166 97 134 186 186 176 176 147 206 137 187 192 160 170 177 92 87 132 150 142 155 131 127
151 171 90 83 188 86 122 96 151 135 140 97 152 145 153 147 157 166 160 167 158 135 127 219 213 148 172 214 111 189 211 190 194 180 137 199 193 170 192 181 182 176 165 157 158 139 131 142 135
84 91 86 90 85 86 93 158 95 155 125 168 153 140 132 146 88 90 96 94 98 115 120 194 224 127 202 194 150 160 192 202 192 185 201 196 186 156 125 121 144 129 130 111 144 156 132 161 161
86 89 85 86 89 90 93 141 120 96 168 160 147 134 115 165 83 87 96 100 107 110 126 217 233 206 207 121 121 133 124 143 113 112 121 124 126 91 81 110 174 156 160 142 110 168 146 192 178
93 88 86 85 89 89 120 173 152 167 138 172 178 142 111 167 162 143 153 171 190 254 158 236 251 212 210 125 200 203 121 134 145 106 188 85 88 85 184 158 132 139 142 145 172 176 178 198 150
93 95 84 87 221 95 92 118 101 165 142 160 110 122 107 116 96 144 97 137 102 175 169 125 226 123 187 203 131 180 117 113 112 136 132 134 142 143 139 123 164 174 158 179 184 201 174 151 155
100 91 165 87 81 87 105 119 172 166 163 158 149 140 135 90 86 88 165 240 99 250 221 231 222 145 128 206 181 131 103 125 107 113 133 126 134 144 184 148 159 173 178 186 156 135 151 150 140
157 169 173 108 207 81 216 142 220 197 182 190 190 97 89 84 154 169 209 127 122 248 238 224 164 200 179 204 186 139 174 195 189 128 191 191 185 167 171 172 175 190 179 135 145 145 147 157 128
82 185 88 138 95 215 169 232 244 205 209 162 182 88 128 104 168 169 162 235 217 248 235 212 136 167 125 138 152 196 194 113 181 179 180 182 173 173 178 181 185 183 143 146 147 150 132 136 150
154 139 179 171 208 141 175 217 193 136 165 193 118 157 172 152 168 140 260 182 207 245 232 226 109 144 210 132 114 169 109 169 186 171 174 120 184 185 144 177 166 140 145 147 136 135 146 150 148
127 85 98 116 167 165 152 126 155 161 150 160 159 161 133 110 163 146 149 229 216 216 219 159 189 176 203 169 178 183 180 166 177 128 161 182 143 180 117 147 150 155 149 137 143 151 143 142 138
211 148 89 191 132 206 166 128 228 190 147 182 159 164 168 116 157 162 130 110 216 235 202 161 216 226 201 92 186 176 182 190 197 189 172 186 153 154 160 155 134 105 140 147 151 147 141 142 142
180 109 147 209 101 192 127 136 146 149 172 168 160 161 171 163 162 174 203 107 214 239 184 229 182 185 190 175 190 182 136 197 168 151 155 160 164 145 111 144 151 153 153 149 142 144 138 180 166
182 91 88 194 196 159 130 118 146 119 110 174 161 175 171 148 164 162 150 211 206 184 189 214 204 201 202 197 157 142 149 151 156 172 139 143 146 151 156 158 153 155 148 153 144 145 177 164 151
169 211 198 184 99 114 215 147 137 81 84 87 166 177 170 145 165 198 169 153 183 176 209 151 167 184 162 145 147 157 120 142 97 100 155 155 129 155 152 148 149 153 135 151 154 160 167 171 163
170 173 181 85 198 176 108 171 126 156 169 169 162 178 173 158 135 178 174 167 169 163 157 200 162 159 157 156 95 95 158 97 96 157 160 151 147 147 145 159 152 135 152 166 164 161 171 175 158
162 165 169 113 197 189 170 134 162 145 165 174 163 180 141 167 138 131 151 173 162 166 158 163 140 149 149 148 158 161 161 102 122 149 146 141 152 160 164 159 144 150 161 171 145 163 158 172 171
101 177 167 174 194 202 160 135 190 149 133 144 154 127 132 140 157 152 151 147 168 166 167 157 151 159 157 169 167 148 152 158 90 141 152 139 135 135 161 147 165 179 153 159 157 177 160 119 170
182 188 138 198 185 195 166 210 103 102 101 126 156 125 168 168 163 147 155 176 161 159 163 169 165 169 167 155 144 118 145 147 159 121 125 126 141 154 167 152 175 157 132 165 150 170 158 177 143
194 187 199 179 176 191 208 199 150 129 103 104 149 170 164 101 163 160 123 106 171 178 156 166 126 128 132 168 137 158 137 164 130 131 95 167 139 108 149 130 169 169 155 167 145 164 172 161 174
161 167 202 181 188 181 203 150 105 170 179 169 144 172 172 176 177 118 139 110 108 166 114 165 169 138 102 108 144 172 168 166 169 150 163 133 116 156 176 169 173 166 165 177 172 178 153 123 106
177 165 123 161 188 139 183 198 128 137 137 165 158 153 129 104 168 154 103 101 178 164 129 100 142 138 147 140 144 169 146 161 149 147 171 160 160 160 168 169 157 177 126 167 180 182 167 78 189
104 164 192 121 190 165 180 193 191 180 176 160 166 164 142 96 96 99 102 172 151 175 150 171 148 155 172 171 166 132 170 156 151 172 172 169 179 172 161 170 166 167 170 187 178 166 186 192 191
188 176 180 170 197 185 168 184 200 159 166 140 153 156 175 170 120 158 155 94 165 168 168 152 159 145 145 143 177 174 77 155 170 167 167 167 169 159 169 173 175 177 181 173 181 189 190 177 169
174 182 164 175 179 177 194 166 204 177 168 157 159 173 164 177 168 131 108 164 169 155 157 154 175 165 169 168 162 167 169 166 173 181 181 169 159 177 175 178 185 174 174 191 184 185 185 184 196
159 170 169 192 182 193 175 187 191 154 153 101 93 94 178 175 153 158 160 167 174 179 165 165 140 163 177 167 167 166 165 146 157 168 165 154 175 177 187 180 178 183 194 203 202 183 205 189 169
189 194 151 180 171 193 172 172 204 183 157 161 141 129 162 184 168 170 161 137 178 141 134 141 178 167 173 161 163 180 177 170 163 175 176 133 181 139 172 192 156 200 189 161 213 205 163 208 158

GFSSGP_2pvu_pres_009.txt.gz
Presure
87 85 83 84 126 159 123 132 154 89 88 91 132 148 150 147 151 140 152 145 155 148 168 150 152 105 102 172 174 172 176 175 174 116 171 164 150 113 155 148 157 111 177 164 119 123 97 149 188
107 115 94 80 92 110 83 131 113 104 85 87 94 149 147 139 148 146 154 151 155 91 122 123 92 135 97 183 134 132 103 193 182 183 158 175 185 183 174 171 152 145 128 99 158 133 96 99 117
88 161 132 160 152 94 132 89 87 84 101 91 94 97 147 149 147 99 157 143 118 143 119 144 90 99 168 95 108 98 103 191 164 175 184 122 185 212 211 197 175 174 156 148 167 164 133 164 168
108 77 82 148 107 155 111 147 111 161 140 90 100 97 149 152 144 144 144 145 159 169 159 114 156 119 260 98 225 214 191 175 184 210 200 167 119 194 191 197 198 179 179 190 165 192 142 135 141
103 99 126 93 89 144 86 146 168 144 165 165 140 101 151 155 142 150 156 153 167 169 156 170 158 124 205 235 116 228 183 203 192 196 182 174 184 191 190 205 175 198 197 143 197 179 172 181 135
164 163 110 108 78 79 84 92 97 101 130 151 143 138 156 158 147 120 152 122 129 133 93 135 174 128 261 243 234 182 193 108 190 151 159 188 195 177 145 145 83 84 157 162 168 135 134 147 121
117 165 174 87 173 86 82 88 110 103 97 142 185 127 163 159 144 137 127 94 91 125 157 169 115 128 273 224 198 209 199 192 133 115 136 120 127 201 93 84 169 192 186 123 175 174 147 141 144
117 96 87 113 89 89 87 79 153 98 188 124 146 104 175 171 110 151 146 167 162 167 154 163 204 204 247 226 208 222 205 187 120 122 202 124 189 153 195 194 191 194 144 147 149 152 107 177 184
85 91 157 89 90 85 87 83 89 105 94 167 128 103 157 164 147 111 113 129 100 100 96 206 150 218 178 242 222 121 198 176 143 104 115 108 116 142 138 133 146 146 143 145 152 172 178 184 134
84 87 118 90 93 90 91 84 91 94 198 122 149 183 169 141 119 84 159 90 92 144 170 188 208 236 249 236 206 127 213 199 191 123 134 153 131 135 91 181 105 149 187 170 181 102 156 136 141
93 93 89 100 91 84 74 208 87 219 239 137 157 242 161 155 104 83 159 147 164 162 158 227 246 236 232 165 160 206 128 216 103 152 199 187 197 195 194 114 179 182 178 179 128 167 143 145 145
195 102 93 93 88 100 118 109 90 215 236 160 221 168 177 124 98 90 141 170 174 175 174 228 246 242 227 227 139 161 137 116 193 204 109 199 153 183 185 156 178 185 191 184 160 146 139 150 148
152 145 178 138 140 181 101 179 112 141 227 248 244 216 193 183 119 102 172 166 170 169 127 152 239 232 229 198 154 213 202 154 161 199 154 188 176 169 128 173 143 172 144 146 149 156 131 147 141
151 154 203 90 148 159 203 102 169 116 221 228 134 222 179 193 142 162 145 164 163 133 157 222 247 214 166 217 184 170 172 194 196 185 181 173 149 176 183 181 130 156 161 149 148 142 151 149 151
170 81 93 182 81 106 151 106 105 184 127 130 244 171 189 195 174 166 170 110 162 159 114 111 210 243 164 225 237 199 207 176 195 179 188 182 149 152 161 99 168 139 144 140 148 157 154 159 152
197 200 141 105 198 155 145 134 187 144 183 195 181 173 197 177 160 165 139 159 162 153 243 253 222 216 233 230 216 203 199 188 161 142 151 151 129 95 156 154 146 148 156 160 154 159 151 162 145
184 151 215 107 180 146 171 206 131 168 190 117 193 121 132 182 160 165 172 149 167 161 210 174 186 184 215 186 191 189 169 148 144 136 94 125 121 93 154 155 157 159 149 157 161 167 166 136 150
181 201 195 146 93 180 164 172 112 112 128 137 82 87 187 160 159 167 170 162 166 170 167 155 207 180 159 200 203 157 157 158 147 153 155 105 147 160 160 157 150 142 160 166 160 150 149 165 166
83 179 121 192 207 146 135 187 194 206 211 148 190 155 173 174 165 165 171 165 144 163 168 216 173 173 161 166 142 153 144 143 156 158 159 158 155 160 157 161 148 150 131 126 137 161 117 163 166
99 111 163 200 198 187 164 101 108 98 157 154 205 164 157 170 160 156 175 165 135 135 150 159 167 166 170 169 166 163 163 168 164 154 151 157 147 152 153 139 124 128 139 104 147 126 133 162 172
99 163 158 192 140 158 159 173 97 107 152 173 200 178 168 167 168 155 157 156 169 149 156 163 159 158 157 152 163 166 161 155 159 87 134 153 158 141 135 148 129 154 149 155 168 157 165 171 166
179 187 180 191 206 190 183 185 186 193 95 114 133 102 107 166 159 153 131 131 168 166 157 153 106 135 123 176 171 168 136 137 144 163 163 166 152 142 173 158 148 153 155 169 108 176 177 161 158
181 99 127 169 174 144 186 183 189 198 190 114 130 149 101 102 115 153 131 157 179 110 163 153 103 111 114 103 112 117 130 136 160 141 130 135 142 162 158 167 176 181 165 160 170 165 164 164 153
182 123 163 129 166 100 176 184 186 199 174 212 104 92 155 109 108 128 159 177 165 180 116 99 102 106 108 159 147 138 135 158 131 154 158 168 172 132 158 162 151 149 165 179 177 156 165 170 171
175 177 193 173 145 151 174 182 186 184 139 201 194 121 179 156 169 143 156 157 123 95 97 149 102 97 168 172 167 152 171 164 149 148 153 159 149 154 160 155 157 183 171 170 163 154 169 173 189
175 184 174 140 177 185 88 154 186 198 184 196 191 195 177 169 167 160 151 168 95 163 162 96 153 164 166 159 167 171 182 147 157 139 159 174 164 149 150 180 178 142 169 176 158 169 175 183 181
84 151 174 176 178 152 178 167 186 194 168 184 186 130 138 140 141 158 160 175 160 178 177 167 159 154 156 171 174 89 154 163 182 174 151 158 147 181 176 172 182 173 171 165 188 178 182 149 182
184 175 166 107 165 178 169 180 191 177 177 177 177 201 203 184 139 122 153 162 168 155 179 172 173 171 166 160 162 153 153 153 151 161 153 167 179 180 176 168 175 176 178 188 187 169 181 176 173
193 186 159 181 168 174 174 169 174 184 182 188 186 177 194 204 163 97 96 136 185 172 175 173 165 145 181 171 145 155 147 150 172 163 180 173 170 167 163 165 184 193 198 207 197 117 144 173 215
195 186 173 186 164 182 179 164 162 162 191 194 189 177 204 208 148 157 166 170 137 153 152 171 172 163 180 175 149 181 179 178 170 176 170 168 168 189 192 195 196 202 120 149 177 206 187 140 180

GFSSGP_2pvu_pres_012.txt.gz
Presure
85 111 96 94 85 86 95 100 87 127 114 90 92 96 97 149 151 151 138 144 143 149 150 145 156 163 97 143 103 117 158 159 161 165 167 153 163 126 163 163 136 162 165 84 116 157 141 93 98
94 94 104 95 93 89 102 129 146 106 120 94 117 93 94 149 144 120 83 144 147 150 153 89 92 94 96 119 160 171 163 99 103 166 185 179 180 181 175 172 174 172 181 177 168 115 135 129 121
178 136 85 82 171 104 130 84 108 135 83 90 94 93 113 101 145 155 147 146 151 118 149 139 140 145 139 141 132 118 100 221 227 216 203 191 192 187 165 127 145 127 189 211 204 214 162 166 163
171 122 79 81 104 126 109 116 113 100 149 125 150 96 102 98 152 149 149 144 147 149 151 153 167 134 168 122 122 157 240 238 227 114 201 131 199 180 194 183 142 140 178 83 87 186 199 173 211
181 143 108 132 155 171 142 116 161 111 146 133 146 157 142 117 118 140 155 149 150 137 157 152 167 170 155 164 131 129 130 141 226 214 123 187 181 175 203 189 184 162 83 111 159 187 200 202 157
106 106 79 84 100 171 153 114 87 118 107 124 159 163 146 166 126 152 154 83 149 89 152 153 174 142 160 164 166 140 203 167 222 227 163 182 146 108 149 105 119 86 96 125 164 167 175 147 143
117 107 110 88 103 160 79 81 85 105 130 94 153 152 129 152 95 149 148 157 105 132 96 148 157 164 163 151 120 244 244 232 224 216 130 125 174 104 112 168 175 192 202 200 197 197 190 177 144
84 100 109 103 170 94 86 81 84 88 94 181 93 144 113 181 192 148 182 168 141 140 162 168 165 159 161 178 221 142 236 233 225 217 135 131 133 105 189 103 134 123 93 135 141 143 143 143 88
84 102 104 107 101 106 85 148 88 89 114 89 92 153 182 112 108 155 158 154 80 88 96 94 171 165 110 112 262 242 179 224 215 208 184 201 195 135 139 135 202 133 151 173 126 150 152 192 182
99 119 84 87 111 117 86 84 90 168 86 97 128 180 196 200 149 119 181 117 84 124 123 153 173 176 165 255 268 248 231 218 210 124 124 169 138 188 202 193 199 195 181 201 200 191 184 181 190
87 91 142 90 181 88 132 88 96 95 78 89 228 220 234 160 123 124 137 106 93 99 167 159 176 175 176 263 261 142 242 158 127 131 117 181 208 199 205 184 167 193 193 185 187 184 143 193 175
119 88 89 94 88 186 87 93 78 98 158 189 148 195 230 247 225 224 114 117 91 132 170 168 173 166 208 240 253 242 239 230 205 137 112 120 129 188 122 150 189 193 184 133 187 98 153 149 150
213 88 91 146 87 90 108 93 80 154 186 159 99 188 227 255 231 225 179 173 143 195 133 172 169 168 227 239 250 243 233 196 201 142 186 203 205 200 186 192 181 176 139 124 167 156 161 164 162
160 161 135 93 89 91 90 86 88 174 102 183 98 194 229 258 227 221 165 195 199 165 176 161 151 117 111 105 248 194 186 204 214 214 200 179 203 191 190 106 87 138 157 113 169 153 148 151 149
203 196 194 193 183 95 90 109 104 194 98 127 212 102 249 247 234 170 212 190 194 161 179 155 162 162 211 104 247 178 231 229 212 211 211 203 193 151 94 119 99 98 163 157 154 154 154 161 162
187 202 161 166 188 155 182 105 116 122 94 119 167 222 156 122 230 176 176 193 185 159 175 159 167 167 224 236 209 218 224 233 202 219 194 147 136 146 163 165 157 153 154 157 159 161 160 141 164
192 185 186 140 136 190 89 164 155 188 165 210 157 217 234 140 144 82 158 187 171 158 177 149 171 179 193 158 187 198 152 225 116 130 154 193 157 151 155 160 160 163 165 166 167 157 130 142 110
192 187 195 180 123 106 187 178 195 179 136 203 137 184 129 114 85 172 189 178 170 163 177 173 158 172 171 177 161 176 165 165 163 157 149 142 148 158 156 163 155 150 162 153 154 159 140 134 148
190 190 200 195 194 201 189 190 178 192 197 199 109 140 116 84 196 135 186 178 172 163 180 142 139 164 157 161 166 162 173 168 170 166 165 161 161 159 152 162 158 136 166 169 154 163 142 164 163
197 191 194 180 201 216 181 194 100 96 136 197 202 88 202 148 137 135 182 165 174 158 170 173 158 133 141 155 135 156 115 152 126 161 165 161 160 138 155 158 142 169 134 139 174 162 142 163 168
195 126 182 203 186 203 200 184 177 154 130 154 105 140 165 219 153 104 154 167 166 162 150 159 146 171 156 154 104 104 136 104 112 167 168 167 144 145 131 167 173 155 139 135 156 173 156 152 150
95 185 188 164 88 199 177 167 184 91 111 105 93 163 209 130 132 129 102 116 167 164 124 129 132 169 132 114 103 103 105 102 128 161 170 141 160 144 133 134 155 145 176 169 166 162 168 155 151
108 182 185 136 183 174 163 166 97 170 161 191 197 192 208 210 97 150 145 107 106 111 142 149 170 170 119 104 102 101 93 173 161 171 174 152 172 175 182 161 141 168 174 168 147 152 153 169 160
174 187 164 182 191 170 128 183 118 185 189 181 195 187 198 211 167 97 101 164 110 126 155 158 153 140 115 163 96 97 163 152 166 158 163 177 180 157 163 148 165 158 142 159 165 181 179 180 175
184 183 193 116 165 179 171 134 193 175 144 172 189 191 193 190 139 200 183 125 164 162 152 145 157 142 135 147 174 168 165 161 158 169 176 164 152 161 174 154 173 176 175 160 169 167 172 176 179
158 181 165 174 180 165 161 95 177 172 177 188 181 187 190 196 195 192 199 128 165 169 170 157 161 152 175 163 165 168 167 160 174 160 180 174 134 140 177 143 156 157 169 164 169 172 194 183 186
167 180 190 185 191 156 174 156 198 159 161 138 187 190 181 180 185 171 191 138 177 154 144 155 160 126 166 154 155 171 160 164 179 178 141 170 160 157 147 175 172 158 165 192 184 140 188 192 189
175 181 178 165 176 183 148 163 182 185 156 177 196 191 168 173 178 183 180 140 130 152 142 91 140 167 155 173 165 172 182 184 176 165 148 163 158 189 158 157 175 181 183 192 185 192 167 217 170
168 167 180 177 184 176 175 167 171 170 164 178 161 190 187 184 185 184 136 180 180 191 184 198 170 170 171 140 171 144 174 170 177 155 148 176 177 176 174 184 170 185 191 156 186 133 129 127 135
185 191 177 168 179 178 171 173 186 178 186 192 172 177 174 183 195 190 189 182 181 188 164 201 202 179 160 182 124 164 159 161 153 174 165 164 189 191 185 178 162 186 136 100 218 146 126 131 135

GFSSGP_2pvu_pres_015.txt.gz
Presure
101 143 89 90 87 124 91 93 93 96 135 125 128 89 89 99 142 146 106 147 150 148 149 157 133 148 157 90 160 141 107 103 144 154 97 161 140 163 165 161 167 165 164 162 165 167 160 127 169
127 103 127 90 94 94 97 118 101 90 146 102 88 122 94 94 103 114 112 153 100 152 140 142 149 155 97 131 100 100 153 151 157 121 107 164 159 160 192 160 171 173 163 149 169 173 173 176 158
191 93 122 125 95 127 98 88 91 85 101 84 90 100 87 97 101 112 151 144 151 144 152 152 145 156 140 148 136 136 137 123 105 163 169 172 226 222 215 205 196 189 119 120 175 88 182 183 177
118 103 97 157 91 99 92 86 89 162 125 159 162 147 129 148 94 120 140 137 152 162 148 144 147 154 146 151 169 140 169 161 163 170 146 236 164 126 237 205 197 192 197 181 124 99 195 180 184
115 165 179 93 86 84 116 174 141 116 106 104 128 170 148 138 150 164 143 162 155 152 151 161 134 157 161 150 166 170 157 139 147 138 97 148 226 112 125 206 134 108 104 127 148 124 126 111 122
114 105 151 106 112 94 172 140 84 163 94 99 96 114 157 138 153 161 150 133 151 119 122 163 142 141 121 126 102 161 160 167 181 210 241 234 225 213 168 140 109 149 197 164 179 139 159 204 200
96 103 155 105 110 119 125 121 103 91 100 95 95 163 109 103 158 160 147 135 165 161 160 139 142 150 154 172 95 97 110 131 169 142 241 235 212 145 150 123 131 184 111 161 143 119 129 131 143
95 102 104 187 84 90 102 79 82 86 89 169 174 93 117 114 104 145 104 156 158 148 166 86 125 146 165 155 170 174 172 176 256 256 225 227 124 206 203 147 122 106 134 134 195 107 86 161 179
104 175 109 123 116 95 103 93 81 90 87 100 89 103 159 147 151 143 134 150 187 173 189 89 91 110 186 161 171 177 163 234 255 240 235 114 193 180 126 200 133 135 200 105 182 197 203 190 157
128 141 104 150 109 110 99 92 80 92 143 161 89 95 95 133 179 184 169 177 132 133 107 145 153 157 175 164 176 173 174 240 261 241 225 221 205 151 157 169 172 203 109 210 124 107 192 196 194
108 146 84 100 104 110 112 91 92 90 132 102 87 94 84 84 167 207 203 233 231 137 171 92 149 145 164 169 174 164 190 242 256 247 230 230 147 127 202 205 128 125 214 158 203 194 191 159 143
82 78 86 86 98 129 108 93 173 116 92 89 80 80 152 200 115 165 232 240 248 249 228 110 102 163 204 176 174 159 126 260 202 232 239 226 223 222 213 195 201 197 197 127 193 173 165 142 202
159 168 89 83 90 161 174 149 94 135 98 91 88 133 182 147 175 197 200 203 252 179 228 134 136 196 169 178 164 111 104 109 250 241 173 160 227 207 210 211 218 206 139 134 190 173 173 156 162
124 212 133 93 166 109 99 101 90 96 100 95 87 104 100 212 214 216 234 266 237 218 173 190 189 183 148 169 159 155 157 200 248 239 171 226 219 200 211 185 96 164 149 146 168 173 178 167 159
211 113 137 212 224 94 93 102 92 100 94 88 94 202 144 217 114 116 266 242 241 218 213 193 197 162 182 166 169 161 163 239 249 234 233 227 212 141 205 151 152 146 188 170 187 159 153 156 158
201 216 155 181 122 91 90 93 87 90 85 91 121 209 193 121 214 139 226 220 223 145 145 203 191 162 182 163 175 169 159 208 207 150 158 203 227 201 165 180 161 146 153 150 157 160 160 162 161
203 142 204 162 195 147 139 143 96 88 165 150 158 105 145 107 213 200 120 81 129 190 199 193 181 148 172 163 173 187 169 159 187 158 181 181 161 159 153 150 147 153 161 161 162 165 150 156 131
194 199 196 203 194 148 197 191 189 190 192 102 195 128 125 185 198 237 118 151 141 174 195 169 179 166 164 155 152 169 157 164 160 163 162 118 153 109 164 163 163 166 166 160 156 144 143 137 162
189 190 195 153 188 191 89 187 186 185 86 93 183 171 188 205 226 153 221 133 142 144 147 182 180 169 162 179 135 135 155 140 149 160 108 106 159 172 171 164 159 155 167 130 160 130 145 159 177
189 194 191 188 188 194 188 182 176 186 188 176 187 192 174 208 219 94 121 158 135 136 147 173 174 174 161 181 171 144 177 145 149 104 104 98 112 169 168 166 166 164 166 164 165 171 168 160 139
183 191 192 185 152 184 141 180 131 192 191 132 185 129 138 198 203 225 219 214 182 156 119 150 168 169 143 142 127 131 149 102 104 102 92 150 144 174 165 165 173 158 156 139 177 169 127 155 176
192 193 185 189 185 183 186 210 186 186 184 194 162 186 96 183 103 104 87 118 98 119 108 117 109 108 119 118 125 149 166 103 94 95 155 171 173 164 173 165 157 148 160 165 140 176 148 137 148
187 193 193 186 187 182 191 175 196 155 195 185 176 191 148 109 107 155 179 199 184 95 122 99 114 109 168 157 152 89 162 111 168 170 175 152 159 169 157 178 163 163 181 147 139 137 155 155 161
187 186 175 193 181 186 193 186 185 178 175 172 149 187 123 189 193 122 206 214 120 202 187 108 150 167 169 166 154 155 167 156 148 134 171 170 165 174 170 163 174 177 168 172 173 171 188 177 164
167 175 168 189 167 184 138 198 100 170 179 108 177 172 183 185 187 172 192 197 201 195 173 180 173 145 161 164 169 169 165 131 159 169 162 175 167 175 190 190 189 161 170 182 193 186 174 169 176
181 74 186 176 167 183 167 196 195 177 169 199 107 107 181 162 183 188 190 195 197 195 198 185 199 166 130 117 163 174 155 162 170 165 125 157 165 179 174 167 167 167 189 172 165 170 173 182 194
174 173 99 179 170 187 138 94 170 152 177 92 106 173 179 181 178 189 188 190 181 182 181 192 193 192 192 143 145 146 148 163 171 162 169 134 178 143 164 171 176 189 163 175 144 118 197 131 166
182 183 177 178 120 95 183 194 176 169 185 184 156 157 168 159 167 177 194 192 183 178 183 180 178 158 183 141 194 205 175 203 180 189 189 165 165 169 195 153 176 173 194 180 187 139 139 181 157
187 190 185 183 181 165 120 165 144 179 167 174 178 192 179 165 179 170 192 190 183 179 187 189 189 190 189 187 165 190 172 160 148 190 153 152 187 202 206 202 186 176 193 150 158 171 194 198 135
189 191 182 179 171 176 171 170 196 187 167 181 158 159 160 172 172 181 186 177 177 185 194 193 194 185 181 187 191 145 137 197 197 161 178 165 190 176 171 203 137 185 139 157 202 127 218 210 205

GFSSGP_2pvu_pres_018.txt.gz
Presure
125 88 89 129 91 91 101 90 90 98 86 103 93 99 91 88 101 99 146 83 140 146 111 141 151 149 116 152 141 147 117 145 157 145 163 157 106 153 157 145 168 155 146 161 162 166 167 168 163
115 157 107 91 90 90 94 116 93 95 89 92 140 101 117 148 93 99 96 144 144 151 150 152 147 143 146 99 142 129 101 98 110 147 114 157 162 144 161 162 158 164 186 185 181 189 169 137 151
112 121 168 179 138 94 98 117 98 86 86 98 127 159 125 120 123 139 113 101 141 150 152 143 151 154 150 154 147 148 132 135 154 167 145 168 162 153 166 174 230 217 211 209 205 198 190 186 186
91 115 85 136 116 95 101 103 90 84 81 81 164 127 141 102 127 116 146 104 144 147 163 149 142 160 143 145 145 145 145 150 148 146 168 160 133 120 242 230 114 123 201 208 169 195 153 196 173
105 109 155 92 139 110 122 101 91 88 106 115 164 123 137 135 146 146 153 145 147 163 155 153 153 98 136 157 136 144 159 150 166 159 163 151 167 241 238 206 218 210 205 101 175 134 179 145 183
110 84 112 151 145 96 118 114 88 105 164 126 92 106 112 143 132 148 163 145 169 132 156 150 153 120 121 133 130 114 107 97 135 160 156 164 136 246 126 237 90 164 132 191 144 185 192 145 167
93 184 106 110 103 99 84 90 174 188 116 123 96 174 129 182 100 151 155 152 161 155 173 165 150 133 125 139 167 168 153 181 166 162 156 171 250 177 240 220 211 202 178 184 101 145 133 159 193
113 97 107 106 110 187 82 130 110 135 182 88 101 100 89 98 137 100 100 161 157 162 165 172 175 104 88 101 97 160 159 176 166 178 168 202 255 126 85 223 209 124 135 201 130 135 201 146 174
97 190 93 99 104 150 109 160 78 114 82 89 99 87 90 96 96 99 152 129 177 153 162 192 143 99 170 162 220 186 182 160 171 175 171 263 217 238 229 217 133 146 120 199 169 188 192 203 206
166 88 109 95 105 108 162 115 195 73 88 91 97 87 93 90 102 139 181 186 161 179 149 197 160 100 108 162 148 151 187 168 178 146 143 244 247 237 170 139 135 129 129 208 177 136 169 211 180
176 173 131 94 100 104 151 102 102 96 113 79 95 153 95 86 86 187 88 183 199 186 193 112 236 194 108 108 149 157 168 181 178 161 237 252 238 234 212 220 146 196 199 191 188 198 89 138 198
115 99 218 121 100 113 110 116 111 98 93 89 87 142 78 82 86 179 126 175 150 205 235 229 249 207 114 115 231 168 201 176 160 109 106 108 249 233 223 157 212 187 214 212 148 195 198 195 203
114 110 107 189 162 103 152 108 111 112 103 98 97 111 99 80 103 147 187 201 198 234 227 193 149 246 179 227 174 197 166 163 171 152 225 238 249 232 215 228 222 209 92 186 213 215 202 180 178
93 77 82 82 124 83 89 100 106 179 148 113 92 97 151 96 104 115 120 140 103 218 156 239 246 230 194 179 153 195 165 163 176 164 197 235 236 241 234 233 216 210 213 210 189 149 153 176 163
172 110 145 93 96 88 99 88 87 109 94 179 95 97 98 94 96 207 123 203 210 229 117 246 216 218 209 191 199 171 181 167 178 157 170 206 161 155 159 193 212 222 205 191 159 193 186 154 149
198 190 194 105 204 92 89 89 98 160 178 144 92 103 89 187 101 93 209 191 173 250 126 85 207 216 193 198 190 169 181 159 177 206 161 198 225 171 161 183 104 209 208 154 182 124 151 159 157
201 187 132 153 149 143 105 91 90 102 84 90 94 93 160 94 106 90 208 100 77 95 136 110 98 192 199 171 189 164 163 180 164 174 172 165 164 163 163 103 97 96 122 117 161 160 166 165 163
191 186 199 206 89 202 198 184 84 89 93 102 96 97 86 186 105 123 143 150 144 233 125 214 132 189 191 189 175 170 162 183 142 151 143 135 104 103 99 94 140 108 169 167 164 164 161 160 165
185 191 197 210 208 179 206 213 196 198 100 91 85 89 197 195 180 189 156 140 223 223 110 201 191 158 142 156 176 180 168 172 186 182 177 143 102 102 95 93 163 147 163 172 171 168 163 173 161
185 194 195 208 207 194 202 199 197 195 165 194 194 190 190 137 118 174 195 231 224 223 213 131 160 166 148 147 173 179 166 150 125 170 160 111 109 95 116 159 171 165 179 171 168 170 154 152 147
177 198 89 202 197 196 201 201 77 81 190 189 191 115 164 178 185 157 169 94 226 214 215 201 138 170 126 124 147 118 138 167 117 124 126 156 168 172 174 162 165 144 151 163 154 155 153 169 151
183 198 197 201 196 193 199 198 186 187 176 188 162 192 144 167 179 183 152 208 203 208 210 213 117 93 96 186 149 159 170 167 156 156 149 162 166 170 171 154 139 173 169 161 166 161 180 153 170
191 200 192 196 185 122 186 198 193 186 186 179 176 190 190 174 185 190 180 198 196 168 114 125 201 193 181 182 157 117 169 155 176 168 159 159 133 163 160 165 167 162 178 168 65 140 175 167 150
187 199 192 188 188 195 189 193 154 187 182 182 190 157 184 172 186 121 190 196 170 202 190 142 150 199 195 181 181 175 150 171 139 151 174 167 167 170 152 163 172 145 174 148 177 178 184 193 198
169 207 199 186 185 190 186 188 180 185 183 169 186 182 179 180 170 187 174 157 191 192 189 192 194 200 192 188 190 173 191 179 159 135 169 176 143 169 142 156 178 155 194 182 203 173 162 194 206
148 101 190 184 175 184 186 191 178 176 192 183 218 192 170 178 89 154 191 185 174 188 178 187 191 193 192 194 196 197 193 193 191 195 199 141 145 168 199 144 179 194 195 184 191 185 186 179 194
167 181 182 182 180 186 186 182 195 188 182 195 201 103 163 171 181 157 161 181 184 184 149 190 192 187 187 184 185 185 184 187 185 185 192 188 190 199 187 173 191 183 213 186 168 175 181 199 183
185 164 178 177 181 178 187 184 177 138 161 191 187 96 159 179 173 176 180 160 162 176 186 187 186 192 191 184 183 188 190 191 192 191 184 186 190 157 197 195 205 158 187 182 189 184 190 196 141
179 183 156 184 166 169 175 184 174 184 177 196 181 184 169 155 170 180 171 179 176 164 177 171 194 190 187 180 177 190 188 188 180 186 184 176 194 193 213 139 134 182 184 208 208 184 144 141 217
184 188 177 166 184 174 173 186 169 168 183 188 94 148 173 164 182 171 168 163 161 166 180 181 172 169 173 173 190 176 180 172 180 174 182 194 207 180 103 220 210 220 206 133 168 212 127 196 140

GFSSGP_2pvu_pres_021.txt.gz
Presure
107 82 82 116 89 92 91 96 92 89 131 93 93 87 92 86 91 145 80 148 141 148 135 151 151 146 143 140 148 147 148 150 105 100 125 155 149 149 156 163 150 153 112 160 152 153 171 166 168
118 96 94 87 90 90 89 118 134 88 89 96 122 114 140 121 91 90 86 99 123 144 148 148 147 145 147 149 111 137 147 147 133 110 114 135 113 109 132 137 156 167 166 156 166 196 172 191 187
119 120 110 93 94 90 90 119 89 105 95 85 88 123 124 130 138 98 141 94 128 106 143 139 141 151 148 156 147 149 151 146 117 147 143 146 151 120 159 163 116 128 138 167 172 148 216 190 208
123 87 137 118 97 97 138 98 179 151 93 86 90 109 139 97 146 149 149 141 103 141 145 157 140 153 144 155 139 151 144 159 144 147 148 158 153 159 165 120 144 159 169 240 232 124 144 107 209
111 87 109 183 175 121 170 170 100 126 84 82 82 96 116 142 125 132 163 119 140 131 146 150 143 141 155 161 139 154 130 94 110 95 97 119 157 178 162 156 163 174 243 179 218 224 203 197 103
89 93 88 127 175 153 169 138 110 94 83 115 90 124 87 109 164 116 126 152 144 144 148 141 129 158 125 122 131 150 133 161 153 167 160 160 169 177 158 154 170 253 245 157 204 208 212 107 169
94 93 94 92 178 110 108 175 197 91 81 93 117 109 103 112 122 150 99 167 132 143 170 155 162 155 150 182 86 107 97 97 136 179 148 155 183 167 175 172 194 243 129 218 219 201 195 178 194
83 87 93 97 89 165 186 92 93 89 189 116 178 125 112 94 109 108 123 109 101 103 153 180 157 131 194 101 95 109 157 153 184 234 186 212 174 169 179 173 252 232 219 220 219 136 114 127 195
189 107 89 101 97 98 124 84 174 116 103 169 90 92 98 90 94 95 96 120 130 141 137 145 136 182 152 151 137 123 155 130 165 187 154 187 168 102 167 260 253 240 216 213 181 188 168 125 190
146 196 127 85 94 96 115 131 99 102 115 115 95 102 101 89 120 90 89 177 181 93 164 188 144 175 197 202 153 198 102 102 166 176 227 185 189 127 109 149 243 235 219 206 208 200 174 188 203
170 173 178 121 103 95 96 106 193 172 115 81 111 79 90 86 95 82 85 171 102 161 128 195 189 191 161 204 203 151 136 111 182 221 190 195 176 122 110 173 236 234 208 202 198 204 188 99 170
71 170 184 141 171 110 117 99 111 109 84 105 90 94 89 79 90 78 80 98 161 197 187 185 183 182 232 230 204 250 251 236 224 177 201 178 169 169 234 252 229 233 155 210 211 211 207 203 173
85 138 189 117 100 117 129 94 102 108 184 94 106 82 90 88 187 80 83 85 91 188 191 195 194 226 217 245 134 221 162 222 191 187 187 182 175 169 230 246 249 237 238 152 220 202 201 207 203
196 101 156 203 181 101 212 88 99 104 149 110 186 87 92 87 154 123 86 87 95 157 175 224 216 227 244 208 234 217 213 184 184 144 169 177 175 162 155 219 252 187 225 226 230 219 215 222 218
195 111 85 160 97 180 203 123 100 103 214 203 116 83 88 113 94 151 87 103 107 103 223 204 150 214 196 182 218 212 206 198 191 192 168 182 172 206 156 216 163 163 236 102 102 109 192 152 138
197 199 124 108 108 178 98 168 80 105 98 118 103 108 91 162 90 137 96 91 116 221 189 78 208 99 242 113 130 203 202 191 189 188 161 182 153 177 174 171 171 157 101 100 90 193 220 164 162
202 197 129 183 152 86 129 90 143 192 120 83 88 104 102 135 105 86 90 96 101 95 216 206 190 227 175 126 160 175 191 192 192 177 168 175 179 167 174 172 128 135 99 97 95 156 159 162 164
217 192 191 166 109 155 83 89 177 86 86 90 90 89 102 121 100 101 90 100 94 101 156 158 204 142 197 121 203 131 189 155 188 183 171 167 186 177 144 118 103 144 105 93 152 167 145 147 160
199 196 192 181 184 77 187 106 83 174 91 91 85 89 150 172 84 91 84 204 122 142 99 230 143 221 126 204 198 189 141 186 146 176 183 172 114 106 124 179 134 104 130 178 180 156 179 166 179
231 92 188 190 184 182 192 157 107 109 197 87 122 122 180 93 97 105 101 92 191 189 174 223 217 219 208 155 177 124 188 97 142 131 120 175 172 169 167 164 172 169 173 172 172 145 158 175 169
232 198 191 184 179 186 189 205 202 150 199 197 202 202 199 198 107 121 191 189 188 91 192 89 197 184 215 109 197 116 108 141 119 162 149 130 177 165 171 164 165 160 138 152 166 169 144 158 171
214 87 181 176 178 188 188 208 205 198 197 178 177 194 196 167 189 189 177 196 178 195 196 176 201 178 185 188 211 142 184 189 182 186 179 125 134 170 172 136 173 165 160 152 152 132 156 132 162
209 199 187 184 177 185 193 214 206 195 203 176 197 192 164 190 190 172 196 181 198 184 179 196 193 216 208 105 119 123 203 205 191 182 182 188 173 151 177 176 122 169 165 173 173 173 174 146 154
207 203 196 189 177 184 195 206 208 195 194 199 195 196 188 187 189 194 189 154 178 182 173 161 177 200 199 169 129 203 209 205 198 198 183 187 183 172 178 177 178 144 167 196 197 150 133 193 165
209 203 196 183 175 180 202 215 203 196 191 195 192 187 181 187 179 172 177 184 182 172 186 190 181 187 109 167 190 194 193 195 201 199 198 153 194 194 194 198 192 187 188 159 135 168 191 185 204
117 197 183 173 172 196 200 201 212 193 193 188 188 186 167 185 178 101 173 100 171 181 168 181 169 181 192 188 190 192 192 192 188 188 186 186 187 192 195 197 200 196 193 193 191 181 200 229 227
199 184 171 172 171 197 206 202 190 188 189 186 182 186 181 181 205 177 174 182 174 169 163 186 180 158 169 183 189 186 186 187 191 192 192 191 182 190 192 192 190 182 210 180 199 213 218 172 230
199 175 152 170 190 196 202 192 197 186 185 184 181 185 183 195 187 173 190 172 140 169 172 168 178 170 182 167 178 190 188 174 183 185 176 178 189 188 167 153 166 181 189 183 97 230 224 214 191
87 81 172 169 192 193 197 198 189 188 188 186 179 118 156 177 182 169 195 95 149 177 164 167 174 168 173 173 166 168 176 178 177 170 174 169 136 163 191 192 168 204 235 232 222 178 222 214 220
185 164 180 180 172 192 89 189 181 180 185 177 179 171 175 186 107 90 194 195 173 185 184 195 202 180 174 177 174 188 171 183 187 128 142 193 194 181 144 208 222 235 237 217 220 216 219 227 242

GFSSGP_2pvu_pres_024.txt.gz
Presure
108 92 161 103 79 95 94 92 94 95 89 86 94 88 94 89 89 134 103 94 103 141 93 156 147 101 139 153 150 145 146 148 150 147 151 153 119 151 158 147 113 103 113 161 169 158 169 168 140
115 179 94 86 82 99 93 91 97 94 91 118 94 101 87 102 119 132 108 89 93 100 138 186 139 145 149 151 150 146 120 149 156 147 141 140 104 119 150 127 146 158 159 165 120 164 147 130 144
133 157 110 89 111 85 88 95 108 92 89 89 96 82 144 105 96 143 125 154 120 125 142 120 125 135 140 142 141 125 149 148 128 150 151 149 159 155 143 149 149 145 159 145 146 165 130 165 163
145 119 188 114 112 92 93 80 96 88 94 97 88 79 94 106 154 91 139 105 129 141 161 142 147 141 145 139 131 138 144 143 148 111 95 94 97 144 150 152 160 172 166 180 158 162 173 173 243
83 229 182 106 112 94 94 93 122 90 90 92 88 89 94 102 103 118 128 138 152 157 129 127 133 157 131 126 89 118 132 153 155 114 106 157 145 153 169 181 158 159 186 163 168 171 171 245 125
206 87 202 206 109 115 138 98 100 103 99 95 87 89 92 84 118 136 126 109 139 175 135 132 172 146 146 126 150 146 158 159 121 116 97 140 164 173 149 175 171 185 163 171 177 176 252 241 221
103 189 89 133 88 110 146 152 179 106 148 89 85 94 119 141 136 144 134 107 152 133 132 110 168 143 140 164 152 123 181 88 131 186 133 184 177 151 142 182 179 198 168 181 164 250 232 240 210
187 197 93 93 187 88 97 175 180 140 144 89 82 84 103 121 179 114 123 101 82 133 103 107 144 153 152 194 169 126 149 171 96 95 103 223 137 240 146 173 103 153 170 167 223 243 236 219 213
191 168 148 99 96 101 88 190 99 161 83 91 85 85 116 165 112 106 98 122 148 100 135 144 195 100 124 153 188 179 136 173 152 141 154 112 242 225 235 159 120 108 111 157 234 242 217 216 166
205 94 145 140 93 105 153 101 132 130 97 89 144 95 180 194 94 89 95 93 90 101 94 133 182 181 127 184 177 139 192 192 204 237 198 111 174 229 234 216 188 148 150 165 179 234 213 225 205
198 185 131 174 93 87 94 102 188 89 94 111 106 96 93 92 99 87 96 78 88 95 86 109 183 204 183 170 197 184 192 201 217 160 240 225 239 229 216 193 182 173 167 229 247 243 164 162 202
199 94 89 121 188 109 92 97 95 101 125 98 104 108 84 91 86 90 88 82 83 92 88 110 159 196 129 166 194 192 226 214 226 243 229 236 224 205 196 184 171 166 177 246 242 243 218 209 213
235 139 190 191 165 189 110 106 97 110 94 104 114 197 174 98 85 90 87 91 82 84 100 92 92 193 175 198 187 220 227 240 246 143 219 213 197 178 158 183 169 167 169 262 246 243 221 214 98
244 108 201 107 84 141 132 108 107 160 85 97 112 98 114 89 77 92 78 90 111 117 90 91 166 146 116 148 222 221 108 242 241 218 208 202 193 191 157 171 175 178 172 162 164 168 219 99 101
223 242 150 96 89 104 183 176 104 107 106 150 101 105 106 111 78 92 94 89 176 140 92 102 97 87 173 190 209 134 248 245 142 211 207 202 198 168 176 167 179 154 172 178 170 173 102 102 97
224 237 239 205 116 97 182 167 185 181 112 120 95 102 106 113 180 140 107 98 110 97 98 88 96 171 168 135 214 210 235 130 200 207 205 201 196 199 183 171 177 175 170 132 124 130 164 161 91
269 211 240 208 157 102 188 105 188 101 103 199 91 101 107 148 147 155 108 97 95 109 100 132 89 105 171 211 203 189 177 213 158 193 201 172 189 193 185 168 171 189 121 111 133 157 125 156 165
249 192 221 242 202 196 156 162 189 177 120 101 113 92 150 87 95 104 106 89 114 172 94 88 103 206 109 109 239 143 151 207 206 175 191 185 178 195 145 160 110 108 176 186 183 175 158 163 163
278 235 227 237 211 200 154 89 188 186 130 187 182 89 139 88 91 93 90 97 176 92 102 177 104 209 181 111 136 224 137 211 172 175 118 144 96 104 109 110 169 186 169 168 176 169 177 170 167
306 303 235 235 241 207 192 116 101 104 80 85 82 89 202 97 88 94 96 86 98 143 97 104 101 198 192 97 223 115 184 219 211 196 143 183 172 181 175 148 129 153 135 177 180 142 167 159 156
389 328 326 224 235 213 193 186 184 135 99 113 82 145 120 196 95 95 95 97 153 115 95 100 108 174 202 144 204 180 220 200 206 205 199 94 132 189 185 178 177 188 194 169 159 177 161 171 141
347 330 313 213 243 220 191 182 192 177 138 180 186 206 201 90 199 115 88 197 196 198 184 194 185 187 181 198 208 186 209 209 205 200 197 107 196 205 204 193 194 187 182 181 186 174 185 189 186
436 73 218 217 243 215 196 186 191 188 185 183 106 203 200 196 189 198 192 190 177 202 192 195 183 163 181 189 191 183 199 201 199 207 115 146 200 199 198 199 201 195 186 201 199 195 194 207 198
406 305 301 186 238 220 196 180 186 184 185 191 204 205 200 191 198 188 190 180 174 189 198 182 185 182 172 118 198 193 157 134 189 189 145 194 193 193 193 190 192 193 189 185 187 193 198 201 201
290 267 209 233 236 214 194 183 198 182 184 184 207 204 197 196 188 191 187 189 190 181 191 178 161 178 181 173 183 105 187 179 169 173 189 178 141 183 184 193 194 195 199 185 185 189 188 189 181
275 266 235 236 235 206 187 183 193 177 191 198 210 198 199 202 190 191 186 187 186 178 190 174 175 176 180 168 175 176 182 184 178 179 169 170 168 177 178 180 176 172 173 174 177 171 174 155 182
267 252 217 241 216 197 175 185 179 179 191 200 202 200 194 194 198 185 182 186 185 177 192 180 170 138 186 176 164 165 179 171 172 166 164 176 182 171 182 190 180 189 198 201 199 144 200 210 234
259 217 241 228 207 183 184 183 177 186 198 201 202 197 190 195 190 191 186 184 181 160 183 181 181 156 175 179 173 172 173 171 183 187 183 181 177 197 181 193 195 172 164 202 198 178 213 235 242
200 210 233 215 200 188 188 185 172 194 202 200 199 199 197 189 184 190 182 183 169 169 184 179 182 183 181 171 176 175 188 183 203 171 179 176 181 191 201 192 188 196 187 191 196 221 226 239 217
197 242 222 212 198 192 183 167 188 207 198 203 200 191 188 186 182 186 181 163 169 179 177 179 189 170 186 177 179 170 182 171 171 174 197 204 187 197 211 163 144 194 202 208 213 239 241 187 225

GFSSGP_2pvu_pres_027.txt.gz
Presure
127 166 91 83 95 115 90 162 100 93 141 102 91 102 118 101 96 116 94 96 127 108 151 95 146 150 143 144 151 153 143 148 124 151 147 144 151 146 149 143 148 152 148 122 133 144 161 159 132
124 169 149 130 84 156 122 89 125 85 146 88 89 96 91 99 88 92 90 93 83 93 88 115 145 155 124 156 139 145 147 148 151 151 112 148 96 149 150 147 147 141 155 148 150 151 156 157 138
235 189 160 108 165 162 83 84 184 100 87 95 89 96 137 93 117 90 156 119 161 145 96 100 99 177 120 145 155 147 137 133 142 150 151 140 147 156 134 111 154 160 147 167 151 157 159 163 180
107 227 172 134 170 112 90 87 82 96 90 91 88 98 81 102 88 160 119 130 148 162 167 175 136 143 144 174 140 144 140 133 136 138 140 147 92 158 159 197 147 158 196 142 154 175 153 164 187
213 102 226 188 96 95 139 119 91 85 122 89 93 121 96 93 90 89 152 105 120 153 129 149 154 162 123 182 140 113 161 106 131 120 134 153 159 131 153 150 142 168 202 143 104 180 163 193 173
197 156 90 206 154 97 128 92 94 106 95 93 92 96 86 92 95 105 170 158 143 140 140 127 148 165 178 143 141 145 148 159 145 97 89 163 160 153 161 136 152 175 215 169 232 171 208 187 170
191 205 199 101 209 252 197 98 95 91 134 89 90 92 93 95 82 104 128 151 108 107 151 124 155 184 101 166 180 169 136 142 164 134 148 112 185 114 125 137 198 141 162 133 96 156 195 169 178
224 172 92 195 190 203 202 185 115 93 92 90 96 92 148 89 99 108 117 118 147 101 105 141 91 121 153 154 123 170 166 189 145 111 141 188 153 104 104 247 259 140 247 105 208 108 118 177 168
160 178 179 104 197 87 196 157 115 129 108 118 90 89 89 88 95 136 173 167 101 104 102 107 123 102 151 132 139 165 138 156 202 186 164 156 192 193 205 111 232 232 233 221 229 211 173 138 170
246 105 117 152 108 178 95 96 217 117 114 214 182 114 136 91 98 115 125 105 97 91 88 99 88 131 106 184 167 193 177 185 192 207 157 190 204 216 226 250 239 234 232 224 179 175 177 167 210
250 241 129 171 187 205 150 97 83 210 111 136 99 111 111 82 173 117 166 89 96 84 85 95 89 138 106 158 179 178 144 180 205 195 187 183 236 242 255 236 226 216 210 190 188 169 167 166 230
236 247 240 131 181 104 195 131 98 153 158 105 186 89 91 93 100 118 184 91 89 77 85 85 91 90 96 173 101 133 195 195 191 178 202 226 233 255 222 169 213 201 186 188 182 173 164 171 194
248 232 244 87 210 119 196 99 91 96 100 122 106 106 166 93 113 168 87 93 87 80 85 87 163 111 95 97 98 130 180 185 188 187 215 218 254 180 222 214 204 183 193 173 167 177 172 157 207
240 245 225 241 201 213 115 165 147 104 97 114 88 87 80 123 113 134 108 87 92 92 86 92 177 120 97 96 97 96 177 152 187 157 218 254 234 219 153 174 200 194 195 168 170 179 174 166 169
273 235 244 222 246 212 177 178 103 150 133 81 78 97 101 114 103 151 185 117 87 95 88 93 176 94 85 103 90 96 104 175 188 222 207 228 220 126 203 205 202 196 192 183 174 167 179 163 131
260 264 263 217 227 250 143 184 165 114 144 130 107 109 103 105 108 78 147 95 98 108 85 99 94 102 85 100 133 96 107 120 178 207 235 121 173 180 204 152 157 190 189 144 168 162 168 120 122
248 252 261 266 211 236 135 193 137 84 180 149 148 109 121 114 102 105 111 180 104 193 147 109 98 99 122 103 130 100 106 157 129 98 226 189 150 150 95 96 96 140 119 147 152 110 110 149 150
243 247 250 261 256 222 252 190 107 196 109 91 185 102 120 113 105 103 110 111 117 185 183 101 87 90 174 197 142 98 105 127 210 105 132 144 120 205 179 95 166 151 124 161 164 167 178 178 160
248 254 255 256 261 237 240 237 202 184 191 179 180 178 100 185 119 109 110 106 98 148 189 100 85 94 99 197 99 99 103 203 225 135 215 88 149 207 202 200 107 176 182 178 172 177 187 187 187
249 253 254 256 139 242 124 242 131 125 99 79 179 171 135 96 92 195 97 106 104 95 90 95 98 100 95 190 122 180 154 106 209 201 209 216 198 205 207 206 203 111 124 133 201 204 196 199 196
251 254 252 260 263 275 230 242 219 201 123 136 86 189 161 90 85 175 201 209 91 93 121 93 201 163 202 166 204 175 144 194 205 195 203 208 211 203 196 202 175 196 121 205 203 201 201 203 203
306 295 291 295 292 83 151 224 232 203 131 95 69 189 76 148 86 86 83 81 192 100 119 104 95 163 200 193 194 138 183 180 167 193 197 182 183 116 186 190 191 149 182 194 194 198 197 199 200
301 288 289 311 292 292 301 210 233 213 194 183 111 177 177 171 167 97 203 111 192 201 206 195 197 189 194 198 187 189 185 191 177 183 176 171 181 166 182 178 178 180 183 180 182 178 173 173 172
307 308 320 325 168 318 290 110 230 222 196 179 184 179 135 107 110 143 109 141 176 165 198 196 187 187 190 192 184 187 183 182 175 183 175 182 149 181 175 179 170 179 183 182 172 178 192 189 176
328 321 234 331 339 398 296 227 229 201 197 184 189 186 188 189 179 188 202 159 194 179 197 191 185 191 185 191 182 182 177 182 176 172 174 162 181 170 168 184 184 180 190 177 179 177 179 190 195
398 360 362 373 404 243 285 225 237 226 207 186 181 182 183 178 185 206 198 196 193 196 191 189 191 182 186 193 190 125 184 177 180 177 178 174 178 170 179 188 181 184 178 185 177 191 191 199 195
397 431 374 323 278 106 275 219 239 227 207 186 185 186 184 186 192 205 198 98 197 194 195 184 183 190 171 189 196 186 177 180 190 184 181 181 173 182 186 176 194 170 188 182 209 193 212 216 152
394 348 236 275 260 276 225 215 225 218 192 184 177 178 183 181 201 203 198 192 195 195 192 185 185 186 183 173 151 191 187 184 171 186 174 176 180 185 188 175 184 184 174 195 211 205 215 151 167
264 258 261 228 200 262 215 213 232 216 190 182 186 179 185 196 206 202 193 194 202 191 151 188 188 180 180 181 176 178 190 180 190 168 180 173 188 173 194 194 195 195 182 215 238 147 190 210 216
248 259 249 186 171 230 216 227 224 208 182 181 183 180 189 196 201 198 196 196 196 186 189 85 176 180 173 184 122 181 173 190 181 170 174 174 189 177 179 187 202 202 229 243 144 206 214 244 250

GFSSGP_2pvu_pres_033.txt.gz
Presure
136 154 160 81 132 131 152 93 95 119 126 154 129 127 155 114 134 138 119 141 149 144 134 143 148 155 169 122 137 148 141 135 154 146 141 140 149 145 147 97 120 152 153 149 150 145 147 152 149
170 125 146 156 81 134 116 150 131 110 95 135 92 129 128 117 146 143 120 88 92 116 114 112 124 145 151 146 127 168 133 160 161 134 135 141 139 138 142 140 142 122 146 145 141 149 150 141 149
164 179 127 188 156 81 144 100 90 96 144 98 156 148 100 98 100 91 89 91 94 97 99 92 95 145 110 128 150 134 143 137 141 147 165 138 145 144 90 138 142 139 138 106 146 151 152 161 167
175 228 226 231 188 86 153 126 152 151 138 84 137 117 101 110 144 95 86 88 132 136 124 140 145 136 101 125 158 154 163 108 137 165 165 138 138 136 136 136 144 138 153 151 142 151 156 163 146
78 208 85 201 210 231 90 197 84 132 105 148 118 91 113 93 112 95 102 94 137 102 110 120 138 127 135 148 139 139 166 119 163 158 129 131 132 150 134 140 147 150 149 161 163 146 175 163 131
197 189 187 89 195 209 224 111 157 88 161 161 146 88 110 155 93 156 87 96 103 123 136 127 137 135 133 150 138 138 168 132 139 142 153 175 163 144 189 186 135 160 168 103 125 189 165 150 183
201 197 201 192 96 190 203 144 216 91 235 89 114 132 111 119 91 88 88 93 93 133 140 139 140 102 143 136 147 123 131 130 151 143 175 160 165 175 137 138 156 165 173 164 174 203 125 198 179
218 199 195 116 195 195 196 199 209 220 211 89 90 94 94 96 95 92 96 97 89 103 136 97 133 138 141 88 105 121 124 171 117 149 107 107 148 148 153 164 155 153 189 126 164 202 190 212 260
196 185 207 209 89 164 165 167 198 186 167 109 93 105 139 168 92 106 97 85 123 100 106 142 107 122 102 86 103 92 97 163 140 141 130 127 123 123 163 172 170 176 202 193 202 186 217 256 249
139 205 207 207 189 161 199 207 135 197 173 85 99 178 93 193 135 135 122 136 89 105 139 179 167 95 100 88 93 88 94 94 104 96 135 101 120 138 171 178 178 198 192 191 188 199 251 252 238
216 96 87 228 223 209 193 199 183 118 195 197 86 93 110 115 104 133 88 90 90 96 107 116 100 90 92 92 89 89 84 91 95 77 85 102 102 158 167 128 199 195 184 187 182 207 249 239 226
204 202 215 98 207 222 232 142 186 174 100 193 186 90 89 94 100 108 81 92 100 100 102 110 164 87 84 88 91 90 86 123 96 92 94 87 100 159 188 128 182 183 185 150 182 200 237 159 219
208 197 210 217 147 99 101 199 243 134 97 89 192 175 92 95 95 93 95 98 92 90 100 189 179 114 81 84 89 89 94 90 113 150 80 95 91 97 104 176 131 182 165 129 203 242 229 222 217
221 191 210 212 213 163 98 102 206 240 147 143 133 194 198 134 211 159 99 87 176 133 87 94 168 117 87 92 89 93 173 83 94 159 80 94 92 100 97 97 124 158 203 168 133 197 228 220 211
220 218 207 207 204 228 243 316 319 236 241 90 93 124 190 197 192 201 124 126 82 89 93 128 130 103 93 94 92 91 90 97 93 87 96 91 103 95 93 100 102 111 197 201 234 209 220 139 137
222 216 204 198 209 217 233 276 285 294 242 242 243 87 169 181 180 199 131 207 112 89 77 203 106 114 116 170 88 152 104 81 172 151 99 96 105 162 90 170 111 125 124 229 184 221 210 164 197
217 228 212 200 203 218 155 230 281 265 278 247 236 219 158 86 138 109 104 112 155 117 155 217 105 108 117 123 102 122 106 109 168 88 103 91 94 101 138 180 196 195 195 207 222 220 218 213 212
222 227 231 213 209 205 227 191 234 92 295 245 242 157 224 178 146 116 125 103 119 147 118 192 217 146 122 100 107 107 183 93 123 141 101 97 93 175 109 193 202 189 157 215 205 208 200 198 194
219 211 225 205 221 214 228 222 232 270 290 284 241 235 242 204 87 183 120 103 91 89 94 97 113 108 110 108 111 110 111 80 94 104 110 118 99 118 186 201 199 198 193 199 194 186 185 191 184
226 224 216 225 199 206 221 223 234 259 265 290 137 235 237 253 135 187 115 110 120 116 77 98 98 88 104 104 94 98 87 104 96 88 195 110 187 184 199 198 208 184 188 193 191 192 185 197 180
225 230 218 228 223 219 219 219 228 261 261 261 276 135 199 243 205 199 146 146 190 150 116 180 111 107 95 107 95 118 88 110 98 101 195 195 102 202 193 201 199 190 193 174 185 180 180 180 179
233 230 228 235 218 217 219 211 235 251 259 253 260 248 201 222 245 201 193 184 166 194 161 154 115 118 185 75 96 88 90 194 170 179 188 183 207 191 201 199 186 190 182 186 178 178 185 178 165
230 224 235 237 217 217 226 246 240 266 254 245 248 256 233 213 214 87 197 190 90 84 181 176 179 79 90 173 161 115 195 202 201 115 117 190 110 178 195 187 192 191 186 176 182 185 188 186 182
222 226 230 221 226 241 242 257 253 255 222 234 248 252 261 215 226 134 207 189 86 156 91 98 181 117 199 183 167 170 112 208 104 109 108 111 110 200 192 192 193 184 181 189 191 191 182 173 186
227 229 235 239 240 258 242 245 258 193 248 205 244 247 265 230 226 197 83 91 156 187 188 136 179 162 188 143 148 213 197 181 111 162 194 199 192 190 190 191 191 191 129 192 186 177 178 180 170
249 262 269 265 265 263 88 251 282 231 239 234 246 252 266 237 214 82 204 90 187 185 184 186 176 171 191 180 177 198 125 205 185 192 196 193 188 188 181 184 183 182 173 176 177 173 178 173 185
106 356 410 390 360 348 352 175 264 250 235 240 244 256 170 235 216 229 224 207 185 183 189 180 178 178 189 179 195 203 200 195 195 199 195 186 194 191 187 190 185 172 175 167 177 174 186 198 194
339 333 241 413 373 344 238 367 321 76 211 242 180 181 259 237 214 228 229 211 183 183 182 179 188 183 186 184 181 202 197 194 198 194 195 193 169 190 188 182 183 184 183 176 181 188 185 182 205
362 359 339 313 387 368 350 356 319 187 149 283 271 268 240 237 215 201 194 207 190 183 182 186 181 186 185 183 205 200 196 193 190 194 201 194 196 182 181 184 183 183 182 184 181 186 199 202 214
277 351 367 354 354 405 373 318 72 296 293 295 294 298 277 234 216 230 226 206 194 183 189 180 175 187 186 192 123 198 101 193 195 204 198 192 190 189 188 181 188 181 179 185 192 196 205 223 263

GFSSGP_2pvu_pres_036.txt.gz
Presure
147 163 157 141 165 153 150 152 150 101 130 134 120 132 117 125 92 131 130 117 134 138 132 138 129 135 148 153 160 140 128 148 141 145 143 132 133 144 135 142 146 147 148 147 137 144 152 158 153
151 147 160 151 143 144 130 150 125 164 136 112 121 160 118 141 139 120 124 107 152 123 139 134 137 150 133 138 145 126 152 167 141 155 128 149 152 174 143 142 129 144 151 140 147 143 142 145 149
156 136 164 161 145 83 158 172 131 123 116 111 131 94 129 150 155 132 126 96 98 98 131 127 93 113 109 135 121 146 135 121 156 134 124 138 126 152 156 156 140 143 147 147 156 149 129 163 144
149 165 137 100 172 163 84 151 104 162 95 103 95 141 118 152 130 108 121 88 94 90 102 143 97 90 137 95 136 94 149 132 114 154 156 164 125 159 166 169 139 136 141 139 144 147 149 136 154
169 196 183 158 134 168 166 86 183 100 129 95 129 92 130 132 157 108 115 88 93 106 104 122 142 134 136 137 120 118 140 131 151 145 130 150 160 163 155 129 132 143 156 129 137 147 115 110 154
156 140 215 178 214 200 199 130 159 155 209 143 94 106 97 129 134 96 97 88 90 114 101 121 109 116 135 118 130 140 130 142 150 141 144 136 157 153 134 150 144 160 178 177 160 155 161 144 125
218 217 210 202 196 209 214 216 185 201 242 197 118 166 148 222 93 99 122 85 92 95 129 122 116 141 125 160 139 115 135 136 141 119 141 130 132 126 130 165 124 169 165 161 173 149 157 152 193
204 215 208 197 205 181 151 214 206 207 81 129 105 224 101 217 89 111 105 163 96 86 102 91 131 141 145 153 136 92 140 142 99 128 136 134 158 139 167 119 144 122 141 145 160 149 197 169 198
190 190 186 182 195 198 208 205 198 191 194 94 191 103 167 216 90 100 123 96 94 90 93 103 95 103 110 156 87 103 91 95 88 132 93 115 107 77 134 129 107 167 172 149 154 180 181 202 192
145 182 186 214 208 202 198 207 205 207 149 189 185 84 193 91 95 97 95 87 90 87 92 124 147 156 128 134 103 115 89 89 94 90 90 82 93 166 103 95 141 155 164 174 162 173 197 184 187
199 185 177 182 208 220 221 109 182 179 195 195 202 195 156 98 90 99 121 95 105 97 89 97 104 139 149 107 85 89 91 84 108 106 128 141 89 91 104 96 139 123 168 94 185 189 185 140 184
172 173 201 122 84 210 209 221 224 81 225 203 194 200 194 191 90 144 92 126 177 99 159 91 99 184 184 129 95 87 90 91 85 93 103 125 145 85 94 89 100 97 100 90 99 168 181 157 182
204 210 211 205 133 163 219 109 216 225 225 199 194 198 108 132 152 159 219 92 88 86 93 94 96 101 109 85 81 85 93 90 89 87 88 120 143 93 90 94 93 124 94 113 134 105 106 163 179
181 194 218 221 206 105 135 196 159 205 212 212 85 214 194 202 150 92 91 89 81 93 185 98 92 95 117 111 88 82 88 94 91 90 95 85 81 86 89 101 100 106 92 167 146 175 183 156 203
183 211 192 213 218 230 232 184 207 126 214 211 224 261 258 111 196 186 97 96 91 102 76 89 86 90 94 192 122 87 85 100 91 85 104 104 166 130 103 90 90 98 100 175 181 181 171 188 200
185 201 215 224 214 229 236 221 216 223 203 99 244 260 264 258 140 204 202 117 122 85 86 104 109 104 96 119 106 165 120 95 90 98 175 112 137 104 116 88 91 99 89 189 128 189 190 202 195
208 222 204 217 231 216 237 91 150 218 218 98 99 100 271 254 261 207 191 163 182 186 205 203 126 80 88 94 214 159 200 112 94 121 106 121 112 95 100 95 116 102 90 174 133 190 198 199 169
211 211 226 233 221 230 217 238 182 219 214 204 231 228 302 301 224 210 197 97 196 186 143 179 106 155 121 99 133 236 106 117 124 123 112 81 103 89 102 94 126 184 187 194 195 194 201 188 194
216 225 220 236 233 220 229 220 235 225 207 202 212 238 281 293 238 238 245 91 84 192 182 110 103 126 200 118 116 185 222 210 102 104 84 96 98 88 89 105 189 186 201 139 144 202 192 191 198
217 217 222 231 232 221 232 237 230 234 224 220 201 219 266 282 289 146 170 241 95 98 165 175 145 104 97 96 92 96 114 106 101 90 94 109 109 120 105 172 157 201 190 103 199 192 194 194 188
221 229 235 245 236 237 230 224 236 229 228 215 206 219 228 269 285 266 230 236 219 177 115 100 179 116 93 95 97 136 95 104 94 112 86 88 104 100 197 203 199 144 110 122 192 196 195 189 180
237 245 249 250 248 246 247 251 234 223 219 196 190 217 200 232 280 259 234 230 232 204 159 96 132 173 164 190 173 139 107 84 116 101 84 188 192 107 103 127 159 111 111 191 195 197 184 192 194
243 244 258 260 256 252 245 253 219 229 216 220 202 215 211 102 260 270 151 82 233 223 204 198 192 103 183 198 174 77 82 105 117 84 123 184 108 105 201 197 108 117 188 196 198 198 187 189 186
265 292 291 285 269 273 255 255 264 218 229 221 207 209 210 243 249 263 257 229 193 233 208 200 156 192 79 109 185 176 162 182 184 118 94 188 200 203 203 105 186 194 195 195 189 193 189 193 170
285 276 277 279 276 289 281 273 210 212 210 225 200 204 222 249 250 247 259 232 225 236 207 210 153 196 190 173 86 85 180 142 189 138 181 179 206 196 186 204 193 192 197 192 188 194 187 153 188
249 247 243 251 256 216 187 131 303 160 166 218 216 165 225 244 123 240 254 237 223 151 80 199 200 144 108 187 184 185 178 179 177 191 180 182 190 191 202 192 193 195 196 186 194 186 188 188 187
355 353 349 357 347 346 297 260 74 190 105 223 223 222 147 82 237 105 249 252 226 218 233 208 89 96 184 184 187 189 187 176 172 187 180 181 202 199 193 194 200 194 200 197 194 196 186 191 186
286 294 130 230 375 358 363 375 455 206 132 229 147 186 186 238 225 206 246 255 232 217 205 146 215 198 188 182 184 183 180 174 175 183 181 177 200 195 194 193 108 200 201 196 195 188 189 197 188
274 285 317 161 254 107 350 355 398 402 357 152 217 127 222 237 241 241 240 251 234 219 215 224 218 202 191 186 183 188 173 185 179 181 188 198 198 201 200 200 203 207 196 191 190 188 191 182 190
260 270 302 322 326 386 348 395 376 353 229 88 91 233 234 234 238 239 189 250 233 222 217 223 221 205 192 187 190 178 187 180 177 188 184 201 202 202 201 198 199 192 190 182 196 182 181 193 193

GFSSGP_2pvu_pres_039.txt.gz
Presure
166 146 158 143 149 159 159 156 147 158 134 145 118 159 130 155 133 149 150 136 153 128 133 131 108 140 139 132 139 142 148 158 127 144 147 134 142 143 142 140 109 146 136 134 142 149 141 150 145
148 149 151 160 165 158 161 165 150 158 145 143 131 156 145 134 91 162 141 139 155 132 132 132 140 136 135 136 132 148 142 146 133 156 152 142 154 137 132 154 155 152 171 156 154 153 145 133 152
134 156 145 150 164 157 154 159 151 170 133 139 145 158 152 128 102 120 103 137 153 135 127 140 134 145 129 121 135 150 139 138 132 141 104 122 168 134 126 154 146 149 143 147 149 158 141 142 130
93 159 169 160 152 162 169 151 158 129 161 160 122 166 134 124 125 126 136 159 130 93 96 134 107 153 99 141 131 145 143 121 135 140 121 141 141 126 159 140 162 157 162 130 157 134 142 133 152
167 91 165 165 111 174 155 133 163 132 102 149 151 127 140 106 97 128 153 151 154 96 91 89 141 129 147 143 141 139 149 127 110 137 133 117 134 143 140 121 150 139 129 132 174 133 157 157 125
182 143 104 175 178 123 131 125 121 103 146 161 125 98 109 129 150 131 132 94 91 89 145 135 133 153 130 114 147 145 131 133 141 149 136 129 111 143 141 131 140 125 128 145 157 123 170 186 176
171 182 197 158 106 151 167 183 159 162 106 188 100 161 96 178 92 108 128 130 108 90 106 108 101 102 135 133 156 132 120 127 134 145 134 137 124 104 147 134 123 120 128 141 135 169 177 168 131
214 203 171 225 177 186 221 132 231 226 222 83 88 160 193 86 176 173 100 102 98 103 94 96 119 160 152 152 144 142 107 104 148 157 136 141 107 118 107 80 134 152 134 107 110 128 163 128 172
200 211 208 208 217 173 223 227 229 221 218 221 88 209 220 195 129 193 164 97 104 81 100 89 105 100 120 132 132 135 151 98 133 89 94 91 93 94 88 89 118 124 104 162 110 100 148 171 170
206 216 212 209 213 213 213 187 221 208 201 206 200 103 207 209 211 233 152 94 219 99 94 90 93 111 151 102 135 126 102 94 93 110 91 109 93 127 92 86 92 95 95 88 94 96 94 93 179
217 185 179 210 208 206 207 176 197 193 194 200 199 196 97 187 103 195 124 156 225 97 97 83 89 95 101 107 98 110 139 91 90 86 89 119 107 85 133 86 89 91 88 167 159 178 97 142 98
198 190 199 209 207 94 131 109 186 183 197 219 196 192 196 202 105 90 161 90 95 88 84 87 89 93 221 148 105 121 86 88 89 92 90 94 90 154 92 100 88 87 101 90 90 88 109 144 101
179 201 174 161 192 196 184 191 179 201 125 204 211 185 186 135 189 200 110 201 99 94 95 94 90 109 90 102 103 107 123 86 86 87 88 86 79 76 87 81 97 88 104 117 97 101 99 107 148
187 158 167 194 220 217 213 177 163 191 226 207 138 226 226 216 224 200 133 194 90 89 98 90 110 88 94 94 101 105 81 82 84 87 91 90 87 88 100 92 110 105 99 90 89 92 172 181 111
174 197 195 184 213 207 169 162 196 233 225 212 211 135 224 222 237 215 248 185 197 146 202 201 87 89 133 98 95 103 97 82 84 121 90 90 81 94 85 114 93 90 100 84 88 93 106 176 178
210 179 196 194 196 198 195 180 190 211 167 200 231 217 151 211 110 218 189 209 229 95 90 97 152 96 99 91 85 93 119 116 134 182 215 189 102 115 114 113 115 110 96 91 91 101 173 177 181
209 212 209 205 212 203 206 203 214 217 204 223 234 230 213 205 211 213 221 223 233 144 234 86 130 98 79 87 107 97 85 133 189 180 203 179 100 116 121 113 106 101 88 96 110 117 126 183 184
200 202 202 198 202 206 191 201 209 214 224 235 223 227 230 214 227 159 225 193 207 243 224 227 188 91 83 171 92 81 125 95 113 132 127 122 202 119 107 91 105 96 83 115 111 123 132 150 103
204 200 202 195 206 212 227 206 216 211 226 221 231 222 220 221 219 222 205 230 299 123 125 242 206 166 198 133 183 185 203 193 130 122 130 127 86 102 96 113 93 115 106 94 112 105 198 140 105
208 205 205 206 202 213 217 220 208 224 224 236 220 229 220 230 219 97 212 107 105 233 163 243 96 111 170 197 122 183 154 172 187 96 95 94 93 99 92 91 87 85 115 111 105 115 126 200 144
199 203 207 210 213 217 213 221 216 214 217 229 227 223 221 219 220 212 206 203 245 288 238 161 92 100 149 128 166 176 105 109 94 95 102 99 124 101 103 84 108 113 151 110 107 200 111 199 197
215 215 214 215 221 224 225 238 228 223 228 232 234 215 221 214 229 149 225 178 119 280 259 233 234 93 120 103 99 98 162 93 97 100 180 170 84 102 83 198 140 120 106 161 195 202 202 194 201
226 225 225 227 236 235 236 250 244 240 248 240 230 229 219 218 220 232 220 215 220 275 277 237 226 232 236 229 146 101 106 167 175 183 180 83 164 190 182 190 188 203 109 144 205 201 199 191 196
233 238 242 243 247 266 251 248 101 237 229 245 241 233 215 217 224 227 214 208 197 267 278 191 192 225 237 227 219 98 190 180 175 115 132 179 178 172 184 200 211 143 175 200 205 190 203 199 166
242 233 216 219 234 252 271 215 98 134 310 265 249 245 239 228 231 223 227 188 227 241 274 259 230 160 228 232 160 152 186 193 151 181 170 121 179 175 182 181 191 185 180 207 188 203 200 193 197
221 229 238 325 387 273 252 84 283 77 127 263 234 159 251 231 228 225 223 220 215 214 268 265 233 224 223 229 188 150 107 193 192 187 171 181 180 176 182 174 189 184 182 187 201 202 193 197 198
246 267 243 295 277 288 282 69 125 89 89 132 268 168 240 239 234 230 225 219 219 235 256 264 235 223 220 83 84 162 198 190 101 190 189 179 190 188 184 178 179 183 177 190 200 202 200 198 196
224 272 261 252 269 289 339 325 188 256 388 166 287 224 241 242 231 217 226 220 217 234 252 260 232 221 218 228 228 212 202 192 188 188 189 185 189 181 179 176 184 178 187 202 200 202 200 201 208
254 255 273 302 163 86 234 321 311 369 228 183 290 282 179 102 223 217 227 216 221 243 254 256 238 219 217 229 232 216 202 192 188 184 182 182 184 177 188 182 180 184 183 203 204 203 202 207 195
289 259 257 265 271 146 308 347 337 362 350 415 267 279 262 237 212 210 219 215 228 246 249 253 245 220 216 226 232 221 205 194 190 186 182 177 191 178 183 177 181 180 198 203 204 204 206 182 186

GFSSGP_2pvu_pres_042.txt.gz
Presure
168 157 121 116 109 149 154 160 130 138 117 164 122 152 130 124 122 141 139 132 142 151 136 140 142 126 137 127 112 134 118 109 144 148 152 150 127 126 144 148 141 108 144 127 141 149 151 134 135
111 130 159 159 158 102 163 140 156 161 159 119 144 168 159 134 144 126 134 153 160 155 126 135 136 143 105 121 141 138 140 124 138 150 149 146 151 127 139 122 158 127 126 143 143 166 179 155 151
132 151 140 155 150 158 152 166 141 154 151 159 147 158 125 132 151 122 131 135 147 137 156 138 142 115 136 132 138 139 138 132 135 142 144 136 141 142 133 134 146 122 126 144 165 158 151 131 141
151 158 155 100 160 152 147 138 145 147 171 177 168 121 157 143 131 131 137 130 148 159 162 167 134 136 139 89 139 100 136 98 138 146 147 140 139 140 146 113 140 135 143 137 138 154 145 130 163
146 148 115 159 155 150 152 155 156 170 167 182 156 116 154 132 164 142 169 131 142 131 140 125 126 121 128 99 101 107 146 132 131 138 146 129 140 140 126 123 124 142 143 119 134 139 136 116 156
146 153 135 147 130 149 151 157 159 168 153 137 173 170 168 145 160 141 127 154 125 143 118 120 88 159 134 136 151 137 151 123 143 148 129 144 134 137 133 127 140 144 148 142 127 116 118 138 181
155 160 148 148 167 177 159 161 167 166 166 165 175 150 107 166 156 135 107 106 120 138 108 89 144 105 135 123 130 140 156 143 148 148 122 130 141 136 141 135 119 152 145 149 127 130 149 138 131
146 162 209 172 93 143 167 165 164 184 184 121 87 134 168 131 94 160 142 101 123 96 144 142 142 165 140 150 126 142 125 147 139 105 144 135 149 137 150 146 94 113 98 139 133 109 97 158 126
200 155 149 162 183 108 60 188 218 202 148 171 210 118 204 208 170 95 116 181 159 118 189 91 95 93 100 111 143 118 151 168 146 110 96 133 95 95 89 83 94 133 133 107 96 96 101 112 91
160 159 181 189 205 133 209 206 217 150 207 223 173 212 87 222 101 134 122 94 205 101 194 106 95 92 121 101 119 186 112 123 151 96 95 97 107 95 120 91 123 86 90 90 91 91 112 105 125
200 194 207 193 209 199 217 205 224 221 204 202 205 222 226 213 96 223 191 93 94 97 96 91 88 90 96 109 129 168 191 179 103 90 88 87 92 91 132 85 89 92 91 87 87 102 95 97 100
193 205 195 191 206 204 199 207 226 206 202 211 213 211 204 216 90 207 200 200 206 121 210 102 141 96 205 97 98 174 109 185 148 98 91 93 91 91 90 89 86 95 83 110 93 94 99 86 87
172 186 197 214 216 197 206 225 198 183 213 207 206 186 190 195 190 178 191 207 123 203 104 107 130 96 91 100 95 102 103 113 109 90 86 93 89 87 79 81 89 93 92 89 114 102 87 89 88
191 217 216 225 224 217 201 208 197 211 217 200 177 180 185 193 192 195 210 96 94 163 155 197 139 97 91 95 95 95 103 115 103 105 84 92 90 91 90 86 84 86 86 110 102 92 97 121 90
227 217 220 217 213 207 192 194 66 188 190 172 166 178 173 89 189 201 192 189 107 100 161 93 101 97 97 92 96 93 106 95 101 101 89 87 84 87 189 83 79 93 107 108 114 115 128 93 91
211 210 215 217 213 211 203 197 162 221 217 221 216 205 178 186 220 198 206 196 198 217 191 97 98 155 96 100 90 90 95 98 92 103 88 83 149 197 198 200 187 135 134 156 111 109 86 84 84
203 204 212 209 210 215 201 194 188 217 191 182 176 185 186 198 214 222 208 155 211 215 226 237 172 240 228 127 90 97 195 95 95 91 102 95 114 168 230 234 213 84 113 113 89 101 91 86 111
185 177 203 217 208 212 215 211 195 184 217 203 205 209 214 194 189 191 227 134 218 196 207 190 161 239 104 88 88 99 84 89 92 129 104 152 121 111 147 126 122 125 104 130 85 113 108 99 110
181 196 199 188 198 209 213 211 205 205 186 189 197 206 190 98 196 226 231 224 234 214 204 214 225 222 249 251 216 245 194 90 98 84 90 177 195 140 102 123 128 90 213 105 96 84 113 91 106
209 213 220 186 208 204 210 208 210 206 206 211 213 208 190 188 192 212 227 231 230 226 212 202 219 218 237 247 216 205 83 200 200 195 187 88 185 176 196 101 186 91 100 107 84 92 90 100 143
219 224 224 201 215 209 208 211 210 206 200 205 207 209 220 209 192 221 232 176 230 224 222 202 224 217 158 260 246 212 237 227 175 198 196 153 118 115 187 109 105 108 84 153 91 121 163 204 201
225 228 236 238 235 223 207 222 213 206 200 201 204 208 210 215 225 220 222 238 229 226 207 224 225 217 232 251 261 88 115 145 235 124 128 191 95 89 98 103 104 174 89 115 193 182 189 185 185
233 238 240 240 239 233 227 237 196 196 193 204 204 207 213 218 221 229 215 231 238 236 220 111 103 209 113 108 268 93 124 247 111 96 199 166 100 98 175 179 127 182 96 167 175 197 210 191 184
240 239 228 225 227 237 233 236 75 162 224 226 231 232 239 237 230 234 233 231 222 232 152 227 231 218 130 286 271 252 238 241 247 224 184 209 103 159 127 132 179 134 180 180 181 201 177 186 189
231 221 149 224 229 235 240 246 244 84 129 176 267 263 259 265 257 251 243 241 245 229 229 215 233 227 218 244 268 254 238 230 243 232 229 97 98 146 189 180 173 170 187 185 178 180 180 173 186
227 229 232 237 239 236 239 166 77 230 163 193 227 236 231 235 245 247 256 253 250 237 225 220 231 98 104 204 266 252 238 227 82 232 223 217 201 195 195 192 187 188 172 182 188 174 187 173 186
234 236 216 218 214 215 226 287 285 129 292 123 98 300 304 294 282 248 244 243 246 233 215 225 227 213 230 224 265 252 238 226 226 221 220 178 200 195 192 96 194 187 185 188 188 182 179 187 185
212 212 211 231 268 277 263 186 78 188 97 96 112 111 110 339 275 311 267 239 247 235 227 220 231 224 216 190 265 248 235 226 224 234 224 157 206 202 189 192 195 189 186 185 184 174 184 178 186
210 216 251 239 261 257 257 309 292 155 329 76 259 318 344 304 322 296 295 262 245 236 231 223 226 125 207 211 264 244 235 227 225 231 224 220 210 200 198 187 184 185 181 181 189 183 184 185 184
247 267 256 75 78 273 286 311 317 348 358 363 356 364 377 428 417 287 289 262 243 233 225 221 225 223 218 204 257 242 230 226 221 217 223 221 212 203 195 192 187 185 181 185 183 184 184 185 189

GFSSGP_2pvu_pres_045.txt.gz
Presure
143 162 141 150 131 120 115 139 145 145 151 150 142 121 154 132 149 137 139 129 156 132 132 131 146 137 134 135 135 134 135 133 137 141 140 149 138 146 157 136 131 148 150 148 137 144 128 142 157
133 146 152 131 152 161 136 127 163 160 128 129 143 140 132 123 133 137 130 141 151 143 142 134 138 140 135 133 128 119 98 137 102 108 140 142 139 148 146 140 146 151 142 151 144 132 130 140 149
80 84 161 136 162 160 168 115 118 134 136 150 158 160 163 125 120 126 154 151 136 115 155 136 160 138 131 144 136 113 132 133 142 135 141 140 139 140 145 144 138 136 128 131 148 127 125 137 140
159 134 125 164 105 152 164 157 165 103 146 137 160 146 157 161 132 142 125 168 131 137 148 132 137 134 164 137 134 142 149 138 139 140 139 140 138 128 146 141 127 141 148 131 138 138 144 140 134
160 158 135 99 93 165 155 139 153 152 101 164 116 159 155 138 150 146 166 130 169 148 156 136 141 157 143 138 158 134 153 95 101 141 142 141 135 144 147 145 137 144 117 127 132 141 145 137 131
158 168 166 122 137 132 149 160 157 157 151 153 158 145 141 148 156 158 144 169 114 149 118 128 137 122 136 94 87 133 115 138 152 134 137 148 146 144 125 133 143 141 143 130 126 145 142 151 149
160 160 140 155 158 167 143 133 164 139 166 161 143 166 147 161 170 142 164 138 132 136 140 150 101 123 145 152 162 145 142 117 149 108 150 151 127 143 147 150 115 129 152 148 126 106 137 103 96
162 166 153 161 141 168 154 154 152 150 153 155 150 150 175 133 175 159 155 165 140 179 141 135 96 156 85 96 105 124 145 141 112 132 152 153 130 153 149 147 107 91 82 112 117 97 128 100 95
165 173 138 145 165 159 152 151 153 163 145 165 152 134 155 173 165 154 126 188 168 156 160 108 140 106 147 149 162 137 96 156 131 123 123 145 128 103 126 97 88 86 94 111 94 90 93 97 93
168 168 170 163 168 152 166 161 157 159 155 174 201 204 171 139 173 186 124 207 147 127 122 116 123 93 137 138 114 144 166 107 116 177 136 115 97 123 95 96 95 86 141 139 86 89 90 109 102
181 152 166 159 154 160 157 141 163 164 160 166 147 176 187 208 213 219 212 219 99 95 191 153 105 101 106 117 144 107 104 114 145 164 156 167 99 100 99 93 89 89 97 96 83 85 93 102 97
159 177 165 183 167 175 169 173 169 161 120 168 173 215 218 195 203 226 100 176 142 199 105 220 181 153 113 101 102 104 107 109 196 156 143 106 93 95 91 91 91 89 83 89 91 96 95 92 131
189 197 181 201 166 176 189 189 161 81 180 194 194 214 207 218 215 216 203 151 202 223 225 94 101 157 158 95 137 99 112 123 177 130 166 118 161 89 97 97 83 87 88 88 84 90 90 173 106
202 194 191 204 192 200 192 194 156 189 206 204 229 225 192 219 199 218 217 221 213 205 205 205 96 129 100 106 98 160 101 99 104 104 191 207 167 88 96 95 90 90 87 80 88 86 99 108 110
189 205 183 189 196 188 192 194 191 202 199 230 227 221 213 206 202 206 214 212 191 188 105 193 195 214 217 207 109 140 101 96 97 96 102 213 107 93 85 85 85 86 89 96 82 201 209 95 116
196 196 198 193 186 189 191 189 215 216 203 73 221 209 188 202 204 200 198 212 213 193 206 197 183 199 200 97 194 188 97 100 99 95 101 195 99 104 85 87 86 118 107 154 136 207 183 107 112
194 194 200 186 212 215 214 229 223 224 221 218 214 209 197 185 205 199 203 203 85 195 189 203 143 223 158 162 145 233 178 84 92 91 141 100 98 97 107 102 100 98 220 143 209 232 90 114 113
206 206 210 213 217 224 224 213 210 221 220 214 218 215 202 176 184 173 202 215 198 166 117 205 233 208 223 106 121 87 99 99 90 97 197 100 102 98 94 98 100 162 195 121 112 109 119 124 91
203 202 204 205 199 213 206 205 203 205 217 211 215 216 205 158 195 199 186 189 188 202 189 193 193 235 225 95 221 220 102 241 223 225 91 212 151 82 97 103 100 203 181 190 109 206 81 155 92
208 202 200 209 195 204 206 204 203 190 200 206 209 215 166 215 216 197 212 221 212 211 222 212 203 242 225 247 230 201 215 85 88 90 87 90 109 86 102 133 198 193 121 139 91 97 121 117 84
212 209 211 200 204 202 206 208 196 194 187 197 199 210 215 214 211 210 221 216 197 198 207 214 198 227 227 244 244 229 204 215 213 236 233 182 123 214 239 199 202 195 189 187 147 186 185 101 106
210 206 202 208 213 206 209 209 192 185 210 215 229 202 212 220 214 216 217 212 209 208 217 211 214 223 236 239 231 240 241 205 213 215 238 208 232 221 233 218 204 200 91 102 95 101 106 188 187
206 200 205 211 206 212 210 217 202 216 215 223 226 227 230 225 224 221 220 222 224 215 211 219 214 218 221 247 243 230 230 227 211 135 205 98 228 203 102 106 215 104 97 190 177 99 116 148 112
210 214 212 213 212 216 216 223 86 192 200 238 245 246 223 214 219 226 216 211 213 220 195 162 218 205 215 229 244 226 239 225 213 197 268 249 231 168 234 102 144 135 101 104 189 96 173 175 174
210 210 211 216 219 220 226 234 237 87 133 232 240 241 238 234 236 201 217 206 196 216 217 210 223 227 231 216 158 234 228 137 224 122 109 192 236 231 233 240 230 226 222 212 199 185 184 180 175
217 216 220 222 227 230 260 248 239 228 91 71 126 114 117 245 250 249 178 241 238 237 234 209 192 226 224 233 228 236 201 229 226 202 265 252 238 230 232 234 229 223 214 217 210 195 192 190 190
222 234 268 263 256 251 239 232 235 233 187 250 102 105 234 166 167 233 252 258 261 262 263 252 239 236 231 231 239 227 219 225 150 217 204 231 237 213 220 238 229 222 219 90 192 183 191 192 192
254 247 240 240 238 172 240 236 224 220 226 236 258 139 239 225 196 222 312 268 235 240 239 245 244 242 242 149 236 224 222 225 225 225 200 252 241 228 221 164 227 221 217 212 209 195 196 190 190
239 232 236 232 214 215 188 222 255 272 274 77 143 119 282 108 110 287 288 316 281 314 248 228 226 234 245 236 231 215 218 218 223 220 262 252 239 230 225 218 225 223 217 210 208 199 198 193 191
215 217 213 214 213 243 277 276 282 275 276 81 83 175 434 406 123 139 299 286 339 287 303 271 233 227 234 238 226 218 214 220 218 219 214 241 238 230 225 221 224 221 217 210 209 203 199 194 194

GFSSGP_2pvu_pres_048.txt.gz
Presure
102 142 130 156 126 132 146 156 156 101 114 122 146 117 140 136 129 121 139 137 133 124 132 109 129 128 134 134 138 136 134 136 135 139 142 140 135 140 134 138 147 134 148 121 129 94 133 155 101
118 81 80 154 152 101 130 151 147 135 127 133 119 126 126 114 121 135 137 140 125 122 151 145 132 104 142 147 139 136 136 137 138 135 136 138 142 142 143 142 140 107 85 119 145 154 141 153 144
138 81 147 151 131 142 115 113 149 103 144 149 129 148 141 136 124 108 116 126 150 137 154 154 134 141 129 141 134 151 133 139 140 135 144 140 133 114 143 144 131 85 147 143 142 141 142 127 145
158 154 150 117 149 153 151 156 116 155 151 161 141 140 167 130 163 122 142 171 147 132 124 157 140 158 160 136 142 140 102 131 100 144 141 137 142 132 137 138 140 135 147 125 142 149 139 132 135
175 151 139 144 83 80 144 158 148 154 150 120 127 155 167 149 124 136 164 152 162 164 140 130 157 153 133 136 150 136 150 140 145 147 148 148 145 154 141 123 143 128 133 149 140 142 143 123 131
166 173 165 152 81 84 157 153 164 153 126 158 166 149 154 126 143 157 146 163 154 150 134 167 146 158 174 144 125 133 100 150 165 128 123 121 156 124 141 139 142 143 145 127 147 143 143 134 121
172 170 162 164 107 167 140 83 101 148 156 153 161 164 156 150 168 129 145 159 147 140 155 159 150 162 143 114 134 148 115 114 89 96 104 152 160 160 140 140 148 151 141 117 142 133 137 139 126
169 168 167 169 166 171 169 104 89 86 101 161 160 162 127 146 157 155 161 154 158 142 135 142 141 155 130 127 142 113 89 154 124 140 108 141 137 139 144 115 132 153 153 144 146 97 97 90 90
166 176 165 147 169 173 165 173 165 142 166 171 166 152 162 147 151 157 161 159 152 155 151 129 146 122 155 122 100 112 111 114 128 162 143 139 118 115 124 122 135 153 138 93 112 101 89 87 100
168 172 175 176 180 160 173 171 154 173 160 151 168 137 148 168 152 151 170 151 156 139 99 112 188 155 160 98 147 95 107 118 153 161 168 138 152 130 138 148 138 138 81 89 90 88 88 102 101
170 170 173 177 179 182 181 152 170 151 150 134 175 173 147 153 182 148 163 158 156 127 155 167 174 108 187 110 177 101 102 125 128 104 157 101 141 152 140 101 146 95 101 88 90 90 80 125 124
175 175 158 175 175 164 157 153 172 152 139 145 168 165 162 152 163 163 173 186 171 122 143 179 186 230 229 155 150 147 105 159 147 108 112 149 102 126 142 96 99 103 93 100 113 88 90 90 90
181 194 178 172 167 180 185 184 180 166 170 175 168 97 148 158 162 174 205 195 96 175 191 236 139 215 145 161 136 128 178 101 141 107 110 150 134 156 158 133 139 91 94 86 91 89 84 88 89
191 189 188 161 139 177 173 185 171 77 178 102 159 159 174 141 176 177 180 192 206 195 90 228 227 157 102 224 223 105 88 111 101 104 110 108 99 196 141 174 240 165 100 90 90 90 85 87 87
205 195 186 205 203 198 178 169 183 169 176 165 154 166 170 176 189 203 187 210 202 235 214 223 213 226 217 105 98 103 195 197 100 97 98 98 206 129 109 103 210 119 93 88 86 87 92 88 147
197 198 197 191 197 204 187 181 180 202 196 216 206 189 196 205 201 207 200 122 211 225 224 215 186 177 221 196 108 111 98 102 210 99 102 101 104 104 105 107 110 88 84 85 88 89 100 104 204
187 196 197 205 199 203 205 194 209 191 198 196 197 170 190 195 197 217 231 212 230 224 215 216 214 209 159 213 106 203 207 197 205 204 102 99 102 103 102 101 100 101 101 183 101 101 99 100 147
199 203 197 184 202 186 183 198 196 194 188 190 189 196 191 218 189 223 224 224 226 223 190 205 144 202 201 201 185 166 207 240 212 213 162 99 86 98 135 101 100 117 96 95 97 99 93 115 183
200 197 197 197 198 200 201 189 196 198 197 206 203 195 228 226 220 219 217 219 224 222 216 211 198 85 92 213 208 193 98 226 248 238 225 222 166 107 84 103 99 105 87 83 93 115 94 88 194
196 196 189 202 206 201 198 200 201 201 202 212 214 226 220 216 207 203 220 217 215 216 216 212 185 232 204 194 159 197 193 195 211 135 187 99 103 103 133 156 91 88 85 88 85 100 125 196 193
199 198 201 199 200 201 204 205 205 209 207 212 201 208 205 211 203 205 209 218 212 216 215 214 173 206 210 225 214 223 205 212 201 201 187 212 225 216 145 205 230 85 161 168 175 223 239 208 194
215 205 205 209 211 209 205 200 204 206 201 200 201 200 203 201 198 209 202 202 212 217 217 216 207 219 184 168 216 192 209 83 109 224 232 239 219 194 124 215 203 235 231 238 240 227 238 238 201
229 228 203 198 202 211 212 221 198 206 202 206 200 190 208 208 207 208 206 206 204 232 232 218 216 201 219 221 219 207 225 210 194 233 238 231 228 234 208 210 220 217 237 185 195 240 115 179 96
228 234 233 225 224 223 217 222 216 203 197 199 210 210 208 209 211 214 217 223 230 235 233 229 202 215 210 213 222 219 207 211 209 215 228 247 228 221 225 209 208 259 248 176 229 225 236 225 195
233 238 238 232 227 224 221 220 209 92 125 200 210 211 211 217 225 229 215 234 246 251 255 246 235 225 221 217 218 213 212 210 206 206 235 240 232 233 230 226 207 190 252 216 187 182 233 232 227
248 238 240 239 238 233 233 231 219 205 208 111 88 222 225 231 234 242 266 141 142 257 252 252 255 232 222 213 195 207 204 204 213 231 224 143 242 220 209 142 96 225 108 104 236 229 232 183 95
245 242 225 235 236 233 230 229 223 188 112 223 227 116 171 225 166 261 238 230 249 243 241 150 244 243 238 236 238 129 220 210 230 231 231 233 240 218 227 229 218 258 250 240 234 229 224 89 234
251 242 237 238 237 235 230 221 219 165 228 237 260 135 103 112 163 257 261 200 108 265 260 260 263 257 251 248 242 233 227 234 205 230 227 233 240 226 207 222 237 252 225 241 235 228 220 222 225
224 223 224 220 217 185 220 243 253 248 245 241 231 196 238 246 78 262 242 273 267 234 259 252 248 243 242 261 260 249 242 243 238 231 228 235 236 225 221 228 220 269 248 238 233 227 220 217 215
256 260 258 257 250 247 242 225 219 225 152 272 277 280 289 295 309 183 310 312 307 120 281 285 282 224 325 223 235 248 249 246 238 231 230 236 228 213 222 224 224 257 246 239 229 225 219 217 215

GFSSGP_2pvu_pres_051.txt.gz
Presure
134 120 97 96 132 137 152 147 137 108 103 102 128 119 111 135 140 140 121 150 130 107 124 134 135 140 138 139 135 135 129 139 139 142 141 141 143 137 140 144 143 142 141 133 84 139 150 90 155
121 112 136 118 130 106 131 134 147 133 146 111 126 136 100 143 126 129 144 123 128 133 135 131 136 139 137 138 136 146 137 136 142 136 139 141 139 144 145 135 133 140 132 96 104 89 140 146 147
173 168 171 140 158 148 124 122 132 151 136 156 129 121 114 97 121 120 104 149 129 131 150 142 122 126 138 135 119 129 150 127 139 138 143 138 139 140 141 118 105 134 148 144 141 140 142 140 144
171 157 128 144 159 79 94 158 144 123 122 130 148 164 139 126 120 145 133 129 109 140 142 121 152 134 136 153 135 160 138 150 143 147 138 135 144 139 140 144 138 128 141 141 150 140 147 150 148
164 169 142 162 165 98 116 101 132 145 138 100 144 104 106 120 131 125 127 153 161 122 110 123 150 123 125 125 151 159 140 156 160 128 139 117 122 144 142 143 120 140 144 139 145 141 137 141 149
165 155 153 149 157 150 156 154 144 145 154 137 124 140 152 127 149 135 123 126 153 129 158 160 131 163 166 151 131 137 141 157 136 128 99 164 143 132 138 127 137 129 97 147 142 126 144 145 143
177 174 152 134 161 156 141 117 82 138 153 154 138 146 157 158 127 152 127 157 123 133 144 131 149 160 155 169 145 169 161 158 167 133 168 148 141 144 159 142 170 146 112 157 139 145 139 140 138
175 167 176 164 153 137 151 165 86 151 120 155 159 159 147 157 168 155 160 135 160 118 152 132 165 137 168 152 153 146 167 108 142 155 125 161 97 98 95 159 153 152 146 127 123 120 141 147 97
156 174 172 172 170 173 169 177 173 133 92 100 160 99 164 163 160 120 162 162 161 160 171 164 134 120 127 110 155 161 102 155 142 149 118 92 120 103 104 146 134 153 121 123 130 126 133 119 139
167 164 171 172 180 181 185 158 118 90 171 172 167 118 120 133 156 158 161 169 148 141 160 158 160 161 148 141 127 174 149 186 164 131 171 94 119 117 164 135 156 123 124 142 135 144 85 89 89
173 152 176 171 182 183 178 170 167 162 167 160 107 172 89 161 137 141 162 163 164 156 151 148 165 158 140 175 153 144 155 135 109 96 104 103 182 199 135 155 155 109 169 136 143 84 84 90 88
185 173 158 152 151 144 161 154 172 176 173 170 176 178 164 99 169 155 173 160 167 143 166 145 161 157 163 169 152 157 153 110 102 97 161 115 126 100 111 166 179 123 151 146 97 101 90 88 96
195 184 164 167 177 175 170 166 176 171 170 161 185 185 176 175 161 143 177 165 176 141 145 153 171 163 145 169 141 133 189 145 116 146 103 126 176 169 110 108 113 168 143 97 99 94 95 84 95
196 221 178 184 160 157 164 170 172 165 173 177 181 179 177 169 174 177 159 157 156 181 178 171 165 157 163 186 182 204 205 156 174 195 189 232 141 125 102 155 108 200 216 186 100 94 95 91 91
200 193 178 197 179 174 175 172 166 170 176 169 177 157 173 156 160 186 178 151 176 158 178 163 163 177 180 219 212 205 214 112 221 183 104 187 162 228 111 111 107 108 115 150 216 91 99 91 89
217 197 189 174 179 178 177 171 183 178 186 184 170 167 72 185 171 180 214 185 183 217 171 101 183 194 204 213 244 230 224 198 206 219 216 117 97 103 103 110 150 212 99 83 166 123 101 87 88
206 204 203 197 192 183 178 183 188 189 186 189 200 192 176 174 181 178 181 169 202 192 198 217 191 179 158 223 239 225 221 222 155 183 114 109 108 159 98 121 105 109 167 110 109 110 105 90 142
206 212 205 197 198 192 205 197 188 188 194 200 200 200 183 187 194 187 196 205 211 205 202 209 215 233 229 232 228 229 180 124 208 96 103 174 106 196 140 191 101 206 103 102 105 96 108 94 94
208 203 207 208 206 195 195 198 200 203 198 202 198 188 190 205 202 209 205 197 199 192 192 225 187 231 123 226 221 217 209 208 200 197 214 214 219 235 211 251 95 131 101 102 102 103 102 106 92
201 197 207 208 209 210 207 197 189 200 187 189 191 200 199 191 183 192 197 202 205 216 196 227 224 224 224 225 222 215 184 231 225 213 186 192 205 204 205 174 188 225 118 163 95 91 90 90 117
215 205 200 205 206 207 198 199 198 194 197 203 192 203 201 198 197 198 204 199 214 218 203 218 215 209 217 225 217 217 215 218 217 198 215 222 191 158 213 192 197 239 156 107 102 106 102 182 236
245 221 207 204 207 203 207 208 205 199 198 199 201 204 204 201 206 210 211 216 215 215 214 205 211 205 208 213 219 224 224 226 211 226 236 228 216 221 187 210 204 234 207 140 205 225 215 216 221
246 247 228 213 212 208 207 213 195 193 189 190 197 200 202 205 206 206 211 213 206 209 201 206 212 206 207 214 205 215 220 217 162 213 191 209 208 203 198 209 219 233 241 229 227 231 219 215 225
240 247 247 243 219 210 207 198 191 195 200 204 206 207 207 210 211 210 209 212 204 213 212 195 200 205 209 214 206 205 217 220 200 212 207 211 213 197 211 216 210 220 244 234 234 236 230 210 211
240 234 246 244 243 233 215 205 194 196 195 202 204 207 205 207 213 218 220 221 217 211 208 214 213 207 213 217 216 216 224 239 245 224 217 206 202 216 201 208 204 230 235 240 233 241 231 227 244
254 254 240 237 240 245 249 236 215 95 216 214 216 220 222 223 226 224 226 219 218 209 213 217 217 216 217 229 231 231 235 259 247 244 225 221 209 221 201 206 217 236 228 198 232 129 111 228 253
244 242 253 261 259 241 238 237 233 229 236 246 246 239 225 230 234 106 235 215 212 224 229 229 162 231 237 242 252 265 258 76 100 152 106 218 215 203 200 213 230 227 237 239 232 226 225 229 263
294 284 285 288 289 278 249 239 233 234 240 238 244 218 247 246 244 245 243 245 117 209 240 244 190 260 273 269 263 255 250 244 228 227 240 237 83 144 233 228 232 235 237 238 230 226 227 226 271
268 266 263 259 261 261 256 248 243 232 232 238 240 240 242 246 200 88 235 98 113 125 136 103 112 240 266 260 260 257 239 225 221 222 223 221 224 228 229 235 231 233 236 238 226 224 231 221 254
248 250 252 253 252 250 252 233 237 233 220 223 229 245 267 270 267 83 258 95 146 289 233 280 289 270 119 255 234 222 237 245 248 250 247 248 244 235 235 230 230 230 235 229 223 214 222 224 231

GFSSGP_2pvu_pres_054.txt.gz
Presure
136 86 83 105 83 139 146 154 136 130 128 104 136 103 95 110 112 121 135 137 136 139 133 103 127 137 126 135 131 128 132 132 142 141 143 143 139 133 140 143 146 143 143 143 143 134 149 88 144
144 136 102 81 136 98 139 155 137 133 119 93 92 131 127 99 125 139 131 132 131 116 117 132 148 134 126 131 131 137 135 133 133 136 135 141 144 143 144 138 139 141 140 143 146 147 146 107 133
156 157 143 149 133 124 126 133 102 107 141 134 164 98 96 145 123 101 105 151 147 144 128 119 128 132 135 139 140 136 139 145 139 125 135 138 145 141 138 143 142 142 148 150 128 131 141 140 143
142 160 142 136 128 89 138 134 132 92 97 151 163 132 110 110 98 122 99 146 123 133 139 138 120 122 151 139 135 125 125 129 133 135 126 136 140 134 141 147 135 140 89 145 148 144 148 153 152
172 148 144 145 152 130 145 132 118 151 123 138 166 149 134 144 127 107 109 100 143 110 107 119 155 126 124 124 144 146 106 133 134 146 154 150 136 149 147 146 134 138 124 148 146 144 149 147 144
172 176 155 150 141 164 144 146 82 119 139 154 162 122 130 150 132 154 137 158 133 126 131 105 104 109 110 130 134 120 121 128 103 128 152 153 137 144 157 141 142 143 143 144 138 139 118 140 145
179 167 159 165 170 178 154 83 103 121 131 128 143 134 115 132 143 110 150 119 115 134 124 123 131 126 158 156 137 140 159 153 149 165 121 126 163 97 146 160 145 140 156 157 142 159 150 164 137
187 184 171 153 153 140 173 176 159 110 148 97 158 141 154 133 151 127 125 127 139 138 131 120 138 149 126 133 109 149 94 138 150 168 124 165 146 139 138 124 152 129 173 152 140 154 139 153 173
180 186 172 160 166 172 165 169 171 143 162 169 157 164 137 147 88 150 143 143 159 160 147 133 147 156 117 167 170 149 121 135 134 115 153 166 139 171 158 149 121 111 121 146 133 166 160 143 125
159 182 170 170 171 171 179 187 157 145 148 130 87 84 155 122 165 156 151 142 142 144 145 118 165 165 156 155 150 156 103 166 164 122 173 156 159 157 157 120 113 143 136 150 149 150 165 125 124
175 159 144 147 180 184 177 177 177 172 147 129 165 90 90 142 150 148 145 153 156 168 155 171 163 132 164 127 164 170 166 164 117 167 161 170 155 155 152 102 101 102 177 133 171 128 184 176 112
172 176 156 164 162 162 161 158 154 171 82 173 174 148 71 165 100 146 140 155 175 167 159 154 161 157 159 167 171 163 150 145 163 167 168 159 168 128 153 99 116 170 117 206 168 166 216 214 139
179 176 172 165 163 159 155 159 152 162 168 173 182 180 176 150 158 124 94 174 167 165 147 163 170 156 159 165 171 168 159 170 157 185 150 151 153 117 145 192 104 146 237 174 156 230 122 228 102
196 179 175 175 176 152 156 162 162 156 162 176 167 171 176 173 169 169 163 168 92 121 157 174 151 169 164 166 168 170 172 160 153 156 163 159 176 95 100 171 109 127 109 180 151 120 222 226 101
200 199 188 181 175 180 185 177 79 163 168 169 176 148 155 155 159 170 177 177 154 170 118 177 175 173 148 178 180 159 176 189 176 179 166 157 205 217 96 103 107 227 216 212 114 110 108 221 218
218 213 199 195 190 180 177 170 163 102 87 152 144 147 151 162 164 169 166 170 170 142 155 156 169 162 169 176 165 169 156 161 167 113 213 204 221 235 223 94 211 202 220 215 107 116 106 105 112
212 215 213 213 200 186 184 175 179 203 190 153 154 165 169 175 169 170 176 171 177 170 175 169 93 156 195 179 182 186 176 201 140 178 225 245 237 226 221 208 217 115 161 101 190 170 111 152 152
212 213 209 215 214 211 215 209 203 198 188 189 187 174 164 163 174 156 179 180 176 211 192 197 161 186 176 183 195 165 204 212 207 215 233 135 115 219 137 220 217 221 105 105 97 109 109 111 140
214 211 207 209 208 204 206 195 189 193 198 185 180 186 185 181 180 179 183 190 191 183 207 209 192 185 211 201 208 205 190 196 188 178 200 212 221 218 206 203 103 219 213 107 110 221 94 99 105
207 204 211 206 208 208 205 197 195 203 197 185 182 184 185 182 184 181 193 199 192 188 198 165 199 208 204 204 211 206 227 227 218 213 204 218 216 220 218 222 215 215 189 220 194 206 205 109 91
228 206 209 206 212 196 212 206 196 205 205 202 200 202 205 192 194 196 198 205 201 198 190 207 209 200 190 201 207 201 219 212 208 207 150 210 213 206 205 211 214 209 152 211 203 201 211 140 100
219 222 206 207 212 197 204 209 204 190 203 203 198 191 192 196 196 197 206 207 189 202 202 205 211 205 205 210 211 214 204 175 217 215 199 198 151 203 203 201 195 193 175 203 201 199 213 116 103
241 248 225 198 203 208 208 199 197 201 202 200 206 205 204 207 208 209 201 202 200 206 206 206 209 206 212 209 206 212 213 207 205 213 216 208 202 198 204 210 222 88 207 97 213 195 198 177 189
246 246 253 246 218 206 200 204 202 200 200 207 205 204 206 206 203 205 209 208 206 199 197 205 209 207 208 208 205 207 208 208 205 191 197 195 209 198 203 207 221 209 220 199 209 207 210 221 216
236 238 247 248 243 240 216 209 200 198 201 206 205 207 207 209 210 208 204 202 201 206 207 210 212 214 213 213 213 216 221 207 211 203 207 211 213 198 203 206 217 221 210 212 211 200 209 206 208
243 238 233 243 249 233 237 235 210 204 205 208 209 207 205 208 210 208 208 210 211 212 213 211 212 220 222 224 228 226 226 221 205 206 213 215 213 205 209 225 226 230 224 220 207 215 220 204 212
245 248 239 240 240 245 241 243 247 100 118 218 216 216 215 213 210 210 197 92 217 222 222 221 224 229 230 243 243 231 229 218 208 205 209 206 213 217 220 249 248 243 228 224 223 216 203 233 226
247 238 237 239 244 242 242 237 239 242 251 255 244 243 238 234 225 223 224 87 231 214 230 257 256 254 255 258 253 252 252 248 221 223 140 219 236 263 252 240 240 240 175 136 177 217 223 224 234
246 256 253 243 239 236 242 246 248 256 206 264 257 250 242 240 242 220 197 96 140 144 224 91 222 242 267 209 170 152 152 238 210 243 254 268 260 249 243 237 183 223 231 230 222 221 229 230 229
252 262 255 253 253 260 259 255 281 285 277 270 265 261 263 265 244 169 260 260 255 251 258 111 260 128 128 143 273 258 142 140 265 263 266 250 236 236 236 230 231 214 214 219 228 231 230 232 226

GFSSGP_2pvu_pres_057.txt.gz
Presure
150 92 99 140 149 148 139 146 129 94 117 145 117 94 96 97 127 119 115 132 131 128 135 137 110 130 133 134 116 150 140 108 136 137 133 150 115 116 126 136 130 141 145 143 149 149 147 144 148
138 131 94 84 82 84 126 147 91 132 129 92 109 143 130 116 102 116 108 124 138 132 133 136 133 138 136 134 109 143 128 127 132 136 139 133 143 147 149 149 142 145 138 139 141 141 113 135 123
152 149 145 90 138 94 100 141 122 138 147 137 143 141 134 95 136 105 128 120 113 143 129 129 139 108 135 133 130 142 136 130 127 96 145 127 134 134 129 141 138 141 143 141 148 110 145 90 150
157 153 152 150 95 147 94 90 121 133 134 139 141 97 96 88 113 134 141 146 110 118 135 151 135 132 120 127 138 145 140 132 140 139 143 135 147 143 145 143 148 140 138 135 142 88 137 139 140
173 168 154 139 138 92 157 114 139 105 144 136 151 128 131 139 138 114 102 127 127 132 142 120 121 122 131 130 116 140 125 132 139 133 124 133 129 144 139 141 145 141 146 162 149 148 149 141 149
165 183 166 139 117 149 155 132 121 125 101 119 127 106 136 125 139 136 95 96 102 95 138 127 112 152 121 127 120 136 147 133 140 118 106 133 151 149 142 136 146 160 132 160 140 142 140 133 145
169 168 174 137 92 80 147 146 69 145 112 128 83 78 136 125 108 121 161 144 133 129 133 124 105 114 109 138 103 129 111 146 129 115 143 140 138 151 125 137 121 112 135 148 134 143 147 164 159
162 161 171 179 82 152 107 152 151 83 146 123 137 136 143 107 139 141 108 164 130 141 141 126 148 138 145 126 141 130 125 134 123 151 97 157 132 140 166 155 155 116 155 159 152 130 164 162 168
177 161 162 164 169 163 174 165 160 143 148 97 112 135 132 131 139 139 161 166 126 121 132 117 111 118 134 159 150 139 124 137 128 125 126 108 171 135 144 132 141 144 176 160 148 170 128 128 159
187 169 163 154 164 183 181 165 173 134 152 153 123 72 130 130 165 109 129 140 131 154 138 148 152 142 145 167 139 136 135 145 142 149 170 163 145 177 156 171 152 109 143 152 151 100 106 143 154
189 166 166 152 169 175 187 95 165 163 169 167 161 167 81 93 166 173 137 153 161 92 153 97 155 152 149 144 135 151 121 155 149 129 165 163 171 171 145 161 173 172 170 174 112 155 160 110 163
194 189 158 174 161 169 181 183 179 168 149 148 142 149 163 168 150 162 160 156 155 164 154 151 166 160 160 154 155 135 170 158 149 169 167 149 175 175 112 173 152 170 171 163 124 92 151 169 162
194 192 175 175 168 169 168 176 183 184 174 167 136 172 155 162 154 144 124 133 123 151 147 150 145 155 154 145 144 158 173 170 159 163 162 157 164 172 175 160 144 174 166 183 126 162 138 113 228
222 199 189 196 178 172 165 167 172 178 104 174 171 165 165 167 170 158 131 147 143 136 104 113 162 170 166 147 151 170 152 169 156 166 160 169 168 174 184 173 180 160 184 167 141 172 105 186 235
222 217 198 190 186 177 169 164 159 155 169 185 176 179 176 168 167 171 174 171 173 173 161 95 97 94 155 174 168 165 173 174 172 182 154 178 162 162 183 155 170 181 170 98 101 200 100 130 152
188 222 219 205 193 176 183 177 168 65 158 181 184 167 154 154 156 160 169 169 171 173 177 176 173 173 169 108 95 175 164 166 175 178 169 183 172 178 162 180 163 224 164 203 208 234 214 227 214
221 215 191 194 222 207 191 178 170 175 172 164 155 155 152 154 151 153 160 168 167 163 171 174 166 152 149 176 171 168 124 138 179 192 168 177 173 179 145 165 175 229 236 230 224 228 106 174 155
219 219 209 186 219 131 179 178 179 179 177 171 70 157 161 161 158 158 168 167 170 171 172 152 156 161 163 165 167 170 176 181 188 180 173 175 187 199 194 207 131 191 212 213 221 122 220 166 102
225 214 209 191 218 216 216 213 172 181 179 179 180 183 185 184 178 169 152 169 172 187 98 69 166 177 170 168 175 182 179 174 185 196 193 192 185 205 216 212 229 90 217 185 227 121 113 202 221
211 220 211 195 220 179 206 210 198 199 199 194 188 189 176 177 178 178 174 182 207 165 164 166 166 160 173 174 181 180 201 202 199 197 191 191 199 205 227 214 217 214 215 209 211 212 129 225 214
259 237 221 210 213 218 215 220 213 208 208 212 209 205 198 190 194 206 207 203 195 201 196 188 188 184 181 189 189 198 205 201 195 189 196 199 185 183 189 182 196 185 211 201 206 210 214 221 177
257 253 240 218 213 193 215 211 204 209 214 214 213 209 209 211 210 200 193 188 197 192 183 189 196 198 204 197 194 199 207 189 202 200 212 202 209 202 211 214 228 215 203 201 204 204 203 236 219
257 266 241 242 218 218 201 205 198 209 210 196 214 208 200 202 205 199 202 205 201 203 205 206 207 201 203 201 197 203 195 198 204 211 210 210 215 208 199 206 206 207 205 208 195 201 211 204 212
239 244 255 254 244 224 209 209 206 198 206 209 204 199 198 208 207 209 201 203 200 201 206 199 200 204 209 212 208 208 212 206 196 196 210 210 209 205 199 203 215 194 188 198 195 204 206 198 208
231 232 249 257 258 241 219 210 207 204 204 205 205 212 192 197 211 208 206 203 204 202 197 207 204 206 206 205 204 205 205 205 205 204 204 204 203 202 205 207 221 205 202 198 203 206 210 204 210
238 229 229 261 249 251 236 229 213 210 200 209 204 210 211 211 209 208 206 209 209 205 204 208 209 208 204 203 202 210 213 211 208 201 205 212 208 208 210 215 210 209 207 201 204 206 205 212 213
237 245 244 245 252 257 241 240 241 222 213 210 206 205 202 203 208 210 210 211 213 213 211 212 212 213 214 213 211 213 215 216 215 216 209 208 207 209 227 230 214 219 212 204 203 209 208 210 235
247 244 240 233 236 244 242 245 247 240 246 227 217 216 216 217 219 218 217 217 217 212 217 218 193 186 224 224 223 224 226 223 221 222 221 230 244 247 146 149 238 233 217 206 206 219 248 248 242
244 250 237 246 242 238 232 238 241 241 249 254 253 242 241 246 251 252 248 242 243 129 211 131 246 177 91 248 224 262 217 258 216 251 256 255 244 247 245 246 241 236 232 220 250 203 246 240 231
264 250 235 237 239 241 239 244 250 251 246 249 249 261 257 254 249 249 254 245 277 185 274 273 277 190 284 96 287 285 278 271 263 258 249 231 115 133 230 169 226 230 253 252 250 238 236 226 227

GFSSGP_2pvu_pres_060.txt.gz
Presure
147 124 157 116 128 141 135 139 141 134 127 134 130 125 125 143 96 129 132 141 137 142 134 143 124 128 133 134 137 138 120 135 135 131 130 138 130 111 124 138 136 142 138 135 141 141 142 146 143
159 149 118 152 83 88 122 145 143 140 111 113 133 114 105 126 97 96 111 118 131 138 147 124 135 127 134 141 135 116 121 135 137 104 98 129 134 140 134 139 150 149 152 151 139 143 141 148 141
145 149 147 140 138 88 94 154 138 138 146 139 96 123 138 129 119 113 99 111 114 118 116 133 138 140 137 137 141 137 138 127 129 133 126 121 130 134 131 139 139 135 137 137 134 136 148 144 90
145 146 154 132 144 129 85 79 83 133 147 122 137 147 99 114 133 125 125 150 120 101 103 109 112 125 125 125 132 135 136 139 142 137 152 145 140 136 133 130 140 130 144 148 148 147 148 146 142
162 165 145 147 133 149 140 88 123 77 142 115 148 141 133 155 152 132 137 143 108 126 136 106 130 107 111 134 140 136 144 146 131 140 126 134 122 134 133 140 136 140 144 140 141 144 140 143 135
182 166 158 141 138 134 152 116 88 93 110 151 137 151 141 137 136 128 139 134 116 136 92 144 143 135 127 133 119 114 130 129 121 126 132 130 141 136 118 116 132 142 108 136 134 145 141 147 130
179 177 172 162 152 145 130 151 147 116 115 90 140 138 134 125 152 137 139 140 133 139 150 125 94 102 104 102 127 110 100 115 101 109 106 132 122 144 144 154 138 130 124 127 137 141 138 166 156
174 178 162 169 160 135 146 144 139 146 145 96 141 138 132 145 136 139 144 146 138 142 134 138 90 133 142 125 150 149 149 127 136 124 124 128 121 124 155 152 126 139 153 169 161 129 153 166 166
180 173 174 150 150 139 166 152 146 141 151 138 135 121 110 96 144 112 115 123 152 136 139 133 125 142 148 139 140 140 150 138 132 138 141 122 123 135 122 136 146 145 153 171 164 171 173 158 170
169 168 162 162 157 77 108 139 159 149 143 144 139 115 118 112 80 129 138 115 98 110 118 133 136 141 165 118 124 131 124 148 128 118 151 146 160 144 140 148 132 138 146 151 154 174 171 103 163
173 162 160 158 165 154 159 173 169 166 164 145 148 145 142 127 83 145 142 134 132 87 92 137 124 152 134 169 158 146 139 134 141 148 151 156 164 145 146 169 155 151 175 171 165 171 176 184 165
181 174 171 159 160 159 174 171 168 165 164 159 149 140 141 145 145 117 78 78 139 139 90 170 113 166 133 138 122 155 160 165 145 148 160 149 150 157 158 158 177 161 182 163 168 110 174 183 127
198 169 174 180 172 163 169 174 162 158 146 119 168 155 154 153 156 154 144 145 152 132 165 171 170 171 134 147 153 136 128 162 156 146 173 163 133 125 151 127 180 178 158 175 175 108 190 182 181
218 188 189 174 178 188 167 169 169 117 161 165 172 178 175 169 158 151 153 166 141 167 163 155 76 158 157 158 173 151 157 129 152 153 157 169 167 164 170 175 166 182 177 188 207 190 203 129 168
219 203 185 186 185 188 192 163 167 162 114 158 163 167 176 177 170 164 154 158 160 155 153 177 160 158 162 95 131 150 171 107 148 149 165 174 178 173 175 170 175 173 172 208 188 179 165 186 208
229 216 201 183 187 187 199 184 180 176 170 169 161 151 150 174 172 171 169 165 173 176 171 168 159 172 165 155 109 162 105 90 100 161 176 176 174 172 179 178 174 166 184 211 187 203 187 206 226
229 214 222 205 187 193 198 198 188 189 179 170 168 156 133 169 184 180 178 179 180 174 170 167 171 174 175 173 173 172 173 173 176 174 181 168 160 171 168 166 178 191 197 210 196 206 214 218 228
220 218 191 216 171 211 206 194 186 188 191 175 184 166 159 164 169 169 172 177 182 173 173 178 178 163 163 165 167 167 168 169 171 176 161 165 165 178 176 175 182 202 202 204 208 210 208 209 210
234 226 215 216 227 216 125 207 190 194 188 193 197 170 167 161 162 162 161 165 171 189 189 170 161 161 162 160 163 157 83 149 168 179 175 164 177 171 167 179 192 201 210 204 203 211 200 188 189
245 228 221 220 219 221 217 223 221 215 203 199 193 190 179 167 167 167 163 164 167 174 169 163 161 164 163 166 169 177 166 172 202 162 171 171 162 172 185 191 198 203 191 190 212 203 214 211 225
236 240 228 222 220 207 213 219 198 217 223 212 205 201 193 180 173 181 170 173 164 171 170 167 169 165 174 140 178 175 177 204 194 192 187 190 185 193 196 197 203 185 201 209 211 207 216 210 212
239 242 237 225 228 216 211 205 211 215 215 187 219 225 228 215 202 176 180 184 180 175 184 180 179 179 180 181 188 206 205 200 201 193 184 195 195 196 203 199 201 193 204 194 204 203 200 202 205
272 243 248 235 226 219 211 201 201 212 221 222 187 215 218 215 219 217 209 209 206 202 198 200 206 206 203 212 206 200 191 201 198 200 204 205 209 194 201 209 203 195 193 197 204 202 200 198 202
258 261 259 255 263 226 218 210 211 210 211 209 208 215 180 216 218 217 215 213 213 214 216 213 212 214 213 205 205 202 209 204 201 198 201 205 211 208 203 202 198 198 200 197 196 205 207 204 203
251 273 258 259 253 259 249 218 212 214 210 208 204 213 215 218 225 224 217 218 218 211 213 215 209 207 210 209 210 197 197 200 201 199 200 203 195 204 202 200 204 200 192 197 200 204 201 193 204
241 253 251 248 240 251 258 264 225 213 217 217 208 206 208 197 219 213 208 206 215 212 205 207 191 187 210 213 211 210 204 208 211 194 200 205 205 202 202 203 201 200 196 199 205 200 205 206 218
255 242 240 249 243 233 243 255 259 256 239 223 221 217 215 214 210 210 212 205 203 203 201 211 213 211 206 204 206 206 205 206 212 212 212 213 214 212 205 207 210 204 205 205 204 209 210 224 228
249 239 230 249 233 229 236 240 249 258 263 253 229 221 218 221 217 216 211 211 212 214 213 207 202 206 216 218 202 156 222 225 193 226 223 208 200 209 210 218 214 210 210 163 226 229 225 237 220
254 260 237 245 236 233 235 236 237 249 263 255 259 249 238 228 222 185 215 213 211 208 211 213 213 190 159 217 195 173 235 235 236 235 235 232 226 224 220 213 219 229 155 234 236 240 231 231 227
257 261 254 241 237 242 233 244 230 252 252 252 254 250 102 249 249 246 246 245 227 225 236 250 254 165 114 254 263 266 272 264 168 271 270 265 258 253 250 249 251 246 247 242 238 227 216 214 221

GFSSGP_2pvu_pres_063.txt.gz
Presure
146 156 144 94 82 128 141 138 103 127 92 141 136 134 122 102 132 148 104 125 133 141 124 153 151 136 146 161 139 133 146 156 158 160 158 154 144 148 150 143 149 151 153 139 148 138 148 149 152
154 151 159 140 119 120 109 146 154 136 143 140 129 138 130 124 132 121 104 108 108 132 145 144 135 143 150 144 134 102 147 121 119 123 137 141 120 104 147 139 128 124 134 136 134 142 145 136 141
153 152 143 149 156 124 95 146 129 119 140 131 134 143 132 137 137 139 106 130 119 109 106 146 109 145 137 148 111 136 141 141 138 138 136 147 147 141 141 156 142 145 143 130 131 144 152 131 135
154 159 145 139 139 154 152 84 85 142 149 137 134 137 136 146 139 100 97 97 101 101 102 139 120 117 105 109 131 140 143 144 145 144 143 112 144 142 139 127 150 136 135 135 136 144 144 133 134
175 154 170 144 135 142 97 150 125 82 122 132 155 127 144 132 137 127 121 133 117 129 144 133 126 139 119 121 119 127 119 117 117 128 140 137 138 134 132 139 133 127 136 129 133 135 137 145 149
186 173 153 146 135 145 137 145 154 99 84 122 109 114 141 133 135 129 144 119 110 95 110 120 116 119 117 142 139 103 120 133 135 126 129 128 138 115 120 136 139 141 128 118 135 142 142 160 146
187 165 172 146 140 140 151 144 146 141 116 95 139 147 133 134 140 149 135 138 140 145 135 131 133 140 135 137 137 137 134 140 139 141 117 108 111 108 133 132 136 123 143 122 135 136 144 124 145
185 155 168 158 153 149 142 150 139 147 138 94 82 124 130 135 133 134 121 139 146 139 135 96 137 135 139 131 95 112 105 102 104 126 137 99 144 132 124 151 153 147 105 141 147 151 143 143 144
173 180 150 145 151 168 158 141 92 140 149 140 137 89 125 75 148 146 141 128 145 139 126 142 139 143 145 128 141 145 146 145 141 140 133 148 136 142 143 115 148 149 150 149 162 160 151 154 158
182 183 163 164 158 155 164 169 150 142 140 100 147 142 127 120 114 126 136 145 144 142 134 140 144 131 145 138 138 137 130 129 121 119 162 130 133 111 142 148 142 143 148 151 154 167 161 128 159
162 173 171 154 97 162 172 167 166 155 139 141 142 136 142 148 139 134 133 141 130 143 139 142 93 138 149 130 123 134 137 133 139 145 133 151 154 154 149 146 144 139 139 162 143 152 159 161 156
198 176 177 170 167 157 179 176 178 161 146 154 158 146 144 139 133 147 101 154 91 97 133 149 150 137 136 106 143 135 137 133 134 142 158 140 143 169 161 157 163 159 106 164 175 124 153 160 158
192 197 157 178 169 164 170 180 181 173 177 166 153 145 147 152 144 145 156 152 137 127 144 136 142 133 143 138 135 136 138 140 120 112 99 96 157 163 161 167 167 163 157 156 161 170 176 183 185
192 207 189 168 174 170 166 167 135 171 166 164 171 164 158 153 150 144 152 148 143 145 142 142 143 134 144 147 134 144 153 151 159 160 171 164 171 167 175 158 162 160 150 154 167 186 176 176 181
201 241 216 183 175 168 178 161 168 174 178 160 169 169 165 168 162 163 154 164 150 149 144 142 151 148 151 81 149 152 158 173 161 162 164 164 153 157 162 155 155 161 165 186 185 186 171 172 167
217 200 231 199 191 177 178 174 159 84 63 154 162 161 155 160 154 169 171 175 157 166 158 158 158 158 158 146 156 161 164 153 147 167 159 157 161 121 110 101 123 181 183 181 183 175 168 179 175
231 214 234 215 197 190 175 179 176 165 165 167 159 171 166 169 165 106 68 170 173 177 173 168 162 175 167 154 159 158 156 169 168 169 161 168 176 177 178 179 178 177 176 180 163 167 178 170 169
240 229 217 226 229 185 195 172 179 177 174 176 172 167 162 167 169 165 165 162 165 169 171 171 174 181 181 177 177 180 180 178 172 171 174 181 176 169 173 172 163 150 170 183 204 176 163 176 198
250 231 227 240 222 212 189 192 188 183 173 165 178 177 181 170 159 166 169 167 170 170 169 172 172 179 180 189 190 183 180 185 175 180 181 165 161 160 154 167 176 165 173 190 162 192 186 195 202
247 232 223 225 234 221 210 209 202 197 196 188 192 178 177 182 180 167 162 170 171 175 173 164 162 168 178 172 169 170 172 180 185 186 161 158 165 166 167 171 176 198 204 196 195 187 192 195 191
281 264 231 225 225 228 188 213 214 218 202 198 174 185 187 185 188 192 183 185 181 177 179 171 172 167 163 162 166 170 170 165 170 171 172 172 171 172 187 177 203 204 196 195 191 197 202 194 211
269 235 235 220 225 238 230 198 195 225 206 188 195 191 189 182 185 191 190 187 188 189 189 182 172 172 171 172 172 173 173 172 172 174 175 182 188 199 198 211 206 191 201 199 198 196 204 205 196
258 271 264 229 217 217 214 215 218 225 190 225 204 199 199 186 227 203 202 195 195 197 192 191 191 178 184 173 178 175 178 183 180 200 195 202 204 204 207 204 198 206 207 199 193 192 194 196 200
268 260 269 256 230 215 211 211 216 217 221 206 222 220 230 231 224 212 215 210 212 211 205 202 201 208 214 213 208 179 190 207 203 206 212 212 211 212 204 202 197 194 199 195 204 190 200 203 196
267 269 269 263 251 240 219 211 219 212 217 216 221 228 227 221 220 222 206 222 226 233 196 226 221 215 215 217 215 212 212 212 212 211 211 211 204 205 211 212 210 202 202 198 199 201 204 199 204
259 270 257 260 257 228 247 242 206 215 224 212 213 216 220 220 219 200 219 222 222 224 170 218 222 218 217 225 226 221 220 217 211 209 206 201 180 202 204 207 206 203 198 198 195 194 205 201 209
276 282 273 258 255 254 250 246 247 247 233 229 223 216 219 221 217 218 219 219 218 215 209 212 207 195 219 218 209 210 205 207 194 211 208 208 207 202 202 208 211 211 213 214 214 211 205 197 203
275 268 267 264 260 258 260 258 248 236 247 256 232 228 223 216 216 219 219 221 221 220 220 219 214 215 218 216 213 215 215 216 163 171 219 223 226 222 215 217 209 206 202 205 206 202 199 207 206
266 279 250 250 244 244 254 258 256 252 251 251 259 274 259 228 220 218 218 214 214 213 214 218 218 217 219 221 220 225 224 225 225 232 234 228 223 230 145 227 222 215 212 210 216 216 216 217 221
257 265 257 244 239 233 238 249 244 242 244 241 238 249 257 262 267 274 273 229 226 227 222 221 222 224 227 230 231 234 231 237 240 266 285 280 286 276 269 264 259 251 245 239 194 237 235 227 230

GFSSGP_2pvu_pres_066.txt.gz
Presure
153 138 84 81 129 147 149 152 134 97 116 148 145 134 134 144 117 117 131 120 121 122 132 159 173 140 157 126 178 171 140 147 142 157 160 138 139 134 103 141 135 102 152 141 150 122 144 127 140
170 155 128 147 82 84 82 126 120 154 136 119 138 145 144 123 143 132 124 116 114 116 147 144 144 155 142 173 158 154 110 136 107 108 131 129 103 105 122 136 129 141 134 129 131 138 140 123 140
160 160 151 154 137 148 84 82 96 104 147 137 134 117 147 147 146 122 144 107 103 107 120 122 124 131 151 157 158 147 152 161 132 144 148 143 156 155 154 130 133 143 150 146 135 148 153 120 143
159 162 153 150 85 141 138 103 83 97 137 143 132 150 140 149 103 136 103 143 127 118 104 106 121 104 104 106 149 127 144 115 146 103 149 145 129 143 110 147 148 138 141 139 136 128 113 126 119
177 170 147 139 147 134 150 130 158 107 101 132 146 133 126 124 147 123 142 110 104 131 130 125 114 148 111 112 103 101 108 138 110 136 125 111 125 134 146 145 142 139 127 122 147 141 115 139 135
179 173 164 154 153 148 140 153 132 150 134 92 129 144 138 149 133 132 127 149 143 102 101 125 121 133 138 139 126 139 109 122 134 116 140 112 132 117 119 129 121 124 130 115 130 135 125 151 103
186 178 160 155 141 148 163 144 150 139 146 137 87 151 140 131 147 135 140 141 147 133 138 133 127 96 102 125 123 111 123 130 121 133 128 135 131 137 139 103 118 137 141 128 134 124 147 133 130
177 179 179 157 159 156 153 152 147 156 149 136 141 87 86 142 137 117 134 140 150 145 110 95 92 142 127 131 132 132 131 139 126 134 133 118 129 123 145 147 147 130 130 151 131 108 149 132 144
182 144 171 158 154 157 150 156 140 141 162 133 144 139 125 107 130 135 141 150 133 133 141 141 140 131 136 142 131 109 110 144 149 122 136 135 157 146 151 149 152 115 158 124 153 136 139 142 149
188 190 142 168 158 163 161 161 156 140 145 155 137 136 144 113 104 90 123 138 119 140 131 131 127 132 133 143 150 125 149 143 140 142 138 141 131 124 136 110 139 143 143 123 157 161 158 158 158
183 171 160 139 166 175 167 163 166 156 143 153 143 137 150 148 131 126 124 134 145 141 134 132 140 140 147 149 135 137 136 146 141 134 146 143 135 140 140 138 137 137 106 147 142 157 161 161 163
194 178 164 163 144 178 180 172 161 166 152 145 147 136 138 146 135 142 145 136 143 138 99 129 132 119 142 141 144 142 140 106 142 127 104 108 140 119 134 144 142 138 171 173 172 177 177 176 159
212 182 177 162 161 148 164 179 174 165 159 157 146 141 141 135 142 147 141 140 141 75 94 90 138 115 133 138 99 121 96 116 149 149 143 139 141 141 139 143 148 129 158 169 168 168 163 162 179
214 210 170 182 167 160 103 174 186 170 173 162 160 149 153 143 151 146 142 150 147 148 143 139 125 99 138 135 137 136 141 142 124 146 150 146 145 148 147 144 153 154 163 162 166 167 159 155 158
236 218 211 175 177 167 167 177 173 177 178 175 160 164 159 146 154 141 143 149 144 143 145 152 146 143 154 150 150 141 142 86 141 142 142 149 149 151 151 149 172 171 155 164 162 166 171 179 178
255 232 212 214 175 174 175 173 175 177 129 158 161 160 159 157 160 161 151 150 151 158 159 150 147 144 142 154 154 149 141 152 142 146 148 150 154 157 153 161 167 89 157 178 170 169 181 182 174
271 246 207 226 201 177 184 175 172 161 154 170 177 170 162 167 166 166 166 162 162 159 152 153 156 151 152 151 153 156 155 154 157 155 158 158 158 162 166 169 177 180 189 175 175 181 178 157 165
311 244 208 220 216 191 186 149 177 167 172 180 174 179 177 173 173 172 124 101 174 171 151 162 160 161 161 165 163 163 165 160 165 165 161 163 182 187 182 183 185 187 199 193 195 187 163 169 169
304 307 237 211 227 215 202 191 184 182 170 168 178 175 166 165 175 175 173 169 162 76 74 174 175 66 176 164 171 172 170 171 114 175 173 169 178 187 192 189 173 181 178 182 178 174 173 173 191
306 299 275 229 221 199 213 196 186 186 189 175 166 171 173 174 160 166 170 172 176 173 167 164 162 141 171 169 162 163 168 169 170 169 167 181 172 176 172 166 174 173 173 173 174 174 187 193 203
306 294 296 233 230 226 193 208 198 187 189 197 184 166 170 169 176 171 157 158 165 170 169 169 164 160 161 162 164 166 164 169 170 173 174 171 170 172 170 171 171 170 174 182 180 193 203 205 206
297 300 268 275 240 230 231 202 212 226 186 200 208 187 180 166 171 178 178 171 164 169 175 176 181 183 180 181 180 177 176 182 184 180 190 176 180 178 179 172 180 180 182 206 202 205 208 202 203
302 296 293 281 265 243 230 231 235 208 185 229 219 208 198 193 187 175 171 166 168 168 170 168 170 176 182 186 188 193 196 188 188 188 193 196 197 183 190 210 208 220 205 205 211 210 211 205 201
301 288 294 275 274 251 238 229 230 224 205 190 228 213 204 181 186 189 189 192 192 188 184 187 184 185 180 181 187 195 199 197 197 198 202 205 201 218 212 216 215 209 210 203 210 201 200 184 193
297 293 285 288 285 259 239 233 226 227 229 224 233 227 216 227 186 184 191 198 218 204 203 193 193 196 196 190 203 209 202 197 203 219 218 224 218 213 214 213 213 213 209 212 206 203 202 202 204
299 289 276 287 289 281 254 236 215 219 218 226 229 230 232 220 204 180 240 240 210 206 204 196 188 191 196 237 226 220 225 231 223 190 211 215 216 214 217 223 217 205 206 212 211 206 204 193 189
285 300 292 315 281 239 267 259 229 221 218 240 221 227 243 233 229 216 194 199 235 238 183 227 228 233 224 226 224 221 223 222 221 210 214 217 209 189 208 121 210 214 213 212 213 211 212 212 212
277 284 288 278 274 271 265 233 250 226 221 218 216 211 215 219 224 227 222 229 225 223 221 222 228 226 223 219 221 222 225 226 222 223 222 221 223 224 225 223 155 222 220 168 168 208 207 214 206
281 285 268 273 266 268 260 268 249 248 229 219 215 216 217 82 214 215 214 212 214 219 217 216 214 217 218 217 214 214 220 222 215 194 223 223 224 101 222 230 225 223 223 223 221 219 218 222 221
262 268 273 263 253 256 261 260 265 261 249 244 237 227 223 226 227 227 227 228 230 230 223 223 223 220 220 219 221 223 223 112 231 180 231 234 236 242 250 249 258 260 255 251 250 250 248 241 240

GFSSGP_2pvu_pres_069.txt.gz
Presure
152 82 162 105 139 82 148 83 142 141 152 129 146 148 141 105 144 124 123 135 124 123 134 177 177 108 177 175 133 170 112 142 144 135 143 137 143 161 124 144 135 153 115 101 155 127 146 151 157
168 142 162 160 108 83 132 96 122 140 132 141 153 96 122 99 150 145 137 128 139 138 123 140 140 151 168 122 171 184 133 149 148 149 131 137 124 149 158 158 125 157 119 112 118 151 108 156 151
162 163 150 156 154 120 80 107 112 83 95 111 117 146 141 144 115 151 143 138 114 151 124 133 121 125 169 174 120 112 175 163 146 177 173 179 154 123 143 138 133 115 159 158 157 158 148 129 123
168 161 153 146 156 138 119 84 151 101 147 95 150 148 125 94 104 105 142 143 144 149 109 115 123 115 158 155 134 165 178 112 157 150 159 110 130 141 123 133 108 154 131 133 145 129 129 114 135
190 169 141 165 152 146 150 112 118 81 87 83 120 140 144 115 122 120 149 136 144 105 136 105 103 108 107 117 123 104 103 159 112 110 116 146 116 102 107 136 122 123 118 128 132 136 123 145 146
196 182 175 154 156 146 149 147 150 104 138 87 83 126 151 120 85 150 135 142 148 136 119 131 138 150 134 130 140 117 105 109 146 120 112 112 119 128 147 122 123 119 124 125 115 119 135 132 110
176 184 181 150 144 155 163 152 157 149 131 148 144 117 158 134 140 146 140 147 106 137 144 132 142 138 143 144 113 120 135 141 115 114 109 136 131 113 121 134 132 118 115 136 106 108 139 147 141
184 183 184 170 151 161 157 153 142 85 141 157 133 110 84 153 150 133 145 147 148 129 91 129 130 99 95 104 146 140 139 105 125 130 129 135 137 144 132 139 134 133 140 139 161 131 137 137 138
195 177 182 175 158 163 151 83 62 148 151 149 150 112 97 83 88 142 134 122 128 144 139 130 105 144 132 135 107 117 128 107 137 143 141 109 106 125 130 149 142 141 135 128 122 134 120 128 141
197 191 169 168 173 166 162 160 144 154 148 97 137 138 138 136 91 93 143 145 145 145 107 142 122 148 139 113 147 132 136 138 133 133 139 105 129 142 148 143 134 146 137 134 134 146 140 132 144
193 154 168 176 178 179 159 158 164 149 136 144 149 158 149 138 142 148 120 93 128 149 138 149 148 126 144 145 127 132 127 145 144 138 136 136 149 148 130 130 134 127 123 136 116 136 139 142 146
217 175 184 172 151 178 162 74 173 154 150 153 148 144 144 149 141 149 145 147 85 119 138 136 136 146 142 143 139 135 135 141 141 138 133 148 144 135 136 102 144 122 145 143 141 144 146 149 151
250 194 171 176 179 157 183 179 136 161 152 158 151 149 150 143 145 152 146 147 147 116 137 137 140 134 118 114 117 122 109 96 130 139 111 142 139 142 143 140 141 148 147 152 149 151 148 145 150
235 228 191 175 170 120 173 183 182 173 142 161 157 149 149 148 142 142 146 142 143 145 147 152 140 138 136 104 94 137 140 136 141 121 95 127 141 137 140 139 148 141 144 147 149 152 145 154 152
256 240 214 192 187 172 181 171 180 185 169 149 160 155 155 150 149 150 141 80 144 137 140 145 81 140 136 139 77 139 141 139 136 123 142 143 149 146 148 150 139 151 152 86 143 149 156 157 160
313 253 240 215 195 185 175 182 167 179 175 167 160 157 153 154 152 151 147 159 91 91 77 145 142 137 146 136 140 144 147 145 145 153 151 145 143 158 157 159 154 151 101 158 162 154 160 166 184
342 325 244 217 200 194 187 181 183 172 180 143 172 159 159 160 158 162 157 150 146 150 144 143 142 144 142 146 147 151 143 141 148 151 156 151 152 154 157 158 163 169 168 167 170 177 183 170 185
370 334 129 227 213 201 192 185 179 184 172 175 126 156 90 164 158 159 168 160 154 157 151 151 150 151 148 143 129 150 151 152 160 152 154 161 162 163 165 169 168 178 177 171 174 176 176 184 171
345 334 325 235 216 214 196 193 186 176 183 164 155 179 179 163 166 164 161 161 161 161 161 159 158 159 162 160 161 159 160 161 161 156 156 162 165 169 77 172 161 166 169 172 173 179 173 175 170
362 345 325 323 232 216 206 203 193 180 183 181 181 108 166 176 170 175 161 165 170 166 162 101 160 161 164 142 166 169 173 175 139 169 167 177 180 173 171 173 169 168 171 177 192 190 192 198 196
294 372 330 310 277 218 212 209 206 193 180 171 179 187 157 159 172 174 175 171 175 175 171 167 164 166 167 168 156 170 168 164 165 164 165 162 159 162 166 169 177 188 192 192 193 194 195 196 193
325 357 335 277 312 256 220 204 207 206 198 168 185 175 170 170 153 168 163 167 169 168 172 181 180 178 177 179 178 173 168 172 174 174 170 171 174 183 180 188 190 189 191 196 197 196 208 209 214
333 323 349 319 301 309 243 236 215 210 196 196 197 188 180 163 165 173 176 177 158 177 178 174 173 170 167 173 146 162 153 165 168 170 180 177 176 174 187 183 194 205 211 202 196 215 221 218 216
294 311 332 325 307 303 284 225 239 231 220 191 203 208 198 190 176 172 170 169 177 177 165 159 160 163 166 169 179 181 181 170 166 176 183 193 197 190 202 200 197 214 210 209 225 226 221 206 215
292 314 331 331 308 299 291 261 221 236 231 217 196 199 208 201 193 189 186 181 178 172 182 188 178 174 168 177 178 178 184 189 194 199 207 206 204 206 201 205 240 228 231 226 222 219 213 212 211
309 295 304 316 324 293 293 282 242 226 228 232 220 218 214 211 209 209 201 184 180 181 187 193 196 194 184 188 193 193 190 192 196 200 205 207 201 195 198 233 227 222 224 218 218 211 205 200 208
287 302 306 313 318 302 288 292 271 242 230 224 226 226 226 225 221 194 202 203 202 187 205 211 210 208 174 199 186 185 192 210 242 211 216 238 211 229 224 219 222 232 232 157 228 225 219 212 217
297 305 298 300 305 307 301 298 278 259 248 238 230 225 223 226 230 229 230 229 226 192 187 183 228 219 220 219 208 181 180 184 210 225 227 227 228 225 223 223 224 181 227 225 223 222 222 222 218
279 280 307 314 306 305 303 287 286 268 256 249 240 231 224 225 226 229 230 227 228 226 235 234 250 248 241 238 244 228 222 223 222 216 217 146 214 148 222 225 228 232 231 231 235 235 231 231 242
289 286 283 294 312 283 299 299 288 281 258 253 240 239 232 228 232 239 239 239 240 251 236 223 232 223 228 220 219 216 215 221 228 231 224 228 229 236 238 248 275 287 285 290 280 275 272 265 259

GFSSGP_2pvu_pres_072.txt.gz
Presure
166 147 82 87 80 79 83 152 84 138 106 151 95 103 142 134 141 145 124 117 121 121 116 147 124 117 143 127 106 137 162 133 149 103 139 121 126 134 153 137 155 155 134 140 143 148 110 143 134
151 165 149 82 82 160 82 82 147 105 106 123 152 123 130 143 137 147 140 148 147 112 146 118 123 140 187 182 189 198 128 122 148 151 135 150 147 148 121 147 142 135 116 156 127 158 140 133 164
186 170 171 152 91 82 157 83 81 175 78 133 128 152 160 135 121 108 153 154 119 142 125 122 117 118 142 166 189 167 194 140 157 149 167 120 140 143 168 139 153 121 128 127 141 133 156 124 123
153 169 156 145 162 133 138 148 123 74 113 79 143 139 130 154 98 141 97 155 112 148 144 118 141 140 115 114 121 129 129 155 120 107 135 166 167 160 102 108 171 173 113 108 109 147 122 143 123
189 194 172 172 150 158 149 151 158 138 152 143 144 82 140 149 142 105 145 151 139 139 113 147 135 157 154 132 127 116 173 169 125 130 112 158 112 120 120 160 107 104 116 148 119 142 125 127 130
172 202 209 174 154 144 152 149 111 106 86 136 81 132 108 107 158 138 101 145 120 151 149 140 143 152 116 124 134 119 112 111 131 104 143 112 158 124 110 135 151 120 123 130 151 145 110 126 144
204 174 147 164 154 161 154 161 154 148 142 85 83 131 78 149 86 139 143 145 140 130 143 149 137 144 143 112 134 103 151 147 147 114 116 107 155 133 119 135 135 142 134 132 135 136 143 115 133
197 201 191 198 158 162 150 93 143 158 156 150 159 83 108 85 148 113 113 99 141 146 133 150 133 147 147 144 137 138 142 144 108 110 133 132 117 142 140 133 147 139 136 136 137 132 136 137 147
154 185 168 168 193 167 156 164 147 90 149 159 138 144 129 90 92 103 93 134 113 88 150 151 138 143 99 136 132 135 150 117 98 110 119 135 126 107 97 139 123 146 140 142 145 133 134 140 137
191 193 197 170 184 174 166 161 158 117 125 156 149 135 147 87 90 135 90 146 149 126 121 138 125 134 149 136 133 151 128 122 136 111 123 122 131 133 134 136 122 140 142 137 136 143 143 143 143
146 242 174 180 169 197 168 157 142 155 149 157 150 145 151 99 143 91 87 98 84 158 134 141 141 135 140 141 139 149 147 134 149 108 89 149 135 138 138 133 151 130 145 155 150 143 140 129 136
183 140 204 188 145 193 191 164 155 171 157 156 157 144 137 147 150 109 148 147 123 125 152 144 145 85 101 143 141 116 158 154 138 140 148 148 138 136 96 138 145 140 144 115 145 146 140 139 144
195 171 235 188 196 188 190 186 125 167 161 148 155 148 140 142 155 150 157 147 145 145 129 148 144 147 136 130 117 137 135 133 139 141 132 138 108 114 116 141 137 147 116 147 146 146 149 148 137
213 225 210 207 185 193 192 167 193 118 163 162 155 152 151 143 149 149 154 160 146 149 148 141 139 130 141 148 143 146 139 141 92 147 111 143 144 147 148 114 146 144 148 151 145 142 155 154 158
399 282 212 202 200 197 196 187 163 195 159 86 160 156 156 155 154 144 148 155 150 141 144 147 141 113 147 147 94 84 141 86 146 142 140 149 109 142 134 151 151 143 141 111 156 152 155 158 158
279 243 227 195 203 192 198 85 184 165 200 160 168 144 153 158 150 149 150 149 153 148 153 157 144 142 145 74 137 129 134 139 140 138 128 136 151 110 146 150 141 154 152 158 154 163 158 164 166
356 392 298 225 247 207 199 196 198 186 183 195 165 172 151 150 156 151 150 159 139 144 151 151 146 129 117 142 142 143 142 139 139 148 152 144 144 147 143 152 156 152 155 161 162 159 162 165 160
284 279 256 341 163 219 203 201 198 195 125 129 194 168 161 160 155 159 142 154 159 157 146 141 144 150 152 151 150 150 147 147 144 145 144 144 149 152 153 154 154 159 156 165 170 171 179 175 162
281 345 376 356 258 222 211 200 185 196 193 181 193 190 168 164 162 164 149 144 156 156 157 151 151 146 148 151 151 145 147 153 152 152 154 154 151 154 161 153 164 171 175 178 165 170 169 171 171
293 279 377 334 298 222 226 210 200 195 193 189 182 189 187 176 168 163 160 159 163 161 156 154 156 154 88 153 152 150 151 135 156 158 162 162 160 164 167 170 170 173 174 173 176 170 165 175 179
297 278 279 337 367 312 232 223 213 193 194 189 186 185 188 183 182 168 168 165 160 158 162 162 159 139 159 157 105 160 162 160 161 151 170 171 172 170 163 170 176 169 164 167 160 172 176 173 179
293 292 269 330 313 355 318 139 216 212 192 190 193 189 178 176 179 178 176 171 170 167 165 165 162 160 163 163 161 164 159 167 170 170 164 172 172 152 151 167 161 161 167 176 170 175 179 202 212
294 319 288 314 357 352 300 272 233 237 211 195 185 194 188 181 182 176 178 179 159 176 175 171 173 173 171 171 172 180 174 169 172 170 171 172 177 166 177 173 172 177 158 178 187 196 208 202 210
287 292 331 291 275 302 341 336 241 231 233 214 200 186 189 187 183 176 173 171 175 165 153 155 153 153 161 171 171 166 166 168 166 169 178 180 162 174 163 174 181 180 192 191 202 214 232 222 217
294 286 310 310 316 324 240 336 351 235 233 237 226 205 191 188 185 183 181 177 173 175 178 175 173 162 167 161 169 168 172 177 178 179 179 183 188 192 190 180 198 202 199 209 204 224 228 244 229
282 286 288 330 285 278 336 330 341 309 227 228 233 223 207 198 191 187 188 187 179 171 170 170 176 174 173 172 174 164 176 177 172 178 186 188 190 203 209 205 205 207 236 203 212 230 219 233 233
286 286 291 298 331 276 265 333 329 328 286 228 226 229 219 209 200 195 195 191 190 187 184 187 186 183 183 180 182 180 179 178 183 194 174 192 206 221 249 218 216 212 234 232 242 247 234 161 238
274 286 287 305 314 327 335 333 321 299 294 269 246 230 227 226 214 202 199 198 197 195 193 188 197 201 203 196 193 195 202 200 201 203 196 189 191 228 241 238 232 232 232 240 242 253 268 285 285
302 307 319 321 313 313 316 339 330 304 282 270 265 261 252 241 229 226 225 217 213 213 209 191 190 199 203 182 196 204 196 198 206 217 241 208 237 233 220 221 227 236 241 282 272 355 323 313 303
291 285 280 285 284 296 314 320 321 306 283 293 261 258 255 231 250 246 237 230 233 235 233 214 219 221 222 223 224 226 246 241 246 254 244 243 231 225 225 226 238 276 263 301 289 326 324 373 313

GFSSGP_2pvu_pres_075.txt.gz
Presure
206 166 164 85 142 149 73 74 151 89 142 136 142 127 143 130 140 141 131 123 137 139 119 95 122 125 115 135 139 135 133 129 120 118 117 110 124 114 167 153 151 122 133 139 129 159 118 150 158
184 184 157 161 117 131 122 150 127 78 92 89 147 147 147 122 142 144 144 125 135 129 138 141 117 108 119 123 118 119 161 129 119 123 151 141 141 151 131 146 135 146 163 141 147 96 140 138 123
202 210 174 159 160 126 107 87 83 133 133 77 99 84 146 98 118 140 138 142 136 141 143 148 116 133 118 133 101 133 149 104 154 95 146 159 147 145 146 146 140 146 119 92 159 145 123 107 124
161 193 215 164 171 149 90 86 78 88 87 166 79 86 96 76 152 142 149 145 139 142 146 143 151 114 118 137 114 130 133 205 143 123 197 135 139 156 126 161 145 113 112 157 122 130 112 146 115
177 200 191 169 137 159 163 120 87 149 76 132 77 108 129 139 157 133 126 134 156 142 144 157 148 144 124 112 121 131 110 113 121 127 113 182 126 170 182 104 111 107 130 122 104 107 129 142 136
189 200 189 185 165 136 166 163 166 87 151 88 83 147 151 80 130 141 161 151 161 150 141 152 160 149 150 148 167 127 139 144 144 124 148 163 161 153 174 143 157 136 109 115 135 145 132 125 137
211 180 188 162 187 165 152 172 168 144 121 96 81 124 111 82 161 87 143 135 84 99 136 140 150 149 128 136 149 148 154 113 136 147 114 142 111 123 112 144 134 137 147 122 134 152 105 100 132
171 208 188 198 201 176 173 172 149 151 156 167 72 77 81 79 81 152 109 90 145 150 89 103 140 145 149 152 113 148 146 144 143 107 140 133 152 135 137 106 112 110 112 109 141 148 122 143 140
127 194 203 191 176 197 168 164 96 159 157 157 154 151 87 98 88 135 82 87 81 138 133 155 122 149 146 141 151 130 138 142 149 149 118 143 118 113 91 130 102 131 132 131 139 147 102 149 145
219 179 187 208 162 173 190 176 146 166 163 167 157 144 156 150 85 85 136 142 146 128 101 131 104 135 146 141 151 151 144 125 98 114 121 105 142 101 118 117 128 115 147 135 137 136 138 142 143
120 173 184 188 101 199 207 166 164 158 149 145 158 155 147 158 136 140 105 98 83 109 127 141 133 126 88 101 139 141 142 146 97 147 143 150 143 138 103 134 140 143 151 143 129 137 141 129 134
202 203 178 216 213 158 203 208 158 157 168 159 148 155 143 149 160 151 142 151 88 94 141 84 148 151 155 148 135 141 101 102 141 92 95 143 101 139 145 149 144 140 129 140 142 144 140 121 148
216 190 205 146 215 197 161 174 152 183 168 154 163 156 121 152 152 152 151 144 159 79 84 113 101 145 112 154 153 146 136 139 98 108 127 113 152 150 140 143 142 112 115 138 142 139 147 140 138
264 196 119 120 176 220 191 203 172 107 169 162 158 161 158 148 155 150 151 150 150 153 151 149 142 137 136 121 137 131 148 102 147 147 140 139 139 115 141 103 121 151 112 86 148 150 138 147 146
323 223 109 168 172 127 183 188 164 197 186 160 167 156 159 151 150 154 154 148 151 144 145 160 152 143 143 144 135 103 138 140 144 148 86 141 149 145 151 153 140 136 136 151 155 134 151 151 150
295 376 222 164 204 163 133 176 185 194 196 187 177 171 163 156 155 153 150 156 150 146 145 144 154 149 151 148 144 143 145 145 142 141 145 142 119 136 76 89 140 148 141 141 153 150 152 153 158
326 333 290 227 202 190 206 194 126 66 192 180 193 168 168 157 150 155 154 155 156 148 147 145 147 151 149 152 157 141 143 146 144 135 142 147 143 141 145 146 151 153 152 148 155 156 159 149 147
282 276 360 285 219 185 204 198 203 197 168 180 200 177 164 162 165 161 163 157 152 153 149 149 143 144 144 142 144 146 150 154 154 156 152 153 154 149 142 150 152 150 156 159 160 154 157 163 169
262 282 302 377 282 251 214 195 67 206 203 202 189 201 167 161 160 174 161 137 157 155 151 152 151 150 151 152 145 142 148 136 144 150 147 147 155 153 152 148 151 159 152 155 163 168 161 169 165
313 303 279 314 397 257 207 180 246 209 127 175 203 198 199 170 163 166 173 161 153 159 99 97 113 151 154 153 152 153 156 152 150 142 150 152 150 152 160 160 153 160 161 167 165 166 177 175 161
293 301 298 276 280 402 220 197 194 180 205 206 205 140 198 195 190 169 166 159 166 163 161 159 152 148 151 150 144 150 150 151 158 158 154 158 158 158 152 161 159 167 172 168 172 169 176 178 180
280 292 298 300 277 278 351 270 198 183 204 193 204 205 190 199 186 191 171 162 159 159 144 162 161 159 158 154 154 154 158 158 92 153 153 158 160 158 163 165 172 175 176 183 168 169 167 168 185
275 292 298 306 295 275 293 300 254 206 204 201 159 115 208 189 197 179 185 184 173 168 165 167 166 161 160 160 162 160 150 158 164 167 165 155 160 169 140 169 150 177 171 170 173 178 175 175 186
274 281 288 301 317 292 296 265 374 332 214 210 205 180 198 202 192 188 196 182 186 185 179 166 164 166 168 168 165 161 162 164 164 167 169 170 162 151 161 152 165 171 173 162 176 181 179 185 182
284 276 292 313 319 325 291 269 350 214 349 225 235 222 208 199 194 196 180 197 189 182 187 186 180 181 184 180 176 173 174 172 170 166 172 158 163 166 170 166 176 173 179 183 188 179 196 205 227
285 288 281 290 313 311 333 293 392 333 355 320 219 230 246 217 197 192 193 188 189 189 187 185 185 187 184 181 181 180 180 182 180 177 177 177 163 177 175 178 185 180 194 195 207 216 231 250 252
285 287 319 316 294 284 332 330 294 363 298 352 299 248 236 249 222 203 194 189 188 184 184 180 185 184 180 179 174 174 175 175 164 171 172 181 181 183 184 182 198 204 210 208 212 233 247 246 242
274 307 300 305 291 298 338 348 315 262 346 348 330 285 273 233 239 234 210 200 193 188 187 184 180 184 185 183 179 178 180 181 184 186 183 186 186 196 197 200 203 208 205 247 242 238 229 250 258
278 286 301 307 298 287 289 335 362 335 262 330 337 333 284 276 256 237 237 236 223 204 196 192 190 189 181 182 183 186 187 188 191 194 200 195 187 190 200 223 227 207 243 247 234 239 240 272 290
287 297 285 280 295 292 305 325 334 346 314 306 320 296 298 278 275 271 244 237 235 235 234 232 203 202 199 195 195 193 191 192 196 197 195 202 220 226 228 236 250 237 232 228 82 210 274 284 276

GFSSGP_2pvu_pres_078.txt.gz
Presure
202 188 175 161 172 137 74 96 162 94 158 158 149 149 141 119 141 148 136 137 133 138 123 114 116 119 131 123 128 132 114 131 145 101 108 111 124 147 97 123 121 134 130 155 153 145 148 150 146
188 184 196 169 169 86 98 105 124 76 121 148 113 99 107 135 140 138 125 133 139 125 139 149 116 123 97 129 122 112 125 123 108 157 151 96 97 99 153 144 139 142 137 138 148 145 131 147 113
137 189 162 149 142 165 88 127 169 75 102 125 161 150 145 141 126 140 141 133 139 125 129 138 125 120 125 109 120 122 116 115 120 131 150 146 135 151 109 149 153 147 147 151 151 148 122 110 130
214 190 163 178 143 163 167 84 136 77 165 129 147 133 148 91 103 135 133 133 138 143 123 120 136 122 130 144 110 97 123 142 149 133 150 98 102 163 167 111 108 147 148 146 130 108 111 122 107
228 214 196 187 148 168 164 169 84 122 86 143 132 80 79 149 77 124 135 130 138 146 142 142 128 133 138 141 119 122 168 145 120 129 131 204 152 131 152 177 126 128 126 112 116 110 122 131 151
189 196 178 178 148 187 170 161 168 134 143 145 128 126 148 119 81 120 84 117 148 147 134 96 141 139 138 148 139 145 119 108 114 103 178 127 121 157 183 179 179 177 153 137 114 147 110 108 116
244 211 228 184 151 171 201 177 157 168 148 85 157 72 85 99 79 114 130 144 152 140 107 144 146 145 138 141 154 143 146 152 148 166 149 126 175 126 126 111 113 112 124 130 112 112 148 138 110
225 205 166 187 185 181 173 193 166 156 158 165 82 108 91 90 156 78 155 84 89 152 139 137 137 146 156 155 142 148 159 115 151 149 142 142 141 116 141 140 138 143 99 131 103 98 128 132 148
227 115 143 209 156 202 147 72 174 143 169 163 167 96 131 86 83 167 162 136 131 110 88 148 144 131 96 128 140 148 151 147 142 149 147 145 159 123 109 134 101 90 119 104 98 99 123 151 154
227 252 224 99 103 144 138 176 209 161 154 168 164 157 121 117 104 98 79 130 82 96 103 109 155 101 150 148 133 150 139 133 134 148 143 154 143 108 98 100 89 133 118 131 119 152 143 134 144
260 273 194 153 123 84 200 182 203 178 149 154 168 161 163 142 158 127 95 72 144 83 148 89 141 100 136 98 94 138 148 150 136 143 113 124 142 140 132 141 100 124 141 107 141 157 139 125 149
279 327 229 89 90 100 190 194 179 205 170 171 162 157 159 158 142 147 142 90 138 144 154 144 138 149 102 123 138 136 123 135 151 147 137 109 143 109 101 119 143 141 147 141 140 142 141 115 149
330 336 244 216 216 160 200 178 174 184 194 173 173 97 154 154 151 151 146 150 144 90 126 143 140 146 137 138 139 142 146 142 124 158 150 148 147 127 146 137 138 105 148 147 149 97 147 148 133
312 324 339 224 230 224 190 192 200 190 191 186 178 164 161 157 159 155 152 149 149 149 143 124 140 85 83 104 82 139 142 114 152 154 147 110 156 140 135 149 140 158 155 141 134 131 138 142 153
325 310 304 234 247 206 178 219 214 190 181 200 179 175 159 158 73 158 158 152 155 149 159 154 83 151 152 84 112 129 131 133 136 140 141 83 154 152 159 148 145 128 79 104 145 147 149 154 144
321 303 368 239 196 217 209 198 189 191 213 214 185 173 167 169 150 159 155 152 157 152 149 151 149 116 142 152 154 152 151 146 145 145 152 101 144 143 144 147 147 141 138 151 153 152 153 157 156
323 312 302 285 221 210 214 206 155 119 185 164 209 141 170 157 166 161 162 168 160 160 162 158 147 142 143 150 143 142 141 150 155 144 143 147 150 146 143 150 149 152 154 154 153 156 146 158 146
322 319 300 372 224 214 201 205 197 188 204 91 169 195 166 147 153 155 160 162 148 151 161 155 151 153 149 137 140 146 146 146 145 147 145 149 145 144 147 145 146 144 151 154 149 151 159 143 149
299 316 274 342 383 219 216 202 199 180 189 133 199 179 192 165 160 171 151 168 159 158 149 150 150 151 150 148 145 142 144 142 144 148 143 144 143 144 144 152 150 146 151 147 162 150 147 156 161
300 303 307 279 346 253 221 210 206 195 111 192 204 212 177 161 180 180 171 168 158 157 160 160 151 146 153 149 148 125 148 145 137 84 147 141 149 151 151 153 147 151 150 143 152 153 157 159 165
284 300 306 269 323 349 224 214 219 207 194 166 193 204 197 167 161 188 180 170 163 163 163 162 159 151 161 155 146 150 150 151 151 152 152 150 152 150 143 143 153 145 147 160 154 164 158 163 170
276 285 301 306 298 301 321 218 213 213 192 175 165 167 202 187 176 162 185 179 169 169 167 163 161 159 160 159 158 157 155 155 138 140 144 150 148 147 144 155 156 156 160 150 156 142 169 168 159
272 280 295 299 274 284 333 316 222 217 213 190 183 197 153 209 175 190 182 162 164 179 176 164 164 163 163 167 166 157 146 150 151 153 151 153 164 159 159 137 161 157 146 163 165 164 179 169 169
270 275 294 290 301 271 287 272 323 230 220 210 187 195 202 160 193 192 172 189 177 191 185 172 168 159 156 157 162 164 161 159 160 161 160 158 159 158 158 158 156 162 157 155 170 158 172 178 172
279 277 296 292 292 285 282 279 344 275 269 223 209 201 201 204 214 154 192 198 179 192 190 185 174 167 165 166 168 163 153 161 169 165 165 161 164 165 163 169 168 168 173 177 176 175 165 181 184
271 285 274 284 282 287 311 328 125 319 342 276 224 209 206 196 234 205 209 201 199 191 198 195 189 191 188 185 173 169 167 165 163 159 167 167 165 167 171 183 183 181 172 177 180 185 190 192 183
276 274 281 270 297 297 304 325 96 324 276 322 300 259 210 209 182 180 153 154 195 193 201 205 192 192 194 188 186 188 188 190 187 185 185 185 182 182 181 180 176 181 180 181 188 188 185 203 196
286 277 266 284 271 302 292 303 323 348 336 280 271 348 271 264 227 193 186 222 200 204 205 199 194 203 202 190 185 190 193 190 187 182 182 180 180 185 189 185 183 182 185 185 188 194 203 148 251
275 287 277 290 289 293 300 330 339 300 313 343 279 290 284 358 322 308 229 194 207 205 205 208 208 200 194 189 186 189 189 187 181 184 182 177 183 176 177 177 183 187 191 192 199 231 258 252 246
168 277 281 282 287 331 303 303 298 326 350 361 321 285 271 276 320 306 314 312 232 233 234 208 205 207 203 200 198 194 189 189 185 187 179 184 190 184 190 190 195 200 201 207 247 253 250 236 238

GFSSGP_2pvu_pres_081.txt.gz
Presure
173 194 168 180 167 96 125 72 154 87 147 132 158 129 105 114 156 107 147 143 139 133 139 140 128 104 122 128 136 131 133 134 127 118 117 119 124 107 116 102 124 112 103 137 167 150 132 141 126
218 187 179 182 178 163 145 72 75 120 148 152 146 153 150 81 135 103 149 99 133 136 134 131 126 124 119 124 122 127 109 131 131 132 118 126 142 165 147 115 116 144 161 150 147 150 126 150 147
213 206 185 173 193 152 160 137 171 68 122 102 135 123 83 159 136 150 131 138 129 128 139 135 136 141 115 118 122 96 137 123 115 127 131 143 106 158 153 135 140 150 154 138 152 131 149 122 109
234 221 195 199 206 172 158 170 155 169 77 93 134 142 128 161 164 83 150 143 139 138 136 136 136 135 139 118 120 95 118 129 115 96 115 118 110 123 140 156 104 103 176 117 158 164 133 137 111
171 223 216 182 197 169 184 170 170 144 162 120 167 69 99 155 143 137 125 131 149 143 131 135 141 140 136 138 120 118 120 120 104 117 125 127 134 131 130 146 134 126 109 166 136 192 112 122 143
193 243 175 196 176 156 205 179 178 164 124 121 155 167 90 106 78 118 137 123 137 133 139 134 133 128 125 129 140 130 137 121 116 120 140 145 146 122 128 160 119 118 126 161 128 174 113 112 122
191 189 225 175 178 180 169 193 173 157 169 158 105 105 161 70 144 77 134 136 139 89 134 132 135 139 138 103 135 132 137 109 125 141 121 111 118 114 148 117 144 114 119 119 132 165 153 101 123
195 200 176 129 204 172 173 194 181 170 161 162 170 127 118 91 142 80 125 157 145 145 142 126 131 138 145 140 111 118 136 139 132 151 117 160 140 149 153 137 149 146 115 143 106 95 109 97 96
187 199 188 156 168 136 156 72 174 180 177 163 159 138 139 81 72 87 71 123 81 130 149 138 120 149 145 141 147 148 150 142 142 146 140 142 143 143 151 162 141 129 96 105 92 105 141 111 131
196 193 187 79 186 94 204 101 139 201 175 166 168 160 139 118 88 125 109 107 146 143 85 147 110 86 90 116 143 142 145 101 132 102 139 128 143 144 140 150 123 153 149 125 108 113 117 150 142
222 172 169 177 168 79 201 99 179 188 160 153 171 165 162 155 147 76 88 108 128 77 90 141 80 122 142 146 150 146 97 138 138 119 100 156 154 148 138 130 134 131 139 136 149 110 88 137 145
228 215 190 179 87 169 91 208 195 185 167 193 181 147 154 159 155 158 156 144 116 71 81 155 83 88 144 141 144 147 139 141 143 142 95 98 139 103 149 156 125 84 133 141 96 142 134 149 146
239 231 218 191 175 126 173 218 183 125 185 226 185 176 162 156 162 157 157 156 148 127 171 152 160 157 124 124 153 126 83 88 120 120 149 134 136 145 147 150 155 121 159 159 139 138 146 115 83
275 244 239 192 189 193 201 86 220 149 153 186 186 187 172 163 152 165 158 162 142 153 132 144 146 160 124 146 156 149 149 133 106 125 133 138 132 131 143 134 103 99 140 149 151 116 92 145 148
280 278 276 254 220 188 209 202 103 219 170 196 174 192 181 166 158 152 161 161 162 157 151 129 131 128 138 135 137 142 86 82 89 95 140 137 137 137 151 148 101 146 152 144 145 146 148 150 146
282 281 277 272 258 209 208 206 181 128 214 175 220 172 194 177 157 152 154 158 166 160 166 156 147 143 136 141 135 83 81 141 156 161 152 143 150 149 146 150 145 143 147 148 151 153 152 149 154
307 310 314 335 273 220 227 213 187 231 197 150 189 187 184 190 177 168 160 167 162 163 162 158 145 150 146 140 152 150 154 153 144 145 143 144 147 151 145 149 148 144 156 156 142 151 151 154 147
307 305 267 323 310 253 218 205 215 235 211 208 166 200 171 190 187 177 168 168 164 155 157 161 156 154 149 150 145 144 147 149 140 143 147 144 142 143 149 141 148 144 144 146 151 152 150 146 150
267 282 297 308 321 396 252 359 232 225 210 178 212 182 204 168 80 183 171 172 172 160 154 156 158 151 149 151 153 155 150 151 148 144 142 141 147 143 141 145 147 146 150 149 149 150 144 147 154
280 282 302 310 314 309 289 337 275 212 221 199 216 208 184 172 185 152 170 173 167 165 157 159 153 151 163 155 152 149 157 159 151 153 155 151 148 136 147 151 151 151 149 149 153 159 143 156 159
281 269 286 299 316 300 347 347 362 218 219 95 211 155 211 176 185 191 175 176 167 157 164 162 161 156 152 155 153 150 151 142 144 143 108 148 151 152 151 149 155 159 156 155 148 152 157 159 158
280 259 287 299 316 297 286 376 347 226 206 215 215 197 172 194 189 181 155 184 172 160 167 164 164 154 158 156 154 156 152 152 155 152 152 148 149 152 156 152 150 149 156 158 161 159 158 157 160
264 265 265 286 297 315 288 319 361 234 222 210 229 213 218 203 193 167 162 188 146 144 161 164 155 162 161 162 165 163 157 155 155 159 161 158 154 152 158 158 160 157 157 158 159 156 158 159 149
262 276 266 282 293 304 291 286 333 336 228 221 231 218 213 210 179 94 94 178 188 189 149 176 168 151 165 169 168 162 160 159 158 158 157 157 158 151 149 155 153 152 153 158 160 152 150 165 156
272 267 276 274 292 293 310 278 260 287 258 229 223 228 140 182 203 173 173 192 181 156 181 191 187 163 161 173 174 167 164 163 161 159 157 154 153 154 158 157 159 161 160 155 150 160 161 167 179
279 277 264 278 292 281 307 319 272 317 306 277 228 228 224 213 201 141 179 182 183 187 188 185 178 169 167 188 186 176 174 173 172 170 168 161 155 153 160 160 158 160 160 159 164 172 179 172 179
288 274 269 267 275 284 290 309 306 274 291 346 283 234 226 219 215 204 180 157 172 179 183 192 184 178 183 197 192 183 185 185 188 183 177 173 168 162 164 167 174 180 184 178 175 177 187 186 183
278 273 262 279 274 279 273 292 302 307 283 289 239 301 276 247 214 207 204 192 184 172 168 161 157 179 189 189 186 183 183 173 177 191 187 185 183 182 181 181 180 178 178 185 187 184 181 181 183
278 284 267 270 270 271 283 285 284 303 317 304 265 246 331 336 328 219 209 210 205 191 187 190 194 205 203 206 197 195 198 197 191 186 187 190 188 184 180 180 183 182 182 182 179 183 187 193 197
291 268 270 277 280 273 269 277 127 283 312 321 323 256 276 272 388 298 295 216 212 208 198 154 191 195 200 218 196 200 203 189 187 198 196 188 182 182 184 183 185 189 191 190 188 196 193 233 233

GFSSGP_2pvu_pres_084.txt.gz
Presure
186 185 184 175 106 84 81 83 71 91 166 105 165 144 116 107 91 114 137 145 136 95 132 122 120 121 114 119 121 142 122 111 120 130 132 140 110 113 128 102 143 160 151 134 128 157 164 157 140
214 126 187 185 185 182 157 108 113 135 123 166 155 154 152 176 152 116 131 154 145 127 136 138 134 121 116 101 110 141 123 120 123 117 131 139 119 131 109 123 125 109 104 103 157 121 146 150 154
178 232 209 206 196 137 155 164 79 84 173 168 162 155 147 115 141 169 124 131 131 142 127 136 130 137 132 141 127 116 126 127 127 115 121 129 116 130 101 102 121 142 140 146 134 159 174 110 143
229 189 229 196 202 154 175 177 176 89 114 141 161 125 124 83 81 84 110 99 155 135 146 136 137 136 141 125 124 129 117 125 126 127 128 121 123 118 109 115 123 147 135 115 152 131 128 169 130
249 192 233 98 194 182 169 184 181 175 162 72 78 148 77 157 143 145 96 136 140 145 149 148 139 135 134 127 136 127 114 115 121 115 130 130 126 121 123 119 125 128 104 104 122 122 102 167 172
247 194 204 180 166 193 185 171 194 177 173 158 132 126 125 113 153 151 161 124 118 144 133 92 132 134 138 138 137 139 138 123 120 118 120 123 122 109 125 141 142 125 125 121 118 123 111 124 122
242 271 186 139 157 206 177 189 196 178 162 158 151 118 76 87 130 149 151 161 104 151 142 116 141 143 127 105 141 134 144 140 131 124 116 118 119 121 119 110 120 118 136 143 120 125 160 104 133
191 268 195 201 149 184 155 194 172 209 186 161 170 156 80 75 71 147 80 149 79 158 166 127 134 95 141 139 139 99 133 122 121 138 132 141 105 126 149 136 142 113 150 155 176 143 124 89 105
198 196 250 173 214 137 105 196 100 178 197 175 163 165 101 101 76 76 94 105 143 102 119 96 129 139 107 140 129 134 135 141 126 115 130 134 136 145 123 147 150 134 111 145 125 93 115 98 127
225 149 185 187 132 112 99 85 192 186 179 177 168 170 167 170 126 134 78 124 122 75 77 135 139 137 137 121 127 130 131 138 144 140 111 131 148 143 124 98 139 123 138 152 142 122 98 134 138
212 223 174 173 182 184 237 217 195 187 205 178 189 176 172 166 164 158 85 74 123 75 132 79 78 122 146 92 97 83 132 104 142 147 145 94 145 149 140 144 148 158 133 135 131 141 134 144 154
237 217 195 186 174 184 169 80 90 182 164 174 155 177 167 174 161 87 148 149 94 88 80 77 85 81 140 82 142 87 137 142 154 157 141 148 147 110 146 101 143 128 147 151 138 157 106 150 103
254 234 221 196 115 85 186 245 173 137 170 140 202 182 165 170 162 158 164 147 77 87 109 84 77 73 83 82 147 83 141 150 130 153 152 149 151 146 137 143 136 143 143 142 144 87 114 111 95
270 244 231 207 64 191 159 187 236 169 149 176 151 211 176 165 166 166 158 160 153 152 161 164 130 125 163 133 111 152 83 83 95 140 82 127 150 84 145 134 141 115 131 94 82 129 141 132 133
283 264 238 232 199 185 191 178 189 178 175 203 192 166 77 179 167 145 162 162 155 161 151 161 154 142 127 158 168 147 148 167 158 146 83 82 112 146 148 148 131 141 136 148 146 152 148 145 145
306 294 262 242 120 203 196 192 183 162 119 171 207 177 185 186 180 162 155 166 168 157 161 158 155 161 150 138 127 148 148 164 162 159 76 95 86 130 150 151 127 156 150 147 148 144 142 143 140
307 310 281 258 146 218 206 179 189 111 104 178 211 203 149 183 169 191 165 167 171 157 154 162 162 156 157 154 149 131 131 135 142 142 143 141 148 145 144 146 154 145 155 159 152 140 145 152 155
320 290 290 274 251 236 215 65 196 126 177 176 177 162 200 169 178 177 190 192 181 170 162 153 160 164 166 159 160 160 152 140 144 143 146 152 151 155 152 151 142 151 145 145 151 151 148 151 144
269 283 272 269 264 240 241 216 206 193 64 182 239 198 215 187 175 177 169 191 182 180 171 163 157 153 150 155 155 151 150 146 145 152 153 144 142 144 146 151 155 155 152 153 144 158 157 149 155
270 278 284 278 275 266 259 242 228 205 190 154 190 194 229 217 188 179 174 185 167 181 187 171 154 150 155 151 164 149 157 159 159 155 157 151 155 158 161 160 156 144 145 152 147 147 157 153 152
287 263 261 282 277 306 270 274 272 240 204 199 186 202 202 227 209 194 178 200 177 178 190 182 172 160 158 159 158 161 157 156 154 153 149 158 159 151 145 145 149 146 154 154 161 148 155 155 161
267 275 288 261 281 264 304 272 327 273 264 208 202 192 194 192 104 212 184 171 162 171 172 188 179 171 161 156 155 156 154 155 152 160 162 152 151 158 163 156 159 156 153 153 157 160 153 146 160
275 276 300 285 285 269 312 279 329 344 262 254 220 170 193 209 195 239 196 183 154 189 171 159 185 177 168 168 160 165 139 161 152 145 151 154 156 158 160 161 159 152 159 162 154 160 146 157 157
296 286 281 286 274 267 295 310 262 312 351 291 235 219 211 205 220 212 182 197 187 178 193 178 171 184 182 171 171 164 152 147 152 162 161 163 158 159 160 161 165 157 157 160 159 158 160 161 161
295 289 276 279 264 282 274 306 310 305 321 313 242 230 84 211 220 165 228 197 197 106 166 182 173 186 159 179 146 171 166 163 160 149 150 149 159 168 168 158 160 153 156 160 165 163 164 168 164
293 292 283 279 249 257 243 297 307 321 283 286 291 323 258 290 239 231 225 236 198 196 187 180 133 89 184 176 178 173 167 165 164 162 165 168 158 158 157 159 173 174 148 162 170 167 170 174 174
286 292 284 272 276 269 266 264 290 311 309 281 294 331 342 277 279 237 233 227 103 204 192 182 213 181 177 181 186 185 185 181 175 174 171 165 167 164 163 169 173 164 170 169 163 163 177 178 181
289 278 283 281 277 258 270 260 287 292 312 288 290 302 351 287 280 274 234 226 225 225 212 184 173 187 197 184 176 170 168 176 161 186 177 175 175 162 173 179 171 166 176 164 176 175 175 174 171
283 284 276 280 278 263 266 261 251 288 293 310 317 280 283 290 288 289 273 231 226 222 226 165 188 180 174 210 186 188 189 170 174 180 182 181 181 178 180 186 183 179 176 180 189 181 182 188 190
277 292 268 282 270 258 261 262 259 279 282 286 304 301 270 280 304 294 291 281 233 223 218 215 193 188 174 173 176 177 180 183 184 163 151 151 143 184 146 188 188 188 191 183 191 197 192 186 196

GFSSGP_2pvu_pres_087.txt.gz
Presure
190 215 204 189 199 169 184 134 79 74 167 151 91 91 134 143 107 148 98 103 105 139 112 100 130 127 119 129 132 105 111 129 126 113 121 126 129 132 130 114 110 105 106 132 145 140 107 164 117
194 163 213 205 156 126 172 172 137 149 72 117 171 162 101 145 155 156 90 97 145 100 127 124 106 125 134 129 149 111 133 124 128 123 122 121 128 123 132 132 112 108 149 123 115 110 147 147 158
210 194 201 215 202 178 149 198 74 85 118 141 128 115 115 129 152 116 122 108 94 117 112 133 122 140 129 121 127 119 118 104 121 148 123 143 113 126 125 118 120 110 109 112 118 154 115 136 132
138 211 196 209 208 191 160 182 197 107 85 178 164 144 88 147 146 161 162 90 158 171 142 99 121 134 127 129 124 124 114 123 130 141 126 125 127 124 119 120 132 106 111 110 140 129 126 144 122
214 177 215 208 218 108 182 168 165 190 82 82 70 89 143 166 150 137 137 166 120 129 122 102 144 133 140 137 133 134 136 126 132 117 116 112 124 125 134 124 124 122 124 124 126 126 126 136 116
204 206 207 191 144 216 197 185 181 185 167 189 167 86 158 80 83 148 152 140 183 152 131 119 107 122 112 140 130 137 135 141 135 126 116 117 118 125 128 129 122 119 122 126 140 122 112 155 117
223 198 206 185 212 208 205 197 188 188 179 192 186 136 105 73 74 161 159 159 142 143 164 134 141 145 92 140 128 115 142 135 120 129 123 120 117 120 119 117 112 114 122 130 118 112 117 129 153
213 186 203 188 228 205 174 206 103 187 168 211 170 170 171 73 78 113 168 152 150 159 143 153 141 143 151 150 128 137 137 137 137 135 135 141 142 138 127 113 138 151 118 111 135 120 103 132 111
187 203 174 173 206 217 98 217 189 200 194 153 171 189 145 166 98 109 73 141 135 157 152 107 136 119 135 135 136 140 96 140 136 138 114 137 135 109 120 135 128 107 149 96 143 145 133 131 111
201 213 179 221 170 234 217 194 229 170 200 179 179 205 167 158 153 160 94 82 132 156 77 151 158 145 113 147 122 110 147 141 137 134 131 132 135 118 140 143 121 143 154 143 144 127 142 142 143
230 172 190 176 176 86 155 191 233 210 144 175 180 192 181 168 167 158 160 83 80 134 85 87 145 158 161 161 167 94 132 134 129 128 133 98 88 133 145 133 94 146 107 139 94 151 141 112 140
228 191 178 183 180 181 257 209 81 135 90 164 186 173 191 173 151 157 152 161 77 148 93 169 91 79 131 86 108 147 127 91 137 126 127 127 134 140 151 152 144 144 145 151 154 149 139 135 124
215 229 185 186 225 136 163 219 197 210 170 207 93 182 187 185 163 159 167 157 150 155 155 78 81 105 152 78 152 83 113 87 141 83 134 131 133 139 144 156 126 124 150 152 117 151 137 107 118
257 211 205 187 189 212 195 189 252 193 201 191 94 108 176 183 168 161 160 165 171 132 98 139 132 72 76 88 77 139 150 84 83 83 82 109 100 88 126 84 84 116 150 154 151 140 137 135 143
283 246 221 195 199 190 87 118 180 195 206 169 211 128 150 174 198 108 170 174 163 161 159 170 78 84 140 89 145 83 81 94 143 84 80 97 139 128 89 82 106 155 128 113 135 144 148 146 152
306 284 252 210 81 80 206 199 187 182 188 199 235 137 182 149 196 171 161 160 164 166 163 161 163 164 154 167 169 130 127 152 161 162 162 145 149 134 158 160 96 101 149 144 155 150 146 156 148
308 298 291 260 236 157 204 215 197 133 174 199 244 207 176 177 184 207 173 167 135 165 166 161 162 160 164 146 149 156 145 143 140 130 123 139 152 159 158 149 145 155 144 152 131 157 154 143 158
295 334 300 271 254 235 216 206 61 196 169 177 191 83 172 185 134 198 136 189 174 160 159 159 159 165 165 160 158 158 154 155 159 157 148 144 131 130 130 133 134 137 145 143 144 142 163 156 138
285 290 288 277 260 249 240 228 211 203 62 66 174 84 215 167 108 178 185 197 185 172 168 161 162 158 162 159 164 158 160 160 159 159 153 156 159 151 165 157 151 152 152 158 155 154 145 157 147
284 264 300 282 276 262 251 238 229 209 200 193 194 171 228 202 161 165 166 130 202 185 175 166 167 166 163 157 159 169 157 158 161 156 158 157 152 150 155 156 153 153 150 158 164 166 148 155 164
293 284 262 271 279 299 263 250 241 226 205 195 190 187 175 216 204 159 192 180 186 173 196 178 170 177 170 123 166 165 163 153 165 148 149 157 162 163 151 154 154 156 144 157 149 154 159 157 158
296 284 267 268 286 277 301 267 252 245 219 201 197 189 184 175 222 209 161 202 169 180 178 182 180 185 179 177 169 173 178 174 160 165 159 150 157 152 156 157 152 161 158 156 159 157 157 152 163
286 267 274 275 264 298 276 281 263 252 247 217 204 203 187 187 181 179 167 212 206 193 172 170 186 170 197 183 179 185 185 180 175 166 147 161 153 156 153 165 172 154 168 161 159 156 155 160 159
301 280 274 278 266 269 285 282 270 261 258 250 221 207 204 197 188 138 180 162 216 205 194 181 178 177 181 173 172 184 189 152 177 176 170 166 161 152 151 153 148 164 157 155 144 154 159 157 155
308 318 284 273 304 258 265 272 277 270 266 265 250 231 188 203 198 194 188 185 219 205 214 199 191 185 179 160 179 176 171 175 184 176 175 136 171 160 169 166 161 165 146 152 157 170 158 157 162
312 312 321 270 265 266 270 281 282 273 300 319 271 267 242 221 207 203 200 192 155 145 229 171 152 197 190 187 176 151 182 183 167 171 156 179 179 171 160 149 154 159 168 169 168 169 167 168 169
301 310 289 296 271 265 273 283 282 280 266 322 293 286 282 277 253 220 212 208 202 190 173 194 181 174 201 200 189 183 177 184 188 175 170 184 182 152 176 174 169 169 170 167 165 175 175 157 165
299 304 292 291 288 280 274 272 265 274 275 307 321 293 293 349 286 263 245 222 162 213 203 178 201 185 231 219 200 188 185 180 154 164 178 173 175 184 184 175 177 180 154 180 171 177 176 175 172
291 288 302 285 280 266 256 273 264 260 268 265 301 296 295 302 287 293 253 245 246 249 232 222 192 204 195 219 217 193 188 204 188 185 185 177 179 162 169 167 173 169 183 179 172 143 179 180 179
296 298 280 281 270 266 263 265 260 276 272 252 266 289 309 283 289 334 285 290 292 259 236 238 230 204 204 204 235 211 196 186 213 180 178 180 193 189 178 180 176 176 188 185 170 160 183 146 181

GFSSGP_2pvu_pres_090.txt.gz
Presure
125 206 188 208 204 178 206 183 72 76 141 99 97 111 106 106 94 89 91 84 94 150 93 105 114 108 91 118 98 99 89 123 136 111 141 121 123 126 112 132 130 113 124 118 108 108 118 108 123
170 179 209 158 207 173 203 185 163 181 146 125 108 84 93 87 102 89 100 160 100 141 98 154 94 121 121 121 133 142 128 119 129 120 125 129 107 124 127 132 123 151 137 115 106 102 125 119 144
127 197 203 182 201 179 176 175 107 187 160 156 83 89 129 126 130 103 156 121 155 108 100 101 134 89 102 139 107 131 128 124 116 127 126 125 113 124 126 121 123 127 123 125 109 113 122 129 135
120 123 213 197 190 206 195 181 167 182 189 176 174 73 139 125 130 151 102 153 148 148 172 125 95 140 131 103 140 106 146 148 125 113 120 120 127 146 98 149 128 123 117 122 130 122 124 127 124
243 190 159 202 187 187 208 171 201 177 176 177 110 157 153 118 128 135 153 99 144 161 145 157 135 111 119 122 111 132 128 126 130 125 122 123 123 131 124 120 125 123 130 130 126 120 122 127 143
206 214 212 160 192 195 197 206 196 194 158 134 175 118 158 73 83 164 112 166 131 117 161 168 149 147 132 117 113 140 139 131 129 130 123 126 133 124 129 118 119 120 137 129 115 121 117 113 111
234 216 196 137 201 187 194 197 206 191 174 159 189 154 152 143 72 95 82 134 149 132 109 162 164 147 131 134 148 133 108 122 132 135 130 129 119 118 126 123 120 118 120 120 127 127 114 107 139
218 224 220 186 199 197 166 201 214 203 112 158 189 185 172 152 90 122 83 153 127 151 99 158 127 124 155 142 127 121 132 139 120 131 133 131 139 106 121 124 122 122 139 141 132 136 132 149 145
223 205 233 196 180 176 179 178 126 209 199 183 200 179 182 177 169 167 77 78 156 111 154 160 136 145 124 120 139 140 142 137 137 135 97 141 135 132 140 140 136 140 136 116 118 110 132 161 150
267 222 222 82 144 197 211 205 213 211 181 195 132 186 176 180 173 169 162 129 74 115 111 151 83 132 143 121 97 134 139 146 146 142 127 124 139 135 137 139 116 133 133 138 122 137 139 149 148
283 214 198 175 184 98 81 197 210 214 210 199 176 182 179 165 182 171 162 153 155 118 142 95 113 140 90 161 148 146 153 151 140 134 128 138 139 111 133 133 113 98 133 135 143 141 93 143 157
283 245 213 191 170 196 200 204 103 204 145 122 195 187 193 183 169 180 166 161 158 166 159 77 76 112 137 156 155 145 134 136 135 133 98 91 136 129 136 128 132 96 129 133 125 156 150 122 112
291 271 238 221 248 185 123 191 119 214 201 206 218 183 166 178 186 178 177 167 163 163 152 104 152 94 76 122 93 123 125 81 124 160 143 131 94 129 125 125 124 126 130 105 94 149 153 152 147
291 270 248 225 179 208 203 190 211 159 211 221 200 221 163 187 164 201 162 177 168 157 161 167 116 128 128 114 159 79 141 142 76 134 86 100 118 97 137 128 117 136 105 83 140 147 152 129 145
295 287 260 195 202 207 191 206 170 216 179 205 220 201 209 89 93 184 180 177 176 168 160 151 167 113 154 147 78 76 74 148 85 88 154 74 85 82 81 81 120 99 83 105 163 161 148 145 146
299 295 274 227 194 197 214 178 214 178 180 199 234 185 221 159 192 174 107 177 181 169 140 167 153 155 89 95 115 100 120 101 85 99 98 149 150 94 147 141 146 160 168 163 152 164 147 150 142
306 302 283 261 218 198 204 74 190 179 180 179 221 224 187 190 114 187 179 182 189 179 168 151 160 164 165 159 145 147 159 154 164 167 153 127 127 140 141 159 153 149 146 150 147 144 145 133 141
136 312 127 267 239 213 193 211 189 112 210 108 180 250 188 199 166 196 183 174 155 186 173 168 161 159 158 161 158 166 162 157 164 154 156 150 139 136 139 140 129 131 133 132 130 131 137 152 144
305 307 295 265 253 224 207 193 217 183 184 226 186 136 236 186 216 167 195 188 179 188 183 168 167 163 164 167 165 165 162 161 159 156 150 161 152 162 153 151 154 156 150 147 145 152 144 144 152
323 294 296 278 264 245 223 210 216 210 190 183 158 153 170 179 78 198 183 202 189 176 182 179 169 164 163 162 164 165 169 168 162 161 161 156 157 160 158 152 156 155 153 153 154 161 155 153 156
299 285 288 297 273 258 236 222 218 197 189 195 183 191 177 169 133 87 133 207 197 192 168 188 188 175 161 166 167 164 166 166 168 165 161 160 161 165 168 156 159 156 152 153 156 150 155 156 145
310 282 284 278 288 276 255 236 216 211 202 198 198 193 191 179 169 176 208 231 114 197 181 182 194 186 168 166 163 169 175 163 164 169 170 166 169 162 154 158 155 141 151 149 158 154 149 153 163
309 282 270 264 296 285 279 259 253 227 220 207 203 200 207 241 245 169 172 224 221 205 154 173 175 201 183 165 156 169 172 171 164 166 168 170 157 166 165 168 156 169 163 143 169 164 147 158 167
361 282 273 269 274 284 298 274 264 249 242 233 221 209 207 209 186 179 175 170 179 216 204 187 174 168 202 168 166 185 177 165 173 173 171 171 175 170 173 185 181 179 176 168 158 151 170 164 164
367 285 280 296 267 268 290 277 278 262 253 251 245 226 220 210 205 189 177 178 173 167 207 205 189 184 159 174 172 202 184 184 168 178 164 176 176 187 176 181 188 188 176 132 167 171 170 153 160
336 311 286 282 274 254 264 304 270 274 278 264 262 253 171 223 209 198 228 182 182 184 167 210 207 171 191 187 181 180 185 199 184 165 187 189 169 175 168 165 138 153 165 155 139 176 142 170 157
328 330 302 300 283 271 253 247 257 287 278 287 286 269 256 236 219 212 198 186 186 182 182 180 176 191 169 162 176 187 182 187 185 130 172 132 168 166 169 158 172 180 179 141 161 160 172 167 173
338 309 321 286 261 276 268 272 244 271 276 280 289 283 279 266 254 221 212 204 194 191 187 185 180 177 182 197 201 200 191 181 180 192 188 183 181 181 182 174 169 172 169 185 180 176 175 166 151
308 320 304 292 280 277 260 277 262 248 260 270 276 283 281 275 272 263 210 217 209 201 197 195 194 192 184 181 171 161 207 205 203 199 199 199 192 186 176 184 173 176 184 182 183 171 163 174 171
309 324 324 281 277 284 278 255 268 266 268 251 297 266 274 278 318 295 273 260 235 215 208 203 203 200 199 193 191 194 178 174 214 211 209 200 202 197 190 191 168 177 182 181 184 180 178 175 185

GFSSGP_2pvu_pres_093.txt.gz
Presure
157 184 128 155 128 194 190 174 100 182 111 98 92 93 99 92 97 111 95 92 127 88 95 96 140 161 110 134 95 89 90 115 141 108 140 120 141 139 117 124 129 107 131 135 110 137 114 108 114
149 166 136 165 159 207 196 179 172 113 148 113 140 108 100 93 88 87 94 91 95 102 87 94 90 96 132 121 115 110 125 128 143 117 110 143 131 129 126 112 129 135 134 130 141 114 130 118 115
136 129 154 160 159 172 188 211 148 174 155 77 102 76 103 104 90 145 129 104 95 94 99 103 103 137 97 98 127 123 132 110 144 139 131 121 128 89 127 126 125 126 127 123 122 118 116 119 124
126 182 186 164 192 164 190 207 202 190 170 72 81 172 86 128 98 97 94 96 98 97 102 106 162 123 161 124 99 136 130 141 106 139 133 142 123 118 124 129 138 140 133 136 136 125 127 128 119
190 193 201 158 171 166 169 182 190 143 201 196 85 167 87 166 141 92 112 102 146 148 88 85 143 136 122 162 119 101 136 143 132 112 144 134 120 125 131 125 123 123 114 115 123 119 130 113 118
224 214 152 182 182 136 185 188 188 195 184 202 189 187 152 145 155 134 113 82 163 123 114 104 103 148 168 118 154 143 106 133 152 141 125 120 122 130 121 123 133 138 139 121 119 112 121 102 118
203 220 157 161 195 177 170 181 191 191 213 182 198 176 175 99 150 114 85 134 120 115 101 153 154 156 130 135 125 140 151 107 111 115 128 135 131 132 132 130 125 119 117 130 122 116 119 119 108
263 217 178 201 199 189 182 183 196 170 202 173 210 177 192 169 165 151 148 143 138 150 141 155 141 150 124 153 130 158 158 130 92 128 118 138 114 119 131 124 134 134 124 119 119 118 139 142 122
227 254 220 202 184 197 156 183 132 195 190 213 170 174 171 182 164 172 117 131 138 139 142 143 80 137 141 95 142 143 136 159 107 130 137 138 143 131 133 118 131 133 135 131 141 140 136 131 134
259 274 266 214 187 128 198 136 179 185 187 197 201 186 172 177 183 170 169 166 130 81 130 87 139 149 132 89 159 148 144 163 124 123 124 127 134 138 136 120 135 140 135 115 138 138 130 134 130
273 250 211 228 207 191 208 199 185 195 193 183 199 183 199 185 152 184 169 167 155 121 166 80 143 111 143 153 159 159 103 110 145 89 147 94 141 135 138 132 138 126 89 104 123 127 129 133 131
302 276 256 267 241 203 151 200 135 186 189 179 190 199 200 174 182 146 170 173 157 77 145 87 156 158 135 81 88 154 135 129 133 134 125 127 144 144 97 96 128 135 140 136 132 127 122 127 128
309 283 261 274 263 236 216 197 208 75 190 202 195 190 198 196 165 140 158 175 149 170 155 75 157 151 77 78 151 77 152 152 139 165 166 139 137 91 151 139 132 142 143 111 115 133 130 83 83
307 294 274 211 272 247 215 212 207 191 188 150 199 193 198 200 189 181 171 180 175 169 146 170 164 160 120 162 142 77 82 78 78 76 150 77 134 94 117 83 83 82 82 102 142 132 143 100 111
314 299 286 277 282 263 236 197 212 206 145 101 199 155 190 202 199 186 166 194 161 173 176 173 171 167 96 82 149 82 78 156 108 72 82 96 151 77 156 128 85 84 85 85 137 147 153 144 158
316 299 287 278 282 274 250 195 206 82 194 189 194 197 189 186 202 198 173 160 191 185 167 177 174 170 162 160 155 164 156 97 97 78 85 122 123 86 93 148 96 153 150 151 149 145 143 165 152
311 308 291 280 282 272 262 235 219 207 113 189 179 192 196 189 186 194 195 92 135 185 175 167 178 176 173 134 153 152 114 156 134 130 82 143 121 135 171 153 146 135 126 138 150 159 162 152 132
303 313 295 279 277 277 266 238 218 220 223 196 183 181 188 197 179 192 196 194 169 107 179 191 174 168 175 172 159 140 144 154 152 158 159 163 154 145 146 148 157 159 161 158 151 136 142 143 155
322 310 158 280 277 277 255 257 237 218 225 237 199 162 187 189 202 194 196 195 201 172 177 177 173 183 176 176 174 166 167 152 151 156 164 151 146 143 160 159 147 169 156 154 155 156 153 154 157
312 344 291 283 280 273 258 249 243 229 213 245 196 188 148 171 198 197 203 206 199 191 175 184 173 182 188 157 178 166 153 153 145 163 157 153 154 162 167 162 160 161 159 161 156 160 156 149 157
315 295 295 288 281 275 260 253 247 237 188 216 233 190 151 163 169 180 188 210 194 207 143 185 189 162 220 182 168 173 169 168 163 161 161 165 171 169 163 168 168 160 163 163 158 154 154 152 153
319 295 288 291 280 272 265 254 249 244 215 190 180 221 172 175 171 188 174 201 218 139 216 190 175 181 182 168 200 178 179 172 168 161 163 166 162 166 166 172 177 169 155 168 151 141 141 171 168
331 301 287 340 277 274 265 260 248 250 244 212 194 180 210 194 181 191 174 178 208 94 90 213 196 194 185 180 167 172 178 178 181 168 169 169 160 157 186 168 177 181 175 160 154 180 170 171 179
342 303 290 325 272 283 272 261 256 250 240 225 211 195 195 184 179 181 214 182 170 231 222 183 111 156 179 193 183 177 162 164 181 183 173 175 174 168 165 170 171 176 185 154 173 142 165 162 186
325 300 291 316 276 274 310 266 255 250 242 233 221 214 203 200 199 177 177 211 184 172 230 173 183 212 175 175 194 182 179 168 177 189 182 185 187 143 168 175 146 179 191 182 166 163 182 191 185
324 318 285 284 281 283 309 272 259 254 250 242 238 226 214 208 216 192 192 180 184 189 179 172 164 171 209 225 188 192 181 173 168 186 187 170 188 184 172 176 177 189 186 188 188 174 169 162 162
351 304 302 286 283 278 271 269 277 267 258 252 243 233 225 213 207 206 193 187 185 186 192 181 175 165 169 164 223 201 194 188 174 164 158 153 150 188 160 171 168 158 187 187 143 166 132 161 177
314 307 328 302 274 262 265 261 274 278 273 267 267 248 240 232 219 208 202 200 198 198 194 193 181 179 172 170 160 182 202 196 192 180 177 180 178 181 188 184 180 178 171 176 166 172 170 171 168
329 326 343 303 281 279 254 270 243 266 279 270 266 268 272 269 253 238 223 214 210 203 202 201 197 199 183 176 176 170 161 152 202 199 192 181 169 172 179 153 179 183 188 177 186 176 179 177 178
330 323 342 285 272 269 254 255 250 251 266 267 263 265 273 279 288 279 261 247 231 219 212 213 208 201 195 232 188 182 180 177 172 195 193 193 166 180 185 173 190 190 189 189 188 183 130 187 170

GFSSGP_2pvu_pres_096.txt.gz
Presure
194 160 129 140 154 153 95 185 190 81 82 179 150 93 90 93 135 129 94 85 89 92 91 93 90 111 95 88 121 143 110 116 131 110 123 105 105 134 124 131 133 120 124 126 134 135 107 130 127
133 174 142 132 145 120 140 186 197 189 101 166 84 128 92 90 90 89 95 96 107 108 132 86 122 88 88 90 93 126 93 123 96 125 123 124 141 118 143 118 134 123 106 123 108 127 126 124 116
130 130 152 151 129 143 143 141 198 184 154 71 110 123 95 92 91 90 91 96 95 93 97 95 85 94 88 94 140 95 94 99 123 111 140 113 139 129 135 121 127 122 126 129 126 127 134 135 124
226 139 155 162 157 148 152 157 196 199 185 188 85 68 71 77 109 138 97 102 99 102 172 81 94 94 105 104 94 111 148 135 121 134 97 123 141 139 125 145 125 124 131 121 130 138 112 122 119
149 123 166 175 164 155 159 101 144 147 187 177 181 161 83 72 91 90 106 107 91 120 99 100 92 137 108 90 116 113 165 107 96 97 127 114 137 118 127 135 117 137 124 121 132 136 134 138 115
158 133 166 130 181 138 142 138 150 153 187 201 178 191 184 186 80 134 88 108 103 111 91 102 104 83 108 128 103 110 161 145 113 108 105 133 135 130 129 128 137 122 132 133 125 130 119 134 125
278 261 203 135 136 140 118 151 79 147 150 188 187 142 176 187 72 124 168 90 90 87 112 101 102 100 132 161 112 95 158 174 122 167 123 139 113 108 131 127 146 146 133 133 133 129 130 132 129
135 257 252 97 139 181 179 173 138 167 124 195 204 181 161 170 181 81 142 156 84 84 131 101 104 110 137 149 112 154 141 107 164 123 102 137 135 127 127 115 119 123 125 129 126 131 130 139 126
166 108 228 190 186 157 152 96 149 158 163 105 195 198 185 144 186 180 189 176 76 101 97 160 150 101 125 153 101 110 104 150 94 146 148 114 137 130 131 131 120 128 109 134 133 132 107 140 132
178 177 266 197 191 192 191 185 86 125 170 172 184 134 159 175 183 171 197 181 147 77 155 114 166 159 121 113 140 158 156 118 129 153 133 139 109 104 106 122 123 132 145 138 135 104 88 124 122
303 152 96 228 189 187 219 201 191 177 163 177 179 172 181 185 178 185 208 183 180 159 151 151 159 149 93 80 143 161 86 153 122 144 143 148 165 142 126 115 125 126 134 133 138 140 138 135 135
308 292 254 261 227 197 238 192 76 192 178 167 176 180 190 193 176 204 192 194 179 175 171 154 109 150 83 86 165 91 146 173 154 138 123 144 157 162 135 97 152 144 133 115 140 145 137 128 140
144 231 289 264 270 260 238 180 213 197 182 185 174 168 183 187 199 169 208 192 192 182 172 171 165 157 157 157 160 147 90 79 156 129 114 167 133 134 142 128 131 95 105 140 125 122 115 103 82
212 258 281 285 265 246 256 233 214 193 197 144 181 133 185 191 186 198 168 180 160 178 178 175 172 153 155 151 149 151 169 153 78 151 90 159 126 154 77 90 78 106 131 116 83 80 83 87 145
163 162 288 288 267 258 274 257 233 91 198 199 175 179 180 183 190 129 197 168 162 191 158 145 172 168 163 85 136 136 144 154 124 131 82 81 77 72 83 84 84 153 83 84 83 145 154 158 152
309 297 289 283 272 262 256 260 234 132 186 192 186 174 174 182 183 188 145 200 151 174 165 165 153 163 171 166 139 147 151 91 159 116 162 111 160 144 156 118 97 79 141 95 112 144 150 144 135
338 303 292 277 280 271 272 254 264 250 218 163 186 189 173 177 177 181 187 191 196 177 170 180 175 168 161 172 165 170 166 163 157 151 157 148 152 157 156 125 102 146 172 133 171 179 179 173 169
340 344 306 289 278 282 266 262 248 252 266 168 203 192 184 181 172 180 184 185 192 189 186 173 183 170 166 172 174 170 162 168 164 162 154 155 156 157 97 134 148 151 147 143 142 146 149 149 154
337 336 337 286 276 286 274 241 257 242 255 251 236 203 193 178 180 181 118 187 187 192 189 187 172 169 188 179 173 170 168 170 152 168 143 139 139 144 154 160 162 162 147 158 147 144 160 160 163
348 336 334 312 288 288 279 263 270 248 256 261 254 231 191 189 184 174 184 184 183 191 119 197 189 117 139 181 195 181 173 156 158 168 167 171 171 164 154 151 158 150 161 160 155 162 167 167 164
323 340 289 320 307 294 284 268 268 264 264 255 254 245 207 192 138 153 155 187 188 183 195 185 198 193 178 173 169 173 188 175 163 168 177 162 160 162 167 157 169 157 163 167 152 172 178 166 165
332 313 331 310 308 300 284 268 270 268 270 259 282 250 210 170 196 187 173 174 185 186 187 198 194 185 197 185 171 142 176 175 182 165 138 172 166 168 172 170 172 171 176 172 171 167 175 172 168
338 315 322 306 298 290 285 277 264 271 264 252 254 253 237 197 190 223 176 180 181 164 189 189 187 191 191 192 209 176 160 172 172 164 173 179 163 159 164 171 158 169 169 163 192 191 182 175 186
328 363 314 317 286 287 281 282 276 270 258 263 259 243 247 229 187 212 224 189 161 175 181 187 193 199 194 204 190 184 194 161 170 174 179 154 149 183 179 180 175 179 181 181 182 180 176 172 171
331 331 327 295 285 280 287 286 279 275 265 261 255 252 252 241 212 210 186 211 190 164 165 167 188 194 193 194 204 180 195 211 142 172 179 178 177 172 169 174 175 175 179 175 194 175 178 146 200
325 351 321 305 287 287 293 292 279 279 266 264 255 249 251 238 192 224 210 160 181 192 186 168 169 183 169 192 198 208 168 183 213 191 158 170 186 180 180 184 196 199 179 176 166 164 194 165 171
309 316 326 350 310 284 288 285 274 276 263 264 257 252 246 243 244 188 188 170 223 211 176 178 170 168 181 171 172 199 209 178 165 197 159 159 171 173 178 177 176 175 180 148 152 160 155 171 174
297 327 320 326 318 280 279 287 285 277 265 259 259 252 244 242 239 234 205 186 202 252 205 189 181 179 181 211 174 165 201 217 173 182 176 207 201 170 181 187 181 180 182 182 180 175 169 166 167
290 309 334 302 364 286 271 322 301 270 262 262 257 251 249 247 248 243 236 223 191 187 182 202 202 174 174 174 214 188 173 183 223 178 169 164 175 194 203 187 190 187 186 184 199 187 125 162 181
286 324 314 320 352 319 301 311 276 275 266 299 261 256 251 252 248 245 244 242 223 210 197 183 207 198 191 184 184 178 181 186 177 208 226 167 169 167 162 162 162 182 161 189 190 191 133 188 188

GFSSGP_2pvu_pres_099.txt.gz
Presure
212 175 131 131 132 135 113 75 76 172 136 105 90 96 123 133 154 159 109 135 101 94 91 94 121 86 99 92 94 89 143 98 143 112 97 124 143 99 138 134 138 103 140 143 124 126 127 127 125
147 195 161 137 132 137 147 159 134 110 74 131 131 156 103 86 92 166 93 128 149 88 128 100 105 96 92 90 109 92 94 108 112 95 116 124 123 119 123 130 135 131 147 128 130 116 128 127 133
125 146 225 107 134 172 148 120 159 154 198 193 163 84 88 98 94 90 104 94 122 97 96 92 94 91 125 108 92 88 95 111 163 116 97 149 131 126 135 123 138 126 127 124 122 122 127 116 111
130 168 138 168 178 117 111 163 157 147 143 77 198 184 167 77 143 101 90 82 81 86 94 88 95 86 106 84 86 107 103 91 122 100 100 96 121 136 139 131 141 138 134 140 141 128 135 122 127
197 185 160 205 149 173 163 139 172 146 135 177 210 154 99 70 65 81 96 113 96 96 99 84 103 91 105 93 137 114 142 106 101 134 154 96 139 107 121 131 130 135 125 122 135 125 134 134 134
156 184 166 169 241 178 129 139 155 180 135 156 178 204 198 166 89 72 123 103 132 142 96 88 113 150 97 97 104 129 91 105 107 130 124 127 105 137 124 127 96 141 134 133 145 140 129 122 122
180 210 276 190 206 104 131 164 170 146 126 112 187 172 194 180 162 124 72 75 93 148 155 103 150 96 155 86 168 108 158 88 142 120 111 155 137 133 112 127 131 120 139 143 130 128 133 128 128
293 160 208 254 158 218 175 145 178 85 130 166 156 140 183 193 184 170 110 80 157 94 92 102 106 150 143 91 95 102 92 92 158 142 135 165 163 143 131 129 121 143 141 129 129 125 122 134 134
310 193 269 260 226 108 197 108 78 155 183 134 137 166 140 176 207 185 178 178 77 152 148 83 83 92 97 105 100 113 103 93 153 114 139 171 110 155 130 143 149 103 115 116 133 125 126 124 137
347 160 283 270 254 88 84 138 118 138 106 137 147 110 154 191 181 170 172 184 181 137 97 160 125 85 134 129 115 140 112 110 106 138 134 124 146 125 140 150 111 123 135 133 134 106 136 116 106
363 253 154 136 91 223 106 140 150 113 150 148 135 122 155 154 128 182 179 179 178 183 159 175 86 164 146 140 145 142 85 115 163 144 152 147 105 165 149 124 142 139 96 132 134 126 126 144 78
366 310 268 262 242 259 243 127 61 151 158 179 154 160 133 170 168 202 188 172 180 179 176 184 182 159 83 81 145 85 91 142 152 149 155 158 161 154 147 86 109 124 161 87 89 88 141 151 141
373 322 275 270 278 238 257 193 231 112 166 178 179 143 169 166 167 201 195 178 175 168 177 177 179 180 161 150 113 134 82 83 161 98 90 151 144 155 155 157 150 140 138 151 79 108 83 135 83
383 335 282 288 278 262 165 261 247 179 188 174 173 177 175 171 157 186 182 187 211 179 174 172 168 182 179 169 151 146 148 159 116 149 77 80 122 162 170 117 72 158 157 134 72 156 123 142 146
389 333 247 287 303 263 170 184 253 189 179 186 179 190 163 175 169 160 186 175 226 182 176 186 168 181 191 177 145 165 161 150 146 151 158 120 81 79 80 73 80 133 88 80 150 148 91 107 90
373 326 329 305 277 282 220 285 187 194 189 191 185 180 210 168 176 151 164 179 157 210 222 170 197 168 177 125 180 136 166 167 168 165 163 143 86 162 151 93 149 142 142 109 137 106 164 151 153
331 339 336 292 297 272 275 177 167 222 186 90 205 181 97 187 176 169 163 173 159 171 176 200 216 157 180 173 158 173 151 177 164 165 141 152 147 144 147 148 98 149 117 158 155 158 166 158 162
359 378 316 297 167 285 267 243 270 250 209 191 191 174 182 189 178 179 174 170 167 177 174 178 184 160 200 203 162 164 167 171 172 167 168 164 163 161 161 139 159 151 158 145 155 167 151 151 181
337 348 318 307 178 161 210 163 253 263 277 240 198 245 206 192 181 146 179 180 182 172 182 171 180 188 175 170 186 157 162 162 152 179 177 168 169 170 161 160 163 142 135 167 161 142 167 145 163
329 332 369 319 283 277 270 194 175 254 245 258 201 264 185 194 186 200 174 174 172 177 173 182 178 170 190 188 172 172 205 168 167 152 158 147 157 157 163 160 156 170 171 171 162 176 177 192 164
335 326 353 314 292 277 268 260 256 265 242 261 264 282 247 163 181 182 149 174 166 176 178 174 177 179 177 189 185 175 173 178 178 169 159 155 163 160 163 161 150 154 162 165 169 165 174 170 191
334 325 319 359 330 279 272 263 269 260 272 254 252 260 270 179 181 183 180 178 172 156 171 176 173 163 180 166 184 202 195 199 179 198 174 173 171 167 172 173 180 166 169 170 187 151 161 172 167
310 319 311 307 289 302 279 271 261 265 287 267 260 257 252 256 224 177 186 181 179 177 178 181 175 186 168 181 180 178 182 183 181 180 180 180 168 163 202 173 180 167 176 178 180 177 180 185 184
312 312 318 313 352 301 275 276 282 270 265 277 275 265 256 199 242 208 181 192 187 182 148 116 181 165 180 177 179 182 166 177 183 184 180 171 173 147 162 169 171 171 174 168 182 206 184 177 178
322 311 309 309 313 298 308 269 277 273 272 270 267 276 278 253 240 233 238 242 223 170 191 175 179 181 166 180 186 169 179 180 179 179 129 188 180 179 177 157 156 162 173 174 178 177 184 179 182
334 314 320 315 343 314 321 317 279 274 284 269 266 281 276 260 253 232 236 238 242 236 188 187 183 180 183 183 174 183 186 185 174 175 186 188 180 181 181 156 192 148 153 165 170 173 164 182 178
307 320 311 313 297 332 341 320 337 306 277 271 275 286 275 272 251 246 252 240 241 237 195 196 198 186 179 180 186 176 169 186 187 190 180 187 190 197 178 176 184 198 201 185 169 169 177 159 173
324 310 325 303 307 314 307 339 319 311 292 351 281 288 273 259 263 253 249 243 248 251 245 191 185 175 191 179 167 163 169 174 174 184 190 192 191 190 194 205 171 162 162 192 181 136 149 174 175
301 345 308 304 318 316 323 306 295 291 316 289 288 274 266 263 258 257 254 147 245 250 248 242 194 194 207 217 206 185 177 166 161 163 183 171 171 188 192 200 185 186 187 173 174 95 186 207 151
303 292 314 314 330 328 309 298 283 305 277 349 279 276 271 262 255 253 250 250 247 243 249 253 181 193 200 207 239 164 172 173 167 174 172 173 194 199 206 173 170 205 218 214 208 166 162 156 168

GFSSGP_2pvu_pres_102.txt.gz
Presure
125 120 132 151 131 143 97 116 175 146 185 94 91 93 88 147 171 117 113 165 95 155 83 84 103 91 90 90 90 96 120 125 114 123 109 98 90 107 123 134 138 119 138 126 136 140 117 131 114
134 118 112 123 133 139 132 109 66 122 159 164 179 88 92 91 116 114 93 130 129 130 170 142 126 93 98 95 100 87 97 110 103 95 124 127 110 123 100 126 118 123 120 137 134 126 125 118 123
130 115 113 125 156 111 145 143 156 118 64 159 137 118 101 176 165 122 138 135 91 157 125 106 102 96 103 96 86 90 89 89 109 94 123 102 106 113 153 137 128 133 136 132 133 138 134 145 140
137 123 151 141 97 140 147 151 155 135 142 110 179 75 103 83 160 98 136 73 87 90 135 91 93 94 90 93 98 127 90 87 98 97 97 103 97 95 137 125 123 118 129 134 135 138 165 133 137
121 163 127 151 237 136 142 157 129 126 149 156 164 147 165 155 95 93 90 82 94 94 90 92 92 97 96 88 90 95 97 97 103 94 134 102 122 125 128 105 143 139 98 123 134 143 126 112 124
160 137 169 149 147 106 90 139 179 146 116 162 159 154 65 72 86 75 122 93 97 96 91 96 96 85 94 156 88 99 97 103 159 119 134 107 111 140 102 136 134 108 130 126 131 123 131 130 129
105 118 327 124 134 225 140 166 103 117 176 116 166 162 139 185 169 182 75 73 86 123 96 138 167 89 97 102 155 130 143 103 120 97 122 133 117 111 140 140 112 149 142 129 137 110 133 106 116
135 151 169 144 148 267 165 185 169 189 143 179 125 148 157 134 196 183 168 166 82 139 154 96 155 160 94 98 115 100 88 98 154 104 141 152 165 129 164 153 145 121 141 141 136 133 139 133 131
383 138 279 310 313 127 215 187 169 188 142 184 162 132 119 103 139 180 168 168 142 105 184 151 107 93 140 142 106 100 142 95 106 115 109 94 139 121 104 168 151 166 175 144 135 153 147 140 131
385 370 334 248 302 290 95 232 93 109 194 183 130 145 140 120 112 196 194 169 178 182 171 78 149 154 128 83 91 107 105 110 120 143 152 116 124 106 99 140 155 163 153 159 144 126 119 97 80
386 381 343 303 85 290 246 94 207 168 194 164 104 160 144 152 153 157 146 208 156 178 182 168 137 119 157 80 85 141 125 130 147 126 143 145 138 136 158 154 154 166 150 137 153 139 89 132 128
382 376 341 316 290 286 137 163 166 93 105 179 172 121 158 107 151 163 155 179 175 192 187 173 174 171 89 80 125 142 148 148 135 99 90 127 132 130 143 147 163 157 149 142 149 141 140 160 158
380 370 361 314 283 252 234 253 160 227 195 180 189 170 141 168 85 144 135 137 178 175 186 182 171 146 167 171 108 120 80 91 143 116 108 140 150 115 150 136 123 152 155 89 141 140 116 77 133
374 368 327 312 326 268 188 211 127 128 204 155 185 177 161 159 164 133 135 156 159 199 199 190 174 168 181 183 175 174 171 162 114 154 85 77 152 159 158 107 150 144 81 131 161 163 78 87 79
364 355 312 292 315 316 271 264 261 254 142 149 190 169 178 128 155 149 138 154 170 152 169 212 198 172 166 153 181 165 181 179 175 165 149 154 128 146 154 127 75 82 83 106 119 78 94 158 104
355 350 314 310 278 271 292 152 161 253 263 135 147 168 177 173 156 149 133 144 143 157 177 162 186 171 187 189 162 170 178 164 175 174 164 152 149 135 146 129 143 98 75 82 165 94 161 150 157
348 350 312 286 294 266 264 286 253 255 250 194 174 203 173 180 137 167 173 166 153 151 158 148 164 182 198 191 173 156 171 172 158 159 169 141 169 166 163 160 142 142 74 145 141 144 146 153 156
353 361 324 293 297 265 273 261 250 270 269 242 227 202 191 177 113 175 164 181 168 161 161 134 151 184 179 173 174 177 190 186 164 168 180 180 171 148 171 178 169 162 163 161 161 164 169 170 169
351 349 348 302 273 268 278 307 242 262 248 246 256 232 210 179 184 180 178 192 177 167 77 160 170 161 125 185 184 221 193 169 163 162 165 169 191 138 165 161 158 163 157 166 165 163 170 173 175
351 341 332 319 278 274 257 263 288 254 297 240 174 151 140 171 178 172 170 173 192 151 157 167 160 163 168 153 171 209 195 201 151 157 184 178 166 168 166 163 144 161 159 162 161 165 167 174 176
362 338 354 320 279 276 275 258 258 261 226 277 207 240 269 182 187 173 174 176 202 195 174 160 147 151 158 175 171 166 178 166 212 225 160 180 183 153 192 166 156 150 155 148 163 167 172 176 180
331 347 370 334 289 273 268 259 285 259 223 257 174 157 245 287 190 189 185 179 169 182 187 173 159 158 163 163 167 177 177 169 171 166 180 176 161 171 173 203 155 182 170 169 163 174 176 177 174
347 328 345 323 297 271 270 256 251 274 285 190 265 156 160 179 261 171 196 183 176 175 184 180 176 166 160 161 165 167 171 170 158 153 168 185 182 183 181 173 169 138 183 183 185 171 168 166 169
333 351 327 330 322 287 277 270 258 246 250 267 260 159 154 187 181 181 179 153 186 155 176 76 129 148 173 167 167 170 165 160 169 166 176 174 186 185 191 194 205 184 173 181 181 178 178 190 167
319 335 344 310 300 307 275 271 255 251 248 247 251 266 255 159 237 170 175 187 200 205 186 178 186 180 165 166 161 158 166 171 166 163 167 174 183 178 174 183 198 182 182 182 185 139 177 155 180
314 311 331 307 312 312 283 273 258 257 255 250 251 246 254 269 256 222 178 188 229 216 173 186 175 180 183 161 172 164 162 163 170 174 168 162 177 175 176 171 174 175 177 173 178 179 177 173 174
320 310 310 339 318 344 278 283 281 275 263 265 270 252 253 257 255 262 188 275 259 233 262 188 179 171 179 182 163 180 173 174 155 166 164 168 146 178 172 173 171 170 171 176 161 185 181 180 177
310 307 308 311 343 316 332 264 274 275 267 264 275 268 258 255 278 283 242 264 258 256 242 242 240 192 165 185 172 182 182 173 168 175 172 171 171 176 183 174 171 171 173 170 174 176 185 187 169
318 304 313 304 324 304 318 318 269 263 269 270 266 270 280 309 295 287 275 260 294 268 255 206 242 206 188 188 211 202 188 186 180 178 179 180 184 181 178 178 163 177 179 185 168 165 181 166 179
299 345 311 308 301 319 323 308 313 291 283 272 276 275 273 268 263 264 260 254 254 255 253 246 250 231 229 229 181 240 231 194 189 188 184 177 180 179 174 174 176 164 178 171 164 174 182 165 163

GFSSGP_2pvu_pres_105.txt.gz
Presure
136 109 110 147 157 97 123 121 115 113 138 137 116 100 94 122 180 134 94 174 77 152 99 83 83 125 107 91 103 91 95 83 118 115 125 105 135 106 108 137 99 121 131 102 123 121 134 142 122
123 122 122 118 116 121 145 152 137 126 140 124 113 77 77 75 130 103 111 168 149 146 153 160 99 99 117 132 93 86 92 95 139 102 130 95 94 119 133 128 147 121 109 120 140 134 139 132 109
135 137 127 126 136 119 114 103 73 148 157 149 119 114 73 171 86 107 98 172 112 166 161 171 159 93 127 89 93 132 92 100 104 88 96 94 94 106 124 95 133 143 134 126 125 123 122 127 118
121 115 151 122 123 154 122 119 131 155 126 71 79 84 125 185 170 92 95 94 159 135 172 96 93 177 176 150 133 153 91 94 90 89 96 138 95 107 97 101 118 90 123 106 104 138 127 124 130
109 105 118 122 118 107 124 132 177 122 163 92 167 140 99 80 112 81 167 114 90 127 152 98 109 115 94 95 102 95 92 132 91 106 95 107 95 139 112 125 125 102 130 145 127 154 109 141 130
137 140 97 128 126 112 118 124 169 120 146 179 144 153 114 122 101 133 94 86 135 77 114 119 112 85 100 95 96 95 157 120 93 95 99 99 94 115 93 104 108 107 152 147 129 139 148 145 136
95 116 117 130 130 94 174 270 70 187 177 173 145 174 113 157 158 181 163 169 166 78 82 92 95 91 94 93 88 95 96 152 100 137 145 108 154 137 142 112 132 117 128 150 143 153 158 122 126
121 126 162 134 76 83 121 236 132 150 180 143 177 151 140 131 69 69 74 75 81 77 153 82 97 94 91 95 157 98 97 98 97 103 91 134 99 91 110 152 145 151 145 117 164 164 174 124 151
145 122 139 126 108 172 83 133 238 123 151 151 190 160 170 118 138 154 162 159 108 174 123 111 158 150 106 132 136 164 163 115 95 85 91 116 148 135 95 113 109 104 104 164 164 157 159 164 81
166 171 228 104 126 237 244 101 122 154 150 186 68 157 176 146 131 165 153 161 152 152 141 165 80 112 168 150 138 147 148 158 153 105 106 92 101 94 129 165 156 110 106 141 160 134 167 172 164
158 402 401 385 318 181 123 291 133 155 149 163 199 150 174 170 133 141 123 117 125 142 161 224 165 145 159 146 155 98 147 105 152 90 96 109 170 139 123 125 157 144 128 127 143 146 147 117 141
400 411 392 365 346 86 92 286 167 134 224 100 192 183 171 163 139 163 111 103 132 119 132 140 174 160 150 157 77 162 157 92 139 154 104 126 124 87 151 128 129 130 131 131 129 138 130 81 131
434 423 387 357 94 81 289 301 97 283 186 122 142 196 155 173 124 114 162 138 132 187 147 167 136 141 169 169 151 154 130 136 83 149 143 143 125 146 124 160 100 130 138 154 150 77 110 143 151
427 457 385 344 325 287 287 293 266 211 190 84 96 130 110 138 89 125 146 147 152 143 146 121 150 179 151 161 189 168 157 147 153 147 133 86 141 132 83 119 147 148 98 112 87 150 82 83 86
422 397 376 311 295 290 273 259 304 263 97 200 131 192 142 111 163 154 133 156 81 160 126 134 133 155 155 189 177 176 173 167 168 168 167 168 172 170 86 153 77 132 150 78 79 76 147 142 150
141 399 365 306 287 283 274 268 257 277 160 245 151 204 158 85 174 149 134 128 137 140 133 121 110 138 185 173 192 162 173 166 158 160 164 167 177 172 176 177 179 170 131 163 144 81 140 146 151
374 252 373 296 296 281 296 267 262 339 257 241 157 217 170 113 166 67 117 146 134 134 157 146 146 146 141 141 164 184 157 185 183 157 152 158 156 162 169 170 166 156 178 168 162 164 163 171 143
365 396 178 424 307 291 272 272 248 281 284 153 155 187 202 182 171 171 125 163 138 160 140 154 147 141 137 155 155 151 159 163 167 187 157 184 154 152 156 166 157 161 166 166 175 166 172 161 170
384 387 408 295 279 272 272 285 287 241 316 257 249 236 208 186 157 125 140 164 171 156 133 155 146 126 136 147 159 156 155 160 171 181 164 165 167 163 172 180 174 171 166 167 174 190 148 165 169
241 390 351 315 283 270 271 269 300 246 268 282 251 159 202 202 186 171 139 170 168 149 136 117 195 159 167 155 192 170 192 201 191 163 194 174 137 187 178 171 162 168 175 163 160 163 163 185 174
387 373 303 299 305 274 275 265 270 277 257 246 165 294 195 224 214 78 188 167 158 139 143 152 150 169 172 167 156 153 187 169 188 155 180 177 174 172 200 182 189 175 146 179 177 180 179 181 197
379 359 308 289 277 294 288 272 266 266 283 249 250 233 246 248 231 218 152 87 190 179 165 171 219 163 198 154 154 157 159 148 149 157 135 134 152 177 203 193 201 205 209 203 212 204 207 175 144
384 352 345 292 278 285 285 288 296 249 243 286 254 206 276 258 215 214 207 188 169 172 161 151 152 177 166 173 159 150 163 159 131 162 154 154 169 158 155 156 151 168 159 198 206 178 193 199 193
365 377 300 278 278 269 269 281 284 260 270 244 289 303 253 249 191 214 194 129 171 175 185 177 185 128 144 171 177 175 162 157 160 160 160 168 160 158 177 173 164 175 178 172 153 158 157 191 172
351 347 297 285 273 269 267 260 250 282 258 242 238 249 285 169 262 214 213 169 191 150 162 161 182 166 173 171 160 172 180 162 144 145 169 168 161 163 157 153 147 169 177 176 171 163 166 185 168
364 367 296 293 288 274 273 271 256 277 260 259 251 262 245 250 190 266 181 225 209 197 191 172 159 169 173 180 135 174 163 185 162 176 172 174 170 172 168 170 169 158 165 165 174 181 169 176 178
335 337 376 279 274 278 272 264 264 264 278 283 263 253 249 242 228 232 226 148 230 221 208 199 172 163 177 129 167 170 181 177 177 167 170 163 167 167 169 163 169 148 157 166 166 155 156 167 170
341 319 347 364 276 271 267 263 262 256 253 255 265 275 253 255 243 250 148 152 153 216 266 140 175 175 176 169 173 174 176 166 165 177 156 167 170 170 172 170 165 160 159 163 181 172 171 171 172
311 339 326 316 346 279 271 269 257 261 254 247 251 269 257 259 245 198 206 272 249 160 243 212 159 173 177 172 169 184 184 179 164 164 191 192 184 177 170 172 168 168 154 166 173 164 166 183 158
324 310 312 338 322 304 284 263 260 256 252 277 249 257 274 269 280 251 254 275 253 257 162 246 256 252 170 172 178 187 175 209 211 184 180 176 169 184 180 179 181 182 172 180 183 175 176 179 181

GFSSGP_2pvu_pres_108.txt.gz
Presure
159 144 157 120 157 137 135 141 131 161 144 93 127 97 124 170 97 178 178 166 168 128 136 115 120 110 143 103 113 93 117 99 113 93 128 127 140 93 108 165 129 137 118 156 112 143 105 118 123
124 120 187 128 120 121 126 129 136 148 159 147 112 119 113 114 114 171 166 180 177 170 136 122 136 109 123 163 136 140 93 138 89 97 97 103 120 93 95 169 98 95 137 109 98 153 147 142 138
105 131 185 121 102 120 127 115 120 138 105 87 106 76 130 84 120 143 159 164 159 85 105 144 182 165 86 115 91 85 90 93 97 89 90 90 146 96 93 100 98 96 110 105 130 103 109 109 132
105 132 146 129 135 117 119 128 132 129 115 140 94 153 80 123 85 93 96 186 178 104 166 165 88 169 145 88 89 87 94 101 125 98 93 90 107 99 95 97 129 142 143 111 102 167 135 135 143
91 145 148 116 133 123 113 125 128 136 141 145 136 149 118 102 126 126 83 102 125 158 149 110 175 166 171 166 95 149 93 132 96 87 154 94 136 103 96 110 103 103 137 119 103 146 128 149 142
125 121 116 110 113 112 118 88 114 134 101 118 130 128 138 131 158 129 132 151 96 79 118 148 172 157 89 96 156 99 91 96 89 108 129 91 95 94 103 99 98 95 101 127 145 133 129 126 138
90 120 124 120 106 100 113 81 115 120 115 129 124 157 116 170 136 76 92 84 92 169 169 80 110 82 165 134 110 110 94 104 90 92 93 95 125 151 143 107 115 98 125 114 138 109 127 117 148
198 122 117 113 73 130 110 133 128 137 135 132 133 133 138 145 132 169 130 90 123 132 92 85 183 156 89 96 90 90 88 89 93 87 97 108 96 102 156 156 96 104 141 140 116 114 107 115 154
126 107 114 132 151 106 87 131 131 119 116 131 122 213 148 146 180 145 163 183 191 145 145 141 79 112 105 88 89 88 92 94 117 94 91 159 88 90 94 104 134 92 108 107 135 105 99 148 129
132 115 112 112 139 91 103 146 173 121 133 137 121 231 132 147 156 167 161 142 121 102 79 63 91 101 88 94 163 141 96 103 107 133 163 164 136 132 124 139 101 89 124 160 126 127 144 138 142
115 154 126 183 185 149 129 99 80 114 96 105 115 129 194 136 205 188 152 74 131 169 128 160 121 143 95 157 81 155 150 148 144 132 103 101 162 157 110 113 111 166 168 160 157 132 127 142 138
111 126 136 118 128 139 133 156 159 168 132 84 107 143 122 158 160 122 174 155 139 155 141 182 159 154 161 176 179 168 96 95 79 157 168 153 160 159 163 153 153 126 120 125 126 124 137 149 137
180 173 142 145 162 170 179 152 137 123 233 178 163 252 196 176 198 128 155 156 144 136 137 125 158 125 159 160 169 171 114 169 162 160 169 167 149 134 140 140 158 141 140 148 146 93 114 83 80
130 172 175 366 293 378 285 296 93 115 90 88 246 109 209 119 188 149 149 123 150 142 148 122 131 179 161 140 146 164 139 158 160 135 110 118 155 84 150 111 145 141 145 145 98 78 154 124 90
403 380 378 390 406 389 337 83 74 303 301 271 279 246 219 131 135 164 120 144 156 150 163 103 103 118 118 125 132 144 163 143 164 168 161 141 193 173 155 168 160 163 163 165 170 152 174 180 146
427 386 423 451 402 379 242 108 285 272 306 282 270 255 244 154 126 184 187 171 136 124 153 129 109 152 117 129 162 150 134 167 174 179 177 179 165 169 170 164 163 166 170 167 170 172 177 137 173
426 422 416 403 292 383 317 290 275 250 289 261 275 239 227 121 124 153 118 200 156 146 153 140 141 139 145 148 149 128 152 159 150 153 177 172 168 177 160 177 171 155 153 147 156 165 158 159 163
387 391 406 431 398 315 316 260 259 254 278 272 280 260 245 229 153 151 205 129 172 132 149 147 172 127 104 137 114 144 125 133 134 132 180 188 158 175 174 179 179 180 179 165 166 152 164 168 173
373 350 182 394 310 306 225 267 262 260 266 282 255 283 254 227 197 218 176 147 140 166 145 126 119 133 145 191 189 156 196 151 143 140 143 174 175 180 161 164 171 168 166 159 149 168 180 189 188
157 162 157 315 286 187 274 272 275 242 261 275 262 260 258 241 209 165 201 173 170 142 187 145 170 187 154 143 123 168 198 156 161 137 161 131 126 169 157 150 159 165 187 183 181 179 185 181 163
147 151 190 331 300 271 274 270 275 238 251 283 323 260 266 204 140 207 181 155 168 152 156 118 124 178 194 156 141 154 135 156 165 161 167 149 161 173 166 173 170 168 184 158 143 148 152 127 210
151 327 319 322 290 260 260 245 246 270 247 264 287 272 265 250 240 202 194 183 191 160 165 143 142 141 157 157 187 162 138 155 207 152 194 150 171 150 215 139 154 130 132 166 198 187 186 133 127
143 314 301 299 278 269 264 251 254 243 268 273 286 302 253 263 198 151 174 195 174 155 151 131 145 136 134 141 157 167 156 135 169 196 157 170 166 126 151 178 159 148 134 170 147 172 176 178 177
147 309 295 292 276 278 272 262 245 249 236 235 274 271 261 260 247 231 164 180 163 172 179 157 176 168 161 144 158 183 148 154 175 169 170 168 143 167 162 108 163 161 141 155 161 164 149 148 163
349 375 289 286 273 265 287 260 268 247 242 254 260 257 239 259 245 219 213 189 210 176 176 173 166 165 148 188 154 158 170 164 157 151 157 165 180 163 190 173 158 172 165 194 167 155 166 169 170
384 366 299 285 273 264 264 279 256 249 244 234 233 242 276 317 266 233 192 151 174 180 182 174 176 139 156 158 143 158 181 159 161 151 177 187 161 145 170 169 164 172 148 158 177 168 193 171 171
414 343 354 287 284 294 280 275 260 254 248 253 249 266 259 269 294 240 157 166 159 129 176 196 174 156 161 132 172 195 167 168 172 170 169 168 164 163 146 165 158 173 185 154 152 166 184 165 169
343 329 273 297 271 270 281 269 267 254 261 245 233 234 231 247 259 235 240 236 231 199 191 176 166 178 168 166 156 149 151 169 158 149 177 131 161 168 165 162 175 169 139 176 188 187 173 170 175
135 381 291 284 276 273 274 263 257 249 257 262 241 265 252 237 241 251 262 236 247 215 212 187 178 186 187 184 186 131 183 161 170 178 159 128 155 188 180 163 174 146 180 153 155 181 185 186 178
131 162 275 272 268 262 278 274 267 262 255 249 241 234 236 243 251 263 272 248 223 179 218 222 198 196 194 158 193 191 179 176 192 193 186 175 160 161 173 173 166 172 178 150 180 184 179 145 188

GFSSGP_2pvu_pres_111.txt.gz
Presure
108 155 175 109 126 117 126 114 121 121 136 125 81 104 131 136 77 146 164 175 97 104 97 162 115 110 98 94 93 93 100 95 96 99 93 91 106 121 112 94 94 96 109 96 136 101 101 103 114
145 136 204 142 128 136 111 122 128 98 83 88 120 120 100 112 131 77 138 185 169 170 179 158 125 102 166 128 94 96 95 99 112 105 128 97 105 102 87 90 130 114 99 94 91 97 113 108 147
113 134 176 158 175 147 168 145 136 124 164 79 190 173 164 90 90 119 121 134 183 110 176 78 164 155 176 83 91 123 94 165 95 124 129 101 89 95 98 115 128 100 155 110 146 141 107 126 132
198 135 113 194 140 144 179 134 137 97 149 146 137 166 166 127 128 118 134 133 137 187 114 178 162 82 158 158 149 131 125 89 161 151 98 138 88 94 93 99 123 95 91 121 136 107 104 116 120
165 133 105 118 128 140 135 108 103 141 153 121 140 130 130 132 156 81 84 128 124 130 176 169 112 180 166 175 159 168 90 96 102 94 109 88 89 90 96 109 90 120 91 101 97 102 131 114 124
158 179 171 118 141 134 121 137 116 148 85 122 130 123 142 132 130 132 162 113 133 106 134 85 139 161 156 167 175 120 165 94 132 150 87 92 89 91 92 94 172 100 130 104 102 98 107 145 108
137 159 183 103 188 125 209 136 68 139 118 133 130 120 120 109 93 133 136 133 133 122 96 137 160 182 161 153 120 158 103 100 121 160 101 90 90 93 97 97 149 93 155 139 95 107 113 148 117
176 163 164 170 137 207 107 132 87 121 133 111 103 132 146 133 125 127 101 218 135 153 133 133 98 99 85 179 110 170 89 156 166 89 88 171 88 94 93 172 100 94 156 100 96 97 95 112 156
154 171 174 196 131 120 127 121 103 106 120 150 113 143 134 119 125 125 107 161 127 119 122 132 78 79 130 160 137 98 125 146 92 89 89 92 92 101 91 112 91 92 95 153 101 90 122 155 129
160 171 185 184 216 110 119 111 125 116 105 90 96 134 130 134 123 138 120 132 138 141 138 146 132 177 111 76 82 84 89 90 89 91 93 120 88 163 85 161 112 104 156 162 107 111 147 124 141
108 163 215 120 137 217 122 125 131 116 127 96 137 103 127 114 128 115 106 184 163 170 151 153 147 172 75 152 152 90 79 146 96 129 147 162 100 161 148 161 149 164 154 115 151 157 142 126 135
114 90 146 132 124 124 88 128 88 126 108 135 120 117 129 113 121 67 134 194 132 151 177 112 142 112 172 130 124 169 135 84 88 132 162 166 149 147 145 167 158 141 155 149 139 128 128 87 140
182 154 117 124 136 124 128 125 128 115 89 87 119 159 106 124 120 120 101 122 142 152 188 182 123 137 138 172 119 130 165 161 163 166 158 125 144 123 134 171 155 102 153 132 162 145 148 134 91
178 129 171 118 126 150 145 134 126 123 87 81 136 123 106 80 140 108 121 105 167 176 139 189 152 156 160 152 128 161 104 132 158 170 175 145 168 160 161 146 148 153 85 153 151 157 159 77 164
109 149 165 157 130 141 151 181 125 189 127 138 136 126 129 153 141 96 142 119 136 112 164 157 170 124 198 142 186 142 125 162 129 175 170 142 176 85 156 161 162 159 156 168 164 167 175 167 164
168 226 135 132 183 363 158 408 194 188 144 179 145 158 155 140 145 147 95 158 182 174 179 146 122 148 182 147 126 150 129 158 139 179 137 148 160 149 163 160 163 154 91 178 185 170 168 178 176
300 269 438 389 253 399 394 370 330 320 274 214 142 89 146 118 153 158 206 175 163 172 157 168 150 156 146 156 158 152 142 130 150 153 148 158 156 156 159 164 145 176 162 180 170 162 171 180 166
460 443 437 396 384 395 386 357 308 302 85 85 258 232 274 244 227 214 187 196 178 175 121 88 144 135 156 137 133 143 136 123 109 144 158 152 146 144 155 150 161 158 167 183 165 172 170 172 182
467 416 427 397 385 411 397 333 298 302 187 317 302 300 286 237 233 217 203 213 184 196 158 136 159 123 146 150 134 127 132 127 141 170 111 126 151 165 142 151 156 126 137 186 176 177 162 166 163
400 398 394 411 455 429 316 302 303 285 318 331 307 294 285 237 241 177 198 190 185 175 159 133 168 161 155 138 173 107 146 143 153 129 145 130 160 158 154 128 122 154 151 131 156 180 177 170 161
374 375 397 382 188 167 296 286 277 270 276 275 314 293 313 243 223 215 207 192 196 173 147 147 140 199 184 146 176 164 134 154 111 184 137 150 159 149 170 132 162 147 178 183 185 170 170 159 156
374 369 403 149 149 154 165 266 216 276 286 259 287 293 298 252 227 240 198 188 202 215 148 133 157 162 157 153 153 182 160 164 183 182 141 134 196 139 128 148 140 150 184 153 144 155 161 152 140
359 393 170 264 279 201 288 279 260 270 276 284 321 311 304 246 235 215 194 192 201 192 148 137 179 158 182 146 150 139 152 177 144 190 180 184 127 127 149 160 148 122 196 168 157 167 124 154 197
270 149 146 144 189 269 268 279 280 277 256 273 269 259 296 269 239 222 216 190 194 188 195 182 155 147 170 152 163 148 174 172 152 167 177 155 147 170 133 208 156 167 170 157 201 198 143 176 174
226 335 374 296 280 269 272 271 262 260 254 251 243 269 251 267 235 232 217 204 196 178 170 159 179 158 147 158 144 147 140 128 153 145 141 167 195 182 162 186 185 187 180 148 154 152 160 157 186
138 142 352 291 284 270 266 256 247 243 261 252 223 234 260 269 262 215 209 208 205 207 200 176 209 146 159 146 143 176 172 170 182 122 151 160 193 194 195 168 151 197 177 180 174 142 185 187 155
132 144 302 305 295 279 265 264 263 269 264 262 250 236 245 267 267 262 216 206 141 210 181 194 191 193 186 173 180 187 164 169 158 156 147 193 156 182 161 183 175 166 136 164 127 161 137 196 166
284 238 272 273 269 263 259 256 242 249 237 239 256 272 227 264 246 287 223 211 212 204 182 180 187 141 177 163 169 156 147 155 145 147 164 159 168 169 158 162 170 149 190 189 158 184 166 169 158
296 132 278 278 269 274 274 260 259 264 260 256 247 253 250 289 253 277 249 216 201 190 187 180 186 179 182 143 159 189 178 175 176 166 165 163 153 164 171 187 163 174 164 191 173 189 215 162 171
375 127 190 287 268 265 258 252 255 238 264 251 266 235 228 260 262 249 259 237 211 201 195 189 183 188 196 178 144 180 177 153 168 172 150 171 162 173 178 156 162 178 179 155 170 179 197 165 195

GFSSGP_2pvu_pres_114.txt.gz
Presure
136 197 147 136 167 168 121 122 140 115 80 87 79 105 141 120 161 138 167 90 104 100 92 114 97 103 98 89 92 91 101 95 96 97 98 89 93 98 98 118 92 104 98 98 98 92 116 114 98
185 182 124 110 141 169 170 93 112 120 116 88 125 93 95 117 132 133 142 163 179 103 103 139 105 136 104 93 120 92 91 98 98 94 102 94 115 90 106 99 99 92 114 101 128 104 112 128 108
107 134 137 124 116 174 108 128 137 199 96 129 135 96 125 93 106 108 110 139 141 179 174 153 100 149 119 100 98 129 101 91 94 148 113 127 88 94 86 93 91 134 117 99 96 100 133 127 127
159 133 162 144 140 153 104 120 112 137 119 107 115 115 89 173 126 88 84 130 125 143 141 146 145 168 104 103 156 125 175 93 89 87 166 161 125 96 93 92 94 120 92 99 127 123 156 104 102
163 137 108 178 110 129 143 175 141 143 156 144 123 134 150 151 153 155 124 103 123 131 134 142 164 172 129 176 145 91 180 93 156 162 81 113 88 86 88 101 95 84 98 168 102 104 96 98 123
177 157 167 139 130 140 125 123 177 186 128 163 139 151 139 134 155 147 153 107 126 125 132 91 139 95 171 174 105 168 174 126 129 92 118 96 88 90 91 89 112 108 137 144 96 96 149 95 95
124 159 175 157 165 167 126 132 124 160 183 108 94 119 129 139 99 122 78 124 127 136 139 97 93 106 99 184 175 178 96 178 150 95 173 94 112 157 149 89 96 96 91 99 96 95 112 94 89
161 145 141 169 125 163 99 179 108 133 142 106 151 119 121 127 133 143 138 80 126 129 119 124 145 130 139 141 85 188 168 141 141 144 162 103 150 88 96 88 94 96 95 175 122 92 90 158 90
162 141 151 159 184 123 169 115 114 162 132 138 89 124 140 123 108 121 116 130 117 107 131 177 157 144 139 119 96 172 149 157 150 103 171 110 91 91 96 168 92 90 95 92 137 107 126 150 102
191 225 188 170 152 161 134 180 83 91 134 99 141 109 107 102 118 122 115 109 115 109 143 116 171 163 147 125 93 78 88 77 135 97 88 124 89 103 94 159 116 163 167 162 162 166 160 144 145
170 181 261 168 241 135 182 186 131 206 103 141 97 122 113 107 158 109 142 131 79 128 140 124 140 135 69 112 140 140 130 159 82 81 84 86 96 91 100 100 149 103 103 102 143 147 147 164 133
166 159 180 142 170 162 141 321 85 133 116 122 115 109 114 141 134 146 161 113 122 146 160 150 143 140 154 147 143 149 131 136 128 134 137 82 82 87 81 81 149 144 135 84 155 92 140 144 141
213 283 194 187 150 163 163 227 152 153 106 132 115 114 114 110 98 121 108 122 106 144 113 116 117 204 200 150 141 115 150 141 140 167 168 171 167 165 130 145 147 117 171 186 172 156 172 141 142
103 159 131 182 158 163 165 114 117 208 93 117 117 103 122 84 118 131 126 142 112 101 101 156 137 144 177 97 171 157 167 132 151 113 148 163 158 167 163 164 158 162 168 152 144 147 162 154 180
173 182 152 174 243 123 120 170 94 130 111 138 115 145 119 123 127 124 100 144 120 107 165 142 135 128 175 217 147 182 120 149 134 165 167 126 168 144 167 161 168 152 163 154 148 167 162 168 158
225 182 174 155 160 163 162 176 178 137 185 124 129 156 99 87 75 131 124 156 82 149 132 131 136 117 128 178 134 159 193 165 134 152 174 134 131 154 131 155 165 170 153 164 157 167 166 168 179
147 142 140 146 126 271 160 172 162 142 143 99 123 129 163 188 133 129 125 99 125 104 123 141 125 97 121 130 174 149 152 124 134 164 138 160 142 122 171 127 139 141 172 151 178 170 170 172 168
175 156 152 179 330 166 324 143 131 199 157 151 128 139 125 166 156 138 152 103 131 131 146 146 160 179 151 138 208 106 141 133 161 115 180 128 145 124 132 135 144 169 162 148 168 166 121 156 138
124 163 143 270 423 400 393 342 141 135 134 119 139 135 166 127 128 149 141 133 135 146 144 189 195 175 103 96 226 188 136 142 122 161 142 141 125 155 104 137 133 125 119 151 118 143 157 121 188
393 416 411 412 428 410 391 407 392 395 353 341 369 389 184 157 95 98 127 146 150 147 140 119 156 153 179 162 192 168 195 102 108 106 128 139 139 125 131 153 148 123 119 180 149 122 167 174 154
388 394 403 429 410 382 395 406 399 367 338 331 394 371 304 202 94 148 150 159 156 148 149 153 140 159 157 184 192 172 162 127 84 135 100 128 125 171 152 111 131 124 179 151 130 146 171 139 151
379 376 383 367 353 390 426 368 351 333 336 330 344 345 199 88 208 207 187 198 160 157 153 181 166 156 167 186 188 187 189 162 202 151 149 110 141 119 198 159 134 132 144 158 129 132 150 157 153
355 355 335 329 342 401 358 171 320 323 320 320 325 302 294 237 212 205 191 171 160 198 203 184 156 186 167 203 168 162 157 135 135 154 156 150 148 139 114 140 162 121 138 160 179 138 145 187 214
341 330 322 318 332 269 146 156 159 301 321 333 322 292 293 246 219 211 193 191 183 182 203 186 190 192 178 177 194 187 164 145 135 161 168 156 146 166 176 150 124 198 158 212 190 197 150 84 132
330 326 247 309 225 149 144 272 247 287 280 309 338 357 296 249 215 210 197 185 189 190 186 202 196 161 198 163 169 208 160 157 173 191 187 177 146 118 159 145 157 168 202 126 142 170 158 161 182
329 180 195 152 147 148 148 149 280 304 275 305 351 389 275 271 226 216 198 189 207 193 185 196 177 228 196 160 161 174 166 153 160 150 163 165 180 144 114 179 159 187 131 133 158 164 161 186 158
323 309 142 140 263 268 268 289 281 276 283 299 315 413 262 236 247 221 229 207 192 202 186 182 176 197 182 189 178 178 172 156 157 143 186 181 171 162 139 164 148 148 168 205 170 151 177 173 198
317 128 134 289 286 270 265 262 267 272 285 293 302 336 339 241 228 232 215 213 203 206 208 199 213 181 174 171 173 193 179 163 177 156 148 176 161 170 169 178 162 140 197 145 157 191 172 186 160
313 296 174 134 281 279 254 268 252 273 267 261 283 302 302 244 239 222 228 225 209 204 189 191 188 187 178 198 174 177 175 179 191 159 178 167 167 158 179 149 171 180 152 133 151 174 188 154 169
311 292 295 130 129 272 270 252 252 257 267 252 268 283 280 299 237 229 213 227 217 200 209 192 193 210 201 192 171 184 166 185 170 149 158 166 169 152 162 165 167 191 153 179 194 166 186 176 187

GFSSGP_2pvu_pres_117.txt.gz
Presure
144 121 151 161 154 132 91 110 196 119 132 91 135 140 151 147 82 115 114 99 121 98 94 96 86 91 90 101 154 92 98 106 93 94 95 97 90 94 85 90 99 114 92 96 95 125 133 101 142
150 209 145 137 201 106 134 68 144 138 109 115 86 92 150 136 139 129 166 121 80 124 92 90 86 96 93 96 99 85 89 95 95 99 98 96 95 87 84 103 93 95 94 112 93 99 94 111 130
173 133 117 134 144 179 128 126 82 173 151 121 80 122 97 87 148 145 149 141 132 137 126 99 141 136 110 119 179 90 105 91 95 100 93 101 96 89 170 102 92 88 138 108 96 95 115 120 130
130 142 131 178 191 147 132 144 134 152 113 140 156 116 68 86 99 93 96 137 95 139 142 138 138 115 92 96 144 97 109 98 102 86 92 88 162 149 97 91 89 130 94 91 86 102 99 126 140
119 146 161 133 150 162 152 112 145 174 126 133 126 131 129 138 119 116 131 124 121 77 90 132 130 138 129 184 175 179 96 181 173 133 164 149 83 97 88 87 89 93 92 103 92 112 97 95 99
162 158 197 175 138 144 147 195 147 65 104 107 141 125 155 132 126 123 110 128 103 89 107 145 135 140 134 134 183 153 169 173 87 121 170 167 109 96 92 90 107 92 96 101 92 95 116 91 90
144 178 156 159 221 141 130 127 122 131 133 163 135 127 139 111 113 138 118 140 108 125 125 125 147 105 130 133 137 160 181 179 166 150 176 161 90 149 139 92 88 159 155 96 92 95 90 90 94
160 216 143 128 162 147 110 160 147 84 161 136 191 87 134 119 136 142 106 147 154 133 158 133 144 112 134 153 132 95 90 180 184 168 170 167 95 149 167 137 153 143 153 162 96 92 96 121 162
104 140 141 201 144 181 181 139 154 140 200 108 168 171 171 100 157 141 127 135 119 119 138 123 122 139 149 140 133 130 105 82 171 190 181 109 179 118 92 87 99 143 87 153 95 172 115 131 156
158 135 149 185 186 150 151 156 156 146 89 105 119 135 184 112 127 119 117 129 130 120 122 123 107 144 83 132 142 148 143 128 145 125 166 99 146 130 86 98 148 105 130 134 119 105 97 110 157
157 149 210 251 223 173 139 120 149 255 200 170 133 132 144 107 133 136 116 125 93 112 121 135 133 132 123 105 157 166 98 77 76 85 84 80 81 90 161 95 83 89 90 85 84 143 153 139 149
148 154 187 158 141 158 264 75 140 137 116 162 149 165 129 127 110 129 120 99 105 128 121 131 138 143 142 131 149 77 80 116 114 148 150 164 173 99 155 144 80 151 147 99 142 160 136 136 144
192 168 212 165 201 149 167 163 172 158 148 112 163 111 106 210 123 114 120 100 131 124 128 144 97 182 111 147 194 110 125 139 160 122 162 160 159 140 171 167 180 159 161 158 156 151 171 157 159
171 127 164 220 242 216 264 142 164 176 188 162 99 140 220 124 101 108 106 114 141 153 133 103 171 117 88 121 108 118 147 160 159 166 117 134 113 153 130 123 170 180 169 165 169 156 159 176 140
141 269 150 150 160 160 174 148 243 161 149 190 101 170 281 143 123 113 120 127 141 165 124 133 139 158 118 135 136 129 140 160 129 160 158 157 128 132 103 128 124 165 133 162 171 132 171 152 177
94 161 166 153 97 96 117 137 105 76 161 126 169 230 109 117 116 122 102 118 114 90 93 101 146 97 159 114 119 138 125 163 169 180 156 118 138 155 131 164 171 163 173 166 176 163 174 165 169
158 184 189 88 187 140 181 184 204 247 108 115 119 215 155 93 120 105 121 115 113 120 109 129 141 96 156 134 137 113 127 113 176 130 132 169 169 141 108 171 124 131 126 162 125 136 163 123 142
244 190 182 221 170 307 162 224 158 186 196 193 250 162 216 188 128 127 135 95 117 107 107 112 100 134 113 130 122 121 137 126 118 105 153 132 110 175 150 124 149 121 177 109 155 139 143 153 118
187 185 152 165 172 120 167 189 151 132 163 169 179 141 165 201 128 131 131 126 100 110 123 132 87 112 120 99 161 125 121 189 137 130 163 144 155 119 154 134 133 128 131 147 149 180 120 168 131
146 150 142 134 169 213 137 132 175 177 151 122 153 180 169 178 194 135 126 132 139 130 139 160 186 127 133 130 122 139 140 143 151 176 150 167 88 103 150 109 133 142 128 121 128 129 150 118 148
143 143 241 200 275 166 290 183 148 242 291 180 149 161 187 180 204 166 139 173 187 123 131 125 127 122 145 109 141 150 161 158 124 140 116 179 151 119 189 145 147 122 116 147 141 110 131 121 152
141 365 321 320 357 393 391 393 391 407 256 415 144 139 158 167 164 148 135 137 162 96 167 186 160 173 150 154 133 146 156 152 170 160 137 164 221 153 148 148 129 156 141 125 128 143 119 164 146
188 203 342 345 360 354 339 347 401 413 403 384 377 147 147 159 147 139 144 150 143 144 136 158 135 133 161 132 144 171 154 180 134 146 146 120 167 198 156 172 158 149 186 147 157 129 120 172 155
325 330 317 329 340 346 327 323 369 393 382 363 379 375 178 141 143 190 135 140 147 143 133 135 140 141 137 140 141 151 146 154 154 143 193 125 167 177 167 159 167 171 99 163 165 158 154 132 152
321 316 318 317 330 333 319 311 330 363 337 359 393 380 387 310 276 143 143 141 141 147 172 151 157 148 159 198 158 163 169 174 154 166 155 189 153 177 169 195 176 168 151 201 126 139 124 192 190
324 311 309 323 321 322 319 321 335 322 336 356 363 358 289 256 265 214 202 181 175 187 197 168 152 193 166 150 178 154 160 188 179 203 193 130 176 182 168 169 143 179 154 123 174 156 174 181 123
316 303 307 317 318 339 296 148 143 147 151 332 317 269 256 223 230 225 212 205 194 185 213 216 189 175 176 169 181 158 200 169 188 183 191 181 168 151 182 140 178 150 130 163 141 191 109 117 116
308 310 306 309 315 137 139 142 142 141 178 299 355 255 241 222 210 199 211 207 188 190 196 176 177 172 178 179 182 186 186 181 193 177 172 194 171 178 160 168 181 183 187 148 160 129 166 188 135
312 307 311 182 133 239 260 247 243 300 329 340 347 281 216 220 201 200 197 191 187 197 187 200 189 187 174 169 165 175 178 169 173 176 205 172 190 178 160 190 161 180 164 165 173 141 176 162 173
308 302 305 125 126 126 279 277 285 276 308 322 337 269 229 198 202 208 199 192 191 186 201 198 184 183 196 182 211 191 177 179 187 175 175 170 171 180 192 155 153 162 188 183 181 163 173 183 189

GFSSGP_2pvu_pres_120.txt.gz
Presure
131 140 113 129 83 70 197 158 112 97 124 137 139 146 155 98 150 172 100 93 118 186 96 97 160 88 95 171 173 179 95 150 106 131 93 96 97 91 93 92 100 100 90 95 91 88 97 100 96
122 127 112 190 144 163 119 89 80 191 166 117 146 74 143 108 93 113 100 93 96 96 138 139 89 135 96 90 90 95 150 86 92 92 98 99 95 100 92 84 96 153 88 92 88 90 123 113 96
190 115 140 127 136 165 137 157 139 111 139 112 82 83 85 134 140 131 78 153 77 84 99 93 91 85 101 102 97 97 94 92 92 85 96 102 95 99 91 106 89 102 88 98 89 99 94 139 94
147 146 125 105 153 159 179 132 106 132 100 157 106 92 83 79 86 146 139 147 143 148 144 94 96 143 102 170 148 94 101 96 98 95 96 91 84 128 103 119 120 88 89 95 91 91 94 96 105
133 158 157 144 158 156 141 155 149 157 178 96 171 138 136 84 84 129 85 133 143 132 134 137 140 143 109 133 103 102 123 150 106 100 103 178 163 174 86 108 88 92 145 99 96 101 88 90 88
185 172 199 124 131 173 148 149 119 130 111 156 133 170 174 134 100 81 122 87 131 117 134 113 138 136 140 148 76 146 141 179 90 162 168 134 96 173 169 95 154 91 89 102 157 99 91 110 95
111 142 136 181 160 160 108 145 92 132 87 122 151 164 176 153 131 117 140 85 85 122 116 124 93 84 129 149 128 140 139 136 136 83 87 183 135 164 172 90 133 101 160 95 83 109 157 92 144
123 198 139 141 223 146 159 152 232 142 135 83 155 108 106 146 127 129 127 128 123 119 144 124 96 165 105 130 135 133 136 133 85 136 164 118 158 144 165 164 92 85 90 95 127 150 152 172 90
151 157 134 148 126 151 149 157 153 165 135 118 103 148 153 136 122 115 142 137 110 135 160 125 120 151 132 134 128 165 133 93 103 91 87 146 181 158 150 132 124 131 165 123 120 88 90 85 97
109 128 147 128 146 174 134 137 222 154 147 146 104 102 160 162 149 133 134 154 123 147 134 140 77 143 81 88 161 166 114 138 124 97 137 138 103 106 160 129 150 137 87 130 89 83 135 84 120
126 138 154 114 209 132 193 143 224 213 142 141 152 168 135 130 71 121 178 142 156 114 153 151 84 126 136 136 135 142 136 148 116 133 153 135 86 93 77 90 90 81 110 79 113 90 98 160 147
135 190 138 112 143 145 192 148 81 165 165 161 169 162 103 125 155 118 184 153 154 147 127 140 128 135 132 117 135 111 139 111 181 149 147 133 151 147 134 159 124 161 156 169 164 166 162 169 155
177 142 138 105 187 160 156 145 143 136 153 145 163 127 158 124 114 132 152 180 130 140 119 135 144 130 137 108 142 85 104 113 108 114 182 125 142 135 139 142 160 148 146 158 125 157 155 137 153
143 167 147 144 173 128 168 140 177 136 133 142 135 157 142 159 138 154 129 157 152 151 136 117 110 115 127 150 122 146 133 136 172 142 142 140 154 150 126 132 165 136 117 147 109 176 143 164 164
138 150 149 178 226 129 139 131 125 76 145 139 153 143 282 87 168 141 151 139 112 104 102 111 114 112 153 111 112 115 168 89 127 129 116 126 144 153 158 171 124 130 130 158 125 146 134 142 158
150 132 139 106 156 134 146 159 129 184 194 134 130 164 96 167 175 149 144 180 107 78 109 109 107 118 183 134 116 106 118 113 118 135 104 116 179 187 183 150 160 103 162 148 135 179 157 169 150
136 168 141 123 137 139 156 129 191 241 105 162 151 119 106 151 165 115 136 79 174 121 110 140 115 106 93 103 123 178 122 127 125 125 136 123 125 119 116 139 172 144 145 157 116 159 143 123 102
138 125 129 123 149 220 237 162 85 97 261 208 106 151 105 102 124 132 225 129 108 111 104 120 92 89 116 110 114 93 129 141 125 105 125 153 127 126 124 121 149 144 123 113 166 158 130 146 134
138 119 251 155 163 159 297 95 251 201 139 163 179 165 167 183 158 111 222 277 94 96 135 108 130 127 95 133 90 128 136 138 106 115 113 184 117 130 128 198 177 139 132 146 109 147 117 143 110
154 112 155 158 181 237 224 184 229 230 187 410 365 216 245 148 88 132 120 210 117 105 150 120 122 81 105 86 115 127 118 138 137 121 134 138 103 136 137 135 121 153 167 158 111 136 134 151 154
136 210 183 294 174 212 229 196 163 158 158 167 114 195 323 213 163 240 196 202 287 242 134 133 132 129 126 125 133 116 116 131 121 124 139 116 107 135 163 175 143 136 157 193 154 126 102 158 109
317 381 319 161 137 151 143 145 138 154 157 177 161 130 185 230 199 182 126 267 314 253 194 170 133 127 138 141 139 123 126 136 142 153 120 131 152 128 136 133 136 150 174 93 149 196 153 144 181
354 317 155 130 138 148 150 164 164 232 162 359 163 134 147 205 117 193 144 209 248 269 229 189 171 141 104 141 135 134 138 169 144 133 147 209 148 127 206 146 140 140 131 167 101 171 171 87 123
162 166 138 146 141 228 335 326 343 347 386 281 150 348 161 204 170 162 177 213 199 255 185 207 139 124 171 143 131 140 133 164 156 149 147 85 160 139 152 149 167 100 137 105 181 141 197 81 160
140 262 224 321 318 315 325 342 332 358 351 407 257 247 152 173 161 143 199 192 160 238 213 175 175 157 161 139 142 133 162 143 172 145 196 132 149 123 145 152 145 169 140 175 169 131 160 191 174
181 308 324 316 312 303 313 319 327 344 325 326 362 305 246 151 164 141 146 175 188 183 204 233 209 152 151 139 160 143 129 138 170 165 139 154 142 157 176 179 168 184 156 158 178 172 171 156 150
152 299 333 308 296 300 284 296 309 314 335 345 372 409 386 191 145 145 144 152 166 161 175 160 153 182 157 143 141 140 144 140 169 151 158 161 152 168 181 173 151 208 171 189 181 183 146 129 139
292 305 318 312 304 303 300 290 309 321 329 328 348 369 400 373 264 148 153 149 170 150 175 188 165 134 133 164 157 161 169 157 167 166 192 173 187 190 171 188 170 176 185 174 175 173 182 189 182
292 291 299 309 301 290 289 281 290 295 199 312 338 381 406 360 255 200 149 197 158 154 143 142 143 148 148 157 142 177 160 178 164 163 165 190 160 198 192 184 186 193 201 197 191 187 176 192 199
142 304 310 288 286 271 275 138 142 148 150 151 144 143 154 338 252 225 206 199 144 164 157 152 153 164 146 171 198 187 191 168 175 172 166 173 190 173 171 168 159 188 170 201 192 198 205 190 187